﻿<?xml version="1.0" encoding="UTF-8" standalone="no" ?>
<gpx xmlns="http://www.topografix.com/GPX/1/1" creator="CompeGPS" version="1.1" xmlns:xsi="http://www.w3.org/2001/XMLSchema-instance" xsi:schemaLocation="http://www.topografix.com/GPX/1/1 http://www.topografix.com/GPX/1/1/gpx.xsd http://www.garmin.com/xmlschemas/GpxExtensions/v3 http://www.garmin.com/xmlschemas/GpxExtensionsv3.xsd http://www.garmin.com/xmlschemas/TrackPointExtension/v1 http://www.garmin.com/xmlschemas/TrackPointExtensionv1.xsd" xmlns:gpxtpx="http://www.garmin.com/xmlschemas/TrackPointExtension/v1">
  <metadata>
    <link href="http://www.compegps.com">
      <text>CompeGPS TEAM, SL</text>
    </link>
    <time>2018-08-19T20:27:46Z</time>
    <bounds maxlat="42.713872" maxlon="-0.031372" minlat="42.658095" minlon="-0.082497"/>
  </metadata>
  <trk>
    <name>faja_de_las_flores</name>
    <userMyTwoNav></userMyTwoNav>
    <serialNumber></serialNumber>
    <trkseg>
      <trkpt lat="42.713872" lon="-0.051229">
        <ele>2212.0</ele>
        <time>2018-08-19T03:53:03Z</time>
      </trkpt>
      <trkpt lat="42.713827" lon="-0.051261">
        <ele>2207.6</ele>
        <time>2018-08-19T03:54:05Z</time>
      </trkpt>
      <trkpt lat="42.713738" lon="-0.051227">
        <ele>2207.9</ele>
        <time>2018-08-19T03:54:15Z</time>
      </trkpt>
      <trkpt lat="42.713643" lon="-0.051147">
        <ele>2208.3</ele>
        <time>2018-08-19T03:54:26Z</time>
      </trkpt>
      <trkpt lat="42.713563" lon="-0.051084">
        <ele>2208.7</ele>
        <time>2018-08-19T03:54:35Z</time>
      </trkpt>
      <trkpt lat="42.713492" lon="-0.051021">
        <ele>2208.3</ele>
        <time>2018-08-19T03:54:42Z</time>
      </trkpt>
      <trkpt lat="42.713412" lon="-0.050992">
        <ele>2208.1</ele>
        <time>2018-08-19T03:54:49Z</time>
      </trkpt>
      <trkpt lat="42.713315" lon="-0.050995">
        <ele>2207.8</ele>
        <time>2018-08-19T03:54:58Z</time>
      </trkpt>
      <trkpt lat="42.713250" lon="-0.051051">
        <ele>2207.9</ele>
        <time>2018-08-19T03:55:07Z</time>
      </trkpt>
      <trkpt lat="42.713218" lon="-0.051168">
        <ele>2208.1</ele>
        <time>2018-08-19T03:55:15Z</time>
      </trkpt>
      <trkpt lat="42.713183" lon="-0.051289">
        <ele>2208.0</ele>
        <time>2018-08-19T03:55:23Z</time>
      </trkpt>
      <trkpt lat="42.713141" lon="-0.051408">
        <ele>2208.6</ele>
        <time>2018-08-19T03:55:31Z</time>
      </trkpt>
      <trkpt lat="42.713085" lon="-0.051515">
        <ele>2208.5</ele>
        <time>2018-08-19T03:55:39Z</time>
      </trkpt>
      <trkpt lat="42.713032" lon="-0.051642">
        <ele>2208.2</ele>
        <time>2018-08-19T03:55:48Z</time>
      </trkpt>
      <trkpt lat="42.712989" lon="-0.051754">
        <ele>2208.8</ele>
        <time>2018-08-19T03:55:56Z</time>
      </trkpt>
      <trkpt lat="42.712946" lon="-0.051885">
        <ele>2208.5</ele>
        <time>2018-08-19T03:56:05Z</time>
      </trkpt>
      <trkpt lat="42.712911" lon="-0.052024">
        <ele>2208.7</ele>
        <time>2018-08-19T03:56:14Z</time>
      </trkpt>
      <trkpt lat="42.712875" lon="-0.052160">
        <ele>2208.6</ele>
        <time>2018-08-19T03:56:22Z</time>
      </trkpt>
      <trkpt lat="42.712851" lon="-0.052282">
        <ele>2208.6</ele>
        <time>2018-08-19T03:56:29Z</time>
      </trkpt>
      <trkpt lat="42.712828" lon="-0.052414">
        <ele>2208.6</ele>
        <time>2018-08-19T03:56:37Z</time>
      </trkpt>
      <trkpt lat="42.712805" lon="-0.052556">
        <ele>2208.3</ele>
        <time>2018-08-19T03:56:45Z</time>
      </trkpt>
      <trkpt lat="42.712784" lon="-0.052691">
        <ele>2208.3</ele>
        <time>2018-08-19T03:56:53Z</time>
      </trkpt>
      <trkpt lat="42.712765" lon="-0.052822">
        <ele>2208.1</ele>
        <time>2018-08-19T03:57:01Z</time>
      </trkpt>
      <trkpt lat="42.712748" lon="-0.052966">
        <ele>2207.9</ele>
        <time>2018-08-19T03:57:10Z</time>
      </trkpt>
      <trkpt lat="42.712716" lon="-0.053092">
        <ele>2207.8</ele>
        <time>2018-08-19T03:57:18Z</time>
      </trkpt>
      <trkpt lat="42.712677" lon="-0.053213">
        <ele>2208.0</ele>
        <time>2018-08-19T03:57:26Z</time>
      </trkpt>
      <trkpt lat="42.712643" lon="-0.053344">
        <ele>2207.9</ele>
        <time>2018-08-19T03:57:34Z</time>
      </trkpt>
      <trkpt lat="42.712600" lon="-0.053468">
        <ele>2208.0</ele>
        <time>2018-08-19T03:57:42Z</time>
      </trkpt>
      <trkpt lat="42.712559" lon="-0.053584">
        <ele>2207.9</ele>
        <time>2018-08-19T03:57:50Z</time>
      </trkpt>
      <trkpt lat="42.712515" lon="-0.053698">
        <ele>2207.8</ele>
        <time>2018-08-19T03:57:58Z</time>
      </trkpt>
      <trkpt lat="42.712471" lon="-0.053813">
        <ele>2207.7</ele>
        <time>2018-08-19T03:58:06Z</time>
      </trkpt>
      <trkpt lat="42.712422" lon="-0.053943">
        <ele>2207.6</ele>
        <time>2018-08-19T03:58:14Z</time>
      </trkpt>
      <trkpt lat="42.712389" lon="-0.054064">
        <ele>2207.6</ele>
        <time>2018-08-19T03:58:22Z</time>
      </trkpt>
      <trkpt lat="42.712353" lon="-0.054196">
        <ele>2207.7</ele>
        <time>2018-08-19T03:58:30Z</time>
      </trkpt>
      <trkpt lat="42.712331" lon="-0.054324">
        <ele>2207.5</ele>
        <time>2018-08-19T03:58:38Z</time>
      </trkpt>
      <trkpt lat="42.712310" lon="-0.054438">
        <ele>2207.5</ele>
        <time>2018-08-19T03:58:45Z</time>
      </trkpt>
      <trkpt lat="42.712292" lon="-0.054567">
        <ele>2207.4</ele>
        <time>2018-08-19T03:58:53Z</time>
      </trkpt>
      <trkpt lat="42.712265" lon="-0.054702">
        <ele>2207.3</ele>
        <time>2018-08-19T03:59:01Z</time>
      </trkpt>
      <trkpt lat="42.712245" lon="-0.054825">
        <ele>2207.4</ele>
        <time>2018-08-19T03:59:08Z</time>
      </trkpt>
      <trkpt lat="42.712229" lon="-0.054949">
        <ele>2207.6</ele>
        <time>2018-08-19T03:59:15Z</time>
      </trkpt>
      <trkpt lat="42.712194" lon="-0.055075">
        <ele>2207.9</ele>
        <time>2018-08-19T03:59:23Z</time>
      </trkpt>
      <trkpt lat="42.712162" lon="-0.055210">
        <ele>2208.0</ele>
        <time>2018-08-19T03:59:31Z</time>
      </trkpt>
      <trkpt lat="42.712135" lon="-0.055342">
        <ele>2207.7</ele>
        <time>2018-08-19T03:59:39Z</time>
      </trkpt>
      <trkpt lat="42.712111" lon="-0.055462">
        <ele>2207.6</ele>
        <time>2018-08-19T03:59:46Z</time>
      </trkpt>
      <trkpt lat="42.712074" lon="-0.055584">
        <ele>2207.6</ele>
        <time>2018-08-19T03:59:53Z</time>
      </trkpt>
      <trkpt lat="42.712041" lon="-0.055701">
        <ele>2207.5</ele>
        <time>2018-08-19T04:00:00Z</time>
      </trkpt>
      <trkpt lat="42.712004" lon="-0.055815">
        <ele>2207.3</ele>
        <time>2018-08-19T04:00:07Z</time>
      </trkpt>
      <trkpt lat="42.711958" lon="-0.055914">
        <ele>2207.1</ele>
        <time>2018-08-19T04:00:14Z</time>
      </trkpt>
      <trkpt lat="42.711896" lon="-0.056003">
        <ele>2207.1</ele>
        <time>2018-08-19T04:00:22Z</time>
      </trkpt>
      <trkpt lat="42.711829" lon="-0.056110">
        <ele>2207.3</ele>
        <time>2018-08-19T04:00:30Z</time>
      </trkpt>
      <trkpt lat="42.711760" lon="-0.056218">
        <ele>2207.4</ele>
        <time>2018-08-19T04:00:39Z</time>
      </trkpt>
      <trkpt lat="42.711689" lon="-0.056315">
        <ele>2207.4</ele>
        <time>2018-08-19T04:00:46Z</time>
      </trkpt>
      <trkpt lat="42.711613" lon="-0.056409">
        <ele>2207.4</ele>
        <time>2018-08-19T04:00:53Z</time>
      </trkpt>
      <trkpt lat="42.711534" lon="-0.056487">
        <ele>2207.6</ele>
        <time>2018-08-19T04:01:00Z</time>
      </trkpt>
      <trkpt lat="42.711453" lon="-0.056547">
        <ele>2207.6</ele>
        <time>2018-08-19T04:01:07Z</time>
      </trkpt>
      <trkpt lat="42.711357" lon="-0.056607">
        <ele>2207.7</ele>
        <time>2018-08-19T04:01:15Z</time>
      </trkpt>
      <trkpt lat="42.711265" lon="-0.056648">
        <ele>2207.8</ele>
        <time>2018-08-19T04:01:21Z</time>
      </trkpt>
      <trkpt lat="42.711190" lon="-0.056696">
        <ele>2208.0</ele>
        <time>2018-08-19T04:01:29Z</time>
      </trkpt>
      <trkpt lat="42.711094" lon="-0.056770">
        <ele>2207.9</ele>
        <time>2018-08-19T04:01:37Z</time>
      </trkpt>
      <trkpt lat="42.711020" lon="-0.056873">
        <ele>2207.9</ele>
        <time>2018-08-19T04:01:45Z</time>
      </trkpt>
      <trkpt lat="42.710938" lon="-0.056953">
        <ele>2208.1</ele>
        <time>2018-08-19T04:01:53Z</time>
      </trkpt>
      <trkpt lat="42.710867" lon="-0.057022">
        <ele>2208.1</ele>
        <time>2018-08-19T04:02:00Z</time>
      </trkpt>
      <trkpt lat="42.710789" lon="-0.057097">
        <ele>2208.4</ele>
        <time>2018-08-19T04:02:07Z</time>
      </trkpt>
      <trkpt lat="42.710719" lon="-0.057177">
        <ele>2208.3</ele>
        <time>2018-08-19T04:02:14Z</time>
      </trkpt>
      <trkpt lat="42.710646" lon="-0.057253">
        <ele>2208.2</ele>
        <time>2018-08-19T04:02:21Z</time>
      </trkpt>
      <trkpt lat="42.710582" lon="-0.057351">
        <ele>2208.2</ele>
        <time>2018-08-19T04:02:29Z</time>
      </trkpt>
      <trkpt lat="42.710522" lon="-0.057472">
        <ele>2208.5</ele>
        <time>2018-08-19T04:02:37Z</time>
      </trkpt>
      <trkpt lat="42.710467" lon="-0.057568">
        <ele>2208.5</ele>
        <time>2018-08-19T04:02:44Z</time>
      </trkpt>
      <trkpt lat="42.710399" lon="-0.057660">
        <ele>2208.4</ele>
        <time>2018-08-19T04:02:51Z</time>
      </trkpt>
      <trkpt lat="42.710340" lon="-0.057774">
        <ele>2208.6</ele>
        <time>2018-08-19T04:02:59Z</time>
      </trkpt>
      <trkpt lat="42.710296" lon="-0.057875">
        <ele>2208.5</ele>
        <time>2018-08-19T04:03:06Z</time>
      </trkpt>
      <trkpt lat="42.710218" lon="-0.057976">
        <ele>2208.4</ele>
        <time>2018-08-19T04:03:13Z</time>
      </trkpt>
      <trkpt lat="42.710156" lon="-0.058071">
        <ele>2208.4</ele>
        <time>2018-08-19T04:03:19Z</time>
      </trkpt>
      <trkpt lat="42.710107" lon="-0.058173">
        <ele>2208.4</ele>
        <time>2018-08-19T04:03:26Z</time>
      </trkpt>
      <trkpt lat="42.710049" lon="-0.058266">
        <ele>2208.4</ele>
        <time>2018-08-19T04:03:32Z</time>
      </trkpt>
      <trkpt lat="42.710008" lon="-0.058376">
        <ele>2208.4</ele>
        <time>2018-08-19T04:03:39Z</time>
      </trkpt>
      <trkpt lat="42.709951" lon="-0.058478">
        <ele>2208.5</ele>
        <time>2018-08-19T04:03:46Z</time>
      </trkpt>
      <trkpt lat="42.709885" lon="-0.058576">
        <ele>2208.5</ele>
        <time>2018-08-19T04:03:53Z</time>
      </trkpt>
      <trkpt lat="42.709806" lon="-0.058631">
        <ele>2208.4</ele>
        <time>2018-08-19T04:04:00Z</time>
      </trkpt>
      <trkpt lat="42.709730" lon="-0.058701">
        <ele>2208.3</ele>
        <time>2018-08-19T04:04:07Z</time>
      </trkpt>
      <trkpt lat="42.709658" lon="-0.058782">
        <ele>2208.3</ele>
        <time>2018-08-19T04:04:14Z</time>
      </trkpt>
      <trkpt lat="42.709581" lon="-0.058871">
        <ele>2208.5</ele>
        <time>2018-08-19T04:04:21Z</time>
      </trkpt>
      <trkpt lat="42.709491" lon="-0.058938">
        <ele>2208.6</ele>
        <time>2018-08-19T04:04:28Z</time>
      </trkpt>
      <trkpt lat="42.709418" lon="-0.059017">
        <ele>2208.5</ele>
        <time>2018-08-19T04:04:36Z</time>
      </trkpt>
      <trkpt lat="42.709335" lon="-0.059097">
        <ele>2208.4</ele>
        <time>2018-08-19T04:04:44Z</time>
      </trkpt>
      <trkpt lat="42.709243" lon="-0.059162">
        <ele>2208.7</ele>
        <time>2018-08-19T04:04:52Z</time>
      </trkpt>
      <trkpt lat="42.709141" lon="-0.059211">
        <ele>2208.6</ele>
        <time>2018-08-19T04:05:00Z</time>
      </trkpt>
      <trkpt lat="42.709051" lon="-0.059261">
        <ele>2209.3</ele>
        <time>2018-08-19T04:05:09Z</time>
      </trkpt>
      <trkpt lat="42.708974" lon="-0.059325">
        <ele>2209.7</ele>
        <time>2018-08-19T04:05:16Z</time>
      </trkpt>
      <trkpt lat="42.708915" lon="-0.059432">
        <ele>2210.1</ele>
        <time>2018-08-19T04:05:25Z</time>
      </trkpt>
      <trkpt lat="42.708811" lon="-0.059515">
        <ele>2210.7</ele>
        <time>2018-08-19T04:05:33Z</time>
      </trkpt>
      <trkpt lat="42.708774" lon="-0.059594">
        <ele>2211.3</ele>
        <time>2018-08-19T04:05:41Z</time>
      </trkpt>
      <trkpt lat="42.708707" lon="-0.059664">
        <ele>2211.7</ele>
        <time>2018-08-19T04:05:48Z</time>
      </trkpt>
      <trkpt lat="42.708614" lon="-0.059752">
        <ele>2212.3</ele>
        <time>2018-08-19T04:05:55Z</time>
      </trkpt>
      <trkpt lat="42.708561" lon="-0.059822">
        <ele>2212.8</ele>
        <time>2018-08-19T04:06:02Z</time>
      </trkpt>
      <trkpt lat="42.708512" lon="-0.059902">
        <ele>2213.4</ele>
        <time>2018-08-19T04:06:10Z</time>
      </trkpt>
      <trkpt lat="42.708454" lon="-0.059964">
        <ele>2214.1</ele>
        <time>2018-08-19T04:06:19Z</time>
      </trkpt>
      <trkpt lat="42.708385" lon="-0.060013">
        <ele>2215.1</ele>
        <time>2018-08-19T04:06:29Z</time>
      </trkpt>
      <trkpt lat="42.708294" lon="-0.060078">
        <ele>2216.3</ele>
        <time>2018-08-19T04:06:39Z</time>
      </trkpt>
      <trkpt lat="42.708198" lon="-0.060113">
        <ele>2217.1</ele>
        <time>2018-08-19T04:06:47Z</time>
      </trkpt>
      <trkpt lat="42.708115" lon="-0.060193">
        <ele>2218.1</ele>
        <time>2018-08-19T04:06:56Z</time>
      </trkpt>
      <trkpt lat="42.708030" lon="-0.060264">
        <ele>2218.8</ele>
        <time>2018-08-19T04:07:05Z</time>
      </trkpt>
      <trkpt lat="42.707984" lon="-0.060338">
        <ele>2219.8</ele>
        <time>2018-08-19T04:07:14Z</time>
      </trkpt>
      <trkpt lat="42.707913" lon="-0.060431">
        <ele>2220.5</ele>
        <time>2018-08-19T04:07:22Z</time>
      </trkpt>
      <trkpt lat="42.707857" lon="-0.060517">
        <ele>2221.0</ele>
        <time>2018-08-19T04:07:31Z</time>
      </trkpt>
      <trkpt lat="42.707762" lon="-0.060590">
        <ele>2222.0</ele>
        <time>2018-08-19T04:07:40Z</time>
      </trkpt>
      <trkpt lat="42.707696" lon="-0.060671">
        <ele>2222.8</ele>
        <time>2018-08-19T04:07:50Z</time>
      </trkpt>
      <trkpt lat="42.707632" lon="-0.060750">
        <ele>2223.9</ele>
        <time>2018-08-19T04:07:59Z</time>
      </trkpt>
      <trkpt lat="42.707533" lon="-0.060834">
        <ele>2225.0</ele>
        <time>2018-08-19T04:08:10Z</time>
      </trkpt>
      <trkpt lat="42.707479" lon="-0.060925">
        <ele>2225.8</ele>
        <time>2018-08-19T04:08:20Z</time>
      </trkpt>
      <trkpt lat="42.707398" lon="-0.061019">
        <ele>2227.2</ele>
        <time>2018-08-19T04:08:31Z</time>
      </trkpt>
      <trkpt lat="42.707328" lon="-0.061094">
        <ele>2227.8</ele>
        <time>2018-08-19T04:08:40Z</time>
      </trkpt>
      <trkpt lat="42.707267" lon="-0.061185">
        <ele>2228.6</ele>
        <time>2018-08-19T04:08:49Z</time>
      </trkpt>
      <trkpt lat="42.707225" lon="-0.061294">
        <ele>2229.6</ele>
        <time>2018-08-19T04:08:58Z</time>
      </trkpt>
      <trkpt lat="42.707176" lon="-0.061414">
        <ele>2230.2</ele>
        <time>2018-08-19T04:09:07Z</time>
      </trkpt>
      <trkpt lat="42.707146" lon="-0.061541">
        <ele>2230.9</ele>
        <time>2018-08-19T04:09:16Z</time>
      </trkpt>
      <trkpt lat="42.707114" lon="-0.061667">
        <ele>2231.8</ele>
        <time>2018-08-19T04:09:26Z</time>
      </trkpt>
      <trkpt lat="42.707081" lon="-0.061774">
        <ele>2232.5</ele>
        <time>2018-08-19T04:09:34Z</time>
      </trkpt>
      <trkpt lat="42.707044" lon="-0.061867">
        <ele>2233.3</ele>
        <time>2018-08-19T04:09:43Z</time>
      </trkpt>
      <trkpt lat="42.706991" lon="-0.061913">
        <ele>2234.2</ele>
        <time>2018-08-19T04:09:52Z</time>
      </trkpt>
      <trkpt lat="42.706929" lon="-0.061995">
        <ele>2234.9</ele>
        <time>2018-08-19T04:10:01Z</time>
      </trkpt>
      <trkpt lat="42.706861" lon="-0.062056">
        <ele>2235.6</ele>
        <time>2018-08-19T04:10:10Z</time>
      </trkpt>
      <trkpt lat="42.706785" lon="-0.062107">
        <ele>2236.3</ele>
        <time>2018-08-19T04:10:19Z</time>
      </trkpt>
      <trkpt lat="42.706726" lon="-0.062183">
        <ele>2236.9</ele>
        <time>2018-08-19T04:10:28Z</time>
      </trkpt>
      <trkpt lat="42.706648" lon="-0.062248">
        <ele>2237.8</ele>
        <time>2018-08-19T04:10:37Z</time>
      </trkpt>
      <trkpt lat="42.706579" lon="-0.062288">
        <ele>2238.8</ele>
        <time>2018-08-19T04:10:46Z</time>
      </trkpt>
      <trkpt lat="42.706473" lon="-0.062340">
        <ele>2240.0</ele>
        <time>2018-08-19T04:10:57Z</time>
      </trkpt>
      <trkpt lat="42.706407" lon="-0.062423">
        <ele>2240.9</ele>
        <time>2018-08-19T04:11:07Z</time>
      </trkpt>
      <trkpt lat="42.706346" lon="-0.062495">
        <ele>2242.1</ele>
        <time>2018-08-19T04:11:18Z</time>
      </trkpt>
      <trkpt lat="42.706267" lon="-0.062561">
        <ele>2242.9</ele>
        <time>2018-08-19T04:11:29Z</time>
      </trkpt>
      <trkpt lat="42.706182" lon="-0.062621">
        <ele>2243.7</ele>
        <time>2018-08-19T04:11:40Z</time>
      </trkpt>
      <trkpt lat="42.706094" lon="-0.062687">
        <ele>2245.0</ele>
        <time>2018-08-19T04:11:50Z</time>
      </trkpt>
      <trkpt lat="42.706005" lon="-0.062751">
        <ele>2245.6</ele>
        <time>2018-08-19T04:11:59Z</time>
      </trkpt>
      <trkpt lat="42.705933" lon="-0.062827">
        <ele>2246.9</ele>
        <time>2018-08-19T04:12:10Z</time>
      </trkpt>
      <trkpt lat="42.705838" lon="-0.062884">
        <ele>2248.0</ele>
        <time>2018-08-19T04:12:22Z</time>
      </trkpt>
      <trkpt lat="42.705742" lon="-0.062901">
        <ele>2248.8</ele>
        <time>2018-08-19T04:12:32Z</time>
      </trkpt>
      <trkpt lat="42.705665" lon="-0.062960">
        <ele>2249.6</ele>
        <time>2018-08-19T04:12:41Z</time>
      </trkpt>
      <trkpt lat="42.705583" lon="-0.063032">
        <ele>2250.6</ele>
        <time>2018-08-19T04:12:50Z</time>
      </trkpt>
      <trkpt lat="42.705502" lon="-0.063082">
        <ele>2251.7</ele>
        <time>2018-08-19T04:13:01Z</time>
      </trkpt>
      <trkpt lat="42.705418" lon="-0.063129">
        <ele>2252.7</ele>
        <time>2018-08-19T04:13:11Z</time>
      </trkpt>
      <trkpt lat="42.705323" lon="-0.063136">
        <ele>2253.8</ele>
        <time>2018-08-19T04:13:22Z</time>
      </trkpt>
      <trkpt lat="42.705224" lon="-0.063181">
        <ele>2254.7</ele>
        <time>2018-08-19T04:13:31Z</time>
      </trkpt>
      <trkpt lat="42.705132" lon="-0.063247">
        <ele>2255.6</ele>
        <time>2018-08-19T04:13:41Z</time>
      </trkpt>
      <trkpt lat="42.705030" lon="-0.063269">
        <ele>2256.8</ele>
        <time>2018-08-19T04:13:51Z</time>
      </trkpt>
      <trkpt lat="42.704965" lon="-0.063288">
        <ele>2257.7</ele>
        <time>2018-08-19T04:14:00Z</time>
      </trkpt>
      <trkpt lat="42.704873" lon="-0.063332">
        <ele>2258.6</ele>
        <time>2018-08-19T04:14:10Z</time>
      </trkpt>
      <trkpt lat="42.704774" lon="-0.063378">
        <ele>2259.2</ele>
        <time>2018-08-19T04:14:20Z</time>
      </trkpt>
      <trkpt lat="42.704671" lon="-0.063422">
        <ele>2260.3</ele>
        <time>2018-08-19T04:14:30Z</time>
      </trkpt>
      <trkpt lat="42.704589" lon="-0.063443">
        <ele>2261.2</ele>
        <time>2018-08-19T04:14:40Z</time>
      </trkpt>
      <trkpt lat="42.704492" lon="-0.063476">
        <ele>2261.9</ele>
        <time>2018-08-19T04:14:50Z</time>
      </trkpt>
      <trkpt lat="42.704382" lon="-0.063494">
        <ele>2262.9</ele>
        <time>2018-08-19T04:15:00Z</time>
      </trkpt>
      <trkpt lat="42.704292" lon="-0.063517">
        <ele>2263.7</ele>
        <time>2018-08-19T04:15:09Z</time>
      </trkpt>
      <trkpt lat="42.704181" lon="-0.063550">
        <ele>2264.3</ele>
        <time>2018-08-19T04:15:20Z</time>
      </trkpt>
      <trkpt lat="42.704107" lon="-0.063618">
        <ele>2265.3</ele>
        <time>2018-08-19T04:15:30Z</time>
      </trkpt>
      <trkpt lat="42.704041" lon="-0.063702">
        <ele>2266.2</ele>
        <time>2018-08-19T04:15:40Z</time>
      </trkpt>
      <trkpt lat="42.703981" lon="-0.063795">
        <ele>2266.7</ele>
        <time>2018-08-19T04:15:49Z</time>
      </trkpt>
      <trkpt lat="42.703936" lon="-0.063904">
        <ele>2267.6</ele>
        <time>2018-08-19T04:15:59Z</time>
      </trkpt>
      <trkpt lat="42.703894" lon="-0.064015">
        <ele>2268.6</ele>
        <time>2018-08-19T04:16:08Z</time>
      </trkpt>
      <trkpt lat="42.703848" lon="-0.064102">
        <ele>2269.2</ele>
        <time>2018-08-19T04:16:15Z</time>
      </trkpt>
      <trkpt lat="42.703813" lon="-0.064197">
        <ele>2269.8</ele>
        <time>2018-08-19T04:16:24Z</time>
      </trkpt>
      <trkpt lat="42.703809" lon="-0.064321">
        <ele>2270.5</ele>
        <time>2018-08-19T04:16:35Z</time>
      </trkpt>
      <trkpt lat="42.703818" lon="-0.064360">
        <ele>2270.2</ele>
        <time>2018-08-19T04:17:06Z</time>
      </trkpt>
      <trkpt lat="42.703800" lon="-0.064486">
        <ele>2270.1</ele>
        <time>2018-08-19T04:17:18Z</time>
      </trkpt>
      <trkpt lat="42.703746" lon="-0.064565">
        <ele>2270.0</ele>
        <time>2018-08-19T04:17:28Z</time>
      </trkpt>
      <trkpt lat="42.703722" lon="-0.064644">
        <ele>2268.3</ele>
        <time>2018-08-19T04:17:46Z</time>
      </trkpt>
      <trkpt lat="42.703755" lon="-0.064781">
        <ele>2266.3</ele>
        <time>2018-08-19T04:18:03Z</time>
      </trkpt>
      <trkpt lat="42.703749" lon="-0.064908">
        <ele>2264.7</ele>
        <time>2018-08-19T04:18:12Z</time>
      </trkpt>
      <trkpt lat="42.703679" lon="-0.065005">
        <ele>2262.6</ele>
        <time>2018-08-19T04:18:23Z</time>
      </trkpt>
      <trkpt lat="42.703664" lon="-0.065043">
        <ele>2261.7</ele>
        <time>2018-08-19T04:18:49Z</time>
      </trkpt>
      <trkpt lat="42.703593" lon="-0.065148">
        <ele>2261.0</ele>
        <time>2018-08-19T04:18:58Z</time>
      </trkpt>
      <trkpt lat="42.703505" lon="-0.065227">
        <ele>2259.8</ele>
        <time>2018-08-19T04:19:12Z</time>
      </trkpt>
      <trkpt lat="42.703464" lon="-0.065328">
        <ele>2257.3</ele>
        <time>2018-08-19T04:19:27Z</time>
      </trkpt>
      <trkpt lat="42.703371" lon="-0.065336">
        <ele>2256.9</ele>
        <time>2018-08-19T04:19:37Z</time>
      </trkpt>
      <trkpt lat="42.703336" lon="-0.065394">
        <ele>2255.3</ele>
        <time>2018-08-19T04:19:53Z</time>
      </trkpt>
      <trkpt lat="42.703259" lon="-0.065505">
        <ele>2254.6</ele>
        <time>2018-08-19T04:20:10Z</time>
      </trkpt>
      <trkpt lat="42.703230" lon="-0.065632">
        <ele>2252.4</ele>
        <time>2018-08-19T04:20:28Z</time>
      </trkpt>
      <trkpt lat="42.703186" lon="-0.065764">
        <ele>2249.9</ele>
        <time>2018-08-19T04:20:51Z</time>
      </trkpt>
      <trkpt lat="42.703114" lon="-0.065828">
        <ele>2249.8</ele>
        <time>2018-08-19T04:21:19Z</time>
      </trkpt>
      <trkpt lat="42.703068" lon="-0.065938">
        <ele>2250.5</ele>
        <time>2018-08-19T04:21:40Z</time>
      </trkpt>
      <trkpt lat="42.703038" lon="-0.066018">
        <ele>2249.2</ele>
        <time>2018-08-19T04:22:08Z</time>
      </trkpt>
      <trkpt lat="42.702987" lon="-0.066089">
        <ele>2249.0</ele>
        <time>2018-08-19T04:22:34Z</time>
      </trkpt>
      <trkpt lat="42.702926" lon="-0.066193">
        <ele>2248.8</ele>
        <time>2018-08-19T04:22:47Z</time>
      </trkpt>
      <trkpt lat="42.702850" lon="-0.066300">
        <ele>2251.3</ele>
        <time>2018-08-19T04:23:04Z</time>
      </trkpt>
      <trkpt lat="42.702769" lon="-0.066327">
        <ele>2254.7</ele>
        <time>2018-08-19T04:23:24Z</time>
      </trkpt>
      <trkpt lat="42.702748" lon="-0.066467">
        <ele>2255.5</ele>
        <time>2018-08-19T04:23:40Z</time>
      </trkpt>
      <trkpt lat="42.702735" lon="-0.066570">
        <ele>2255.8</ele>
        <time>2018-08-19T04:24:10Z</time>
      </trkpt>
      <trkpt lat="42.702706" lon="-0.066619">
        <ele>2259.0</ele>
        <time>2018-08-19T04:25:13Z</time>
      </trkpt>
      <trkpt lat="42.702666" lon="-0.066656">
        <ele>2260.2</ele>
        <time>2018-08-19T04:25:52Z</time>
      </trkpt>
      <trkpt lat="42.702590" lon="-0.066749">
        <ele>2260.0</ele>
        <time>2018-08-19T04:26:13Z</time>
      </trkpt>
      <trkpt lat="42.702580" lon="-0.066781">
        <ele>2263.4</ele>
        <time>2018-08-19T04:26:45Z</time>
      </trkpt>
      <trkpt lat="42.702534" lon="-0.066880">
        <ele>2267.1</ele>
        <time>2018-08-19T04:27:18Z</time>
      </trkpt>
      <trkpt lat="42.702457" lon="-0.066957">
        <ele>2271.2</ele>
        <time>2018-08-19T04:28:01Z</time>
      </trkpt>
      <trkpt lat="42.702416" lon="-0.067073">
        <ele>2274.6</ele>
        <time>2018-08-19T04:28:21Z</time>
      </trkpt>
      <trkpt lat="42.702398" lon="-0.067156">
        <ele>2276.9</ele>
        <time>2018-08-19T04:30:53Z</time>
      </trkpt>
      <trkpt lat="42.702395" lon="-0.067155">
        <ele>2278.0</ele>
        <time>2018-08-19T04:32:09Z</time>
      </trkpt>
      <trkpt lat="42.702337" lon="-0.067300">
        <ele>2278.9</ele>
        <time>2018-08-19T04:32:24Z</time>
      </trkpt>
      <trkpt lat="42.702289" lon="-0.067411">
        <ele>2279.8</ele>
        <time>2018-08-19T04:32:36Z</time>
      </trkpt>
      <trkpt lat="42.702206" lon="-0.067497">
        <ele>2280.7</ele>
        <time>2018-08-19T04:32:50Z</time>
      </trkpt>
      <trkpt lat="42.702143" lon="-0.067606">
        <ele>2281.4</ele>
        <time>2018-08-19T04:33:02Z</time>
      </trkpt>
      <trkpt lat="42.702086" lon="-0.067700">
        <ele>2281.7</ele>
        <time>2018-08-19T04:33:13Z</time>
      </trkpt>
      <trkpt lat="42.702025" lon="-0.067802">
        <ele>2281.7</ele>
        <time>2018-08-19T04:33:24Z</time>
      </trkpt>
      <trkpt lat="42.701988" lon="-0.067921">
        <ele>2281.1</ele>
        <time>2018-08-19T04:33:35Z</time>
      </trkpt>
      <trkpt lat="42.701944" lon="-0.068033">
        <ele>2280.1</ele>
        <time>2018-08-19T04:33:45Z</time>
      </trkpt>
      <trkpt lat="42.701874" lon="-0.068129">
        <ele>2279.4</ele>
        <time>2018-08-19T04:33:56Z</time>
      </trkpt>
      <trkpt lat="42.701780" lon="-0.068229">
        <ele>2279.3</ele>
        <time>2018-08-19T04:34:06Z</time>
      </trkpt>
      <trkpt lat="42.701715" lon="-0.068335">
        <ele>2279.6</ele>
        <time>2018-08-19T04:34:16Z</time>
      </trkpt>
      <trkpt lat="42.701637" lon="-0.068413">
        <ele>2280.7</ele>
        <time>2018-08-19T04:34:28Z</time>
      </trkpt>
      <trkpt lat="42.701577" lon="-0.068514">
        <ele>2281.9</ele>
        <time>2018-08-19T04:34:39Z</time>
      </trkpt>
      <trkpt lat="42.701494" lon="-0.068583">
        <ele>2281.8</ele>
        <time>2018-08-19T04:34:49Z</time>
      </trkpt>
      <trkpt lat="42.701400" lon="-0.068611">
        <ele>2281.6</ele>
        <time>2018-08-19T04:34:58Z</time>
      </trkpt>
      <trkpt lat="42.701315" lon="-0.068653">
        <ele>2282.3</ele>
        <time>2018-08-19T04:35:09Z</time>
      </trkpt>
      <trkpt lat="42.701240" lon="-0.068736">
        <ele>2283.5</ele>
        <time>2018-08-19T04:35:20Z</time>
      </trkpt>
      <trkpt lat="42.701155" lon="-0.068809">
        <ele>2285.3</ele>
        <time>2018-08-19T04:35:35Z</time>
      </trkpt>
      <trkpt lat="42.701093" lon="-0.068917">
        <ele>2285.4</ele>
        <time>2018-08-19T04:35:47Z</time>
      </trkpt>
      <trkpt lat="42.701020" lon="-0.069006">
        <ele>2286.2</ele>
        <time>2018-08-19T04:36:02Z</time>
      </trkpt>
      <trkpt lat="42.700937" lon="-0.069101">
        <ele>2288.4</ele>
        <time>2018-08-19T04:36:17Z</time>
      </trkpt>
      <trkpt lat="42.700847" lon="-0.069161">
        <ele>2289.3</ele>
        <time>2018-08-19T04:36:30Z</time>
      </trkpt>
      <trkpt lat="42.700772" lon="-0.069233">
        <ele>2289.9</ele>
        <time>2018-08-19T04:36:42Z</time>
      </trkpt>
      <trkpt lat="42.700680" lon="-0.069285">
        <ele>2291.4</ele>
        <time>2018-08-19T04:36:56Z</time>
      </trkpt>
      <trkpt lat="42.700586" lon="-0.069340">
        <ele>2292.1</ele>
        <time>2018-08-19T04:37:07Z</time>
      </trkpt>
      <trkpt lat="42.700493" lon="-0.069353">
        <ele>2293.0</ele>
        <time>2018-08-19T04:37:19Z</time>
      </trkpt>
      <trkpt lat="42.700406" lon="-0.069398">
        <ele>2294.1</ele>
        <time>2018-08-19T04:37:31Z</time>
      </trkpt>
      <trkpt lat="42.700310" lon="-0.069414">
        <ele>2296.1</ele>
        <time>2018-08-19T04:37:46Z</time>
      </trkpt>
      <trkpt lat="42.700225" lon="-0.069463">
        <ele>2299.1</ele>
        <time>2018-08-19T04:38:07Z</time>
      </trkpt>
      <trkpt lat="42.700149" lon="-0.069528">
        <ele>2302.2</ele>
        <time>2018-08-19T04:38:24Z</time>
      </trkpt>
      <trkpt lat="42.700084" lon="-0.069624">
        <ele>2304.7</ele>
        <time>2018-08-19T04:38:42Z</time>
      </trkpt>
      <trkpt lat="42.700017" lon="-0.069704">
        <ele>2306.5</ele>
        <time>2018-08-19T04:38:57Z</time>
      </trkpt>
      <trkpt lat="42.699953" lon="-0.069795">
        <ele>2308.9</ele>
        <time>2018-08-19T04:39:12Z</time>
      </trkpt>
      <trkpt lat="42.699891" lon="-0.069892">
        <ele>2310.1</ele>
        <time>2018-08-19T04:39:27Z</time>
      </trkpt>
      <trkpt lat="42.699816" lon="-0.069999">
        <ele>2311.4</ele>
        <time>2018-08-19T04:39:44Z</time>
      </trkpt>
      <trkpt lat="42.699755" lon="-0.070087">
        <ele>2312.1</ele>
        <time>2018-08-19T04:39:57Z</time>
      </trkpt>
      <trkpt lat="42.699699" lon="-0.070176">
        <ele>2313.2</ele>
        <time>2018-08-19T04:40:10Z</time>
      </trkpt>
      <trkpt lat="42.699637" lon="-0.070300">
        <ele>2313.9</ele>
        <time>2018-08-19T04:40:25Z</time>
      </trkpt>
      <trkpt lat="42.699581" lon="-0.070425">
        <ele>2315.1</ele>
        <time>2018-08-19T04:40:39Z</time>
      </trkpt>
      <trkpt lat="42.699523" lon="-0.070535">
        <ele>2316.0</ele>
        <time>2018-08-19T04:40:50Z</time>
      </trkpt>
      <trkpt lat="42.699457" lon="-0.070619">
        <ele>2316.3</ele>
        <time>2018-08-19T04:41:03Z</time>
      </trkpt>
      <trkpt lat="42.699387" lon="-0.070705">
        <ele>2316.7</ele>
        <time>2018-08-19T04:41:20Z</time>
      </trkpt>
      <trkpt lat="42.699308" lon="-0.070784">
        <ele>2316.8</ele>
        <time>2018-08-19T04:41:33Z</time>
      </trkpt>
      <trkpt lat="42.699225" lon="-0.070855">
        <ele>2316.8</ele>
        <time>2018-08-19T04:41:44Z</time>
      </trkpt>
      <trkpt lat="42.699160" lon="-0.070950">
        <ele>2316.9</ele>
        <time>2018-08-19T04:41:56Z</time>
      </trkpt>
      <trkpt lat="42.699091" lon="-0.071033">
        <ele>2317.9</ele>
        <time>2018-08-19T04:42:07Z</time>
      </trkpt>
      <trkpt lat="42.699012" lon="-0.071099">
        <ele>2318.8</ele>
        <time>2018-08-19T04:42:19Z</time>
      </trkpt>
      <trkpt lat="42.698925" lon="-0.071145">
        <ele>2319.9</ele>
        <time>2018-08-19T04:42:31Z</time>
      </trkpt>
      <trkpt lat="42.698843" lon="-0.071228">
        <ele>2319.4</ele>
        <time>2018-08-19T04:42:45Z</time>
      </trkpt>
      <trkpt lat="42.698781" lon="-0.071321">
        <ele>2319.7</ele>
        <time>2018-08-19T04:42:57Z</time>
      </trkpt>
      <trkpt lat="42.698740" lon="-0.071433">
        <ele>2320.1</ele>
        <time>2018-08-19T04:43:08Z</time>
      </trkpt>
      <trkpt lat="42.698687" lon="-0.071539">
        <ele>2320.9</ele>
        <time>2018-08-19T04:43:20Z</time>
      </trkpt>
      <trkpt lat="42.698602" lon="-0.071594">
        <ele>2322.4</ele>
        <time>2018-08-19T04:43:33Z</time>
      </trkpt>
      <trkpt lat="42.698515" lon="-0.071645">
        <ele>2324.0</ele>
        <time>2018-08-19T04:43:48Z</time>
      </trkpt>
      <trkpt lat="42.698461" lon="-0.071742">
        <ele>2325.3</ele>
        <time>2018-08-19T04:44:01Z</time>
      </trkpt>
      <trkpt lat="42.698390" lon="-0.071823">
        <ele>2325.4</ele>
        <time>2018-08-19T04:45:03Z</time>
      </trkpt>
      <trkpt lat="42.698325" lon="-0.071910">
        <ele>2325.8</ele>
        <time>2018-08-19T04:45:13Z</time>
      </trkpt>
      <trkpt lat="42.698241" lon="-0.071993">
        <ele>2326.1</ele>
        <time>2018-08-19T04:45:25Z</time>
      </trkpt>
      <trkpt lat="42.698179" lon="-0.072096">
        <ele>2325.7</ele>
        <time>2018-08-19T04:45:37Z</time>
      </trkpt>
      <trkpt lat="42.698125" lon="-0.072171">
        <ele>2323.4</ele>
        <time>2018-08-19T04:45:58Z</time>
      </trkpt>
      <trkpt lat="42.698061" lon="-0.072240">
        <ele>2323.2</ele>
        <time>2018-08-19T04:46:09Z</time>
      </trkpt>
      <trkpt lat="42.698038" lon="-0.072368">
        <ele>2324.2</ele>
        <time>2018-08-19T04:46:20Z</time>
      </trkpt>
      <trkpt lat="42.697972" lon="-0.072468">
        <ele>2324.8</ele>
        <time>2018-08-19T04:46:31Z</time>
      </trkpt>
      <trkpt lat="42.697917" lon="-0.072595">
        <ele>2325.9</ele>
        <time>2018-08-19T04:46:44Z</time>
      </trkpt>
      <trkpt lat="42.697834" lon="-0.072654">
        <ele>2327.2</ele>
        <time>2018-08-19T04:46:58Z</time>
      </trkpt>
      <trkpt lat="42.697774" lon="-0.072758">
        <ele>2328.4</ele>
        <time>2018-08-19T04:47:19Z</time>
      </trkpt>
      <trkpt lat="42.697711" lon="-0.072878">
        <ele>2329.2</ele>
        <time>2018-08-19T04:47:35Z</time>
      </trkpt>
      <trkpt lat="42.697687" lon="-0.073003">
        <ele>2330.7</ele>
        <time>2018-08-19T04:47:49Z</time>
      </trkpt>
      <trkpt lat="42.697624" lon="-0.073076">
        <ele>2332.7</ele>
        <time>2018-08-19T04:48:04Z</time>
      </trkpt>
      <trkpt lat="42.697578" lon="-0.073178">
        <ele>2334.8</ele>
        <time>2018-08-19T04:48:19Z</time>
      </trkpt>
      <trkpt lat="42.697528" lon="-0.073271">
        <ele>2336.5</ele>
        <time>2018-08-19T04:48:33Z</time>
      </trkpt>
      <trkpt lat="42.697480" lon="-0.073379">
        <ele>2336.9</ele>
        <time>2018-08-19T04:48:45Z</time>
      </trkpt>
      <trkpt lat="42.697408" lon="-0.073473">
        <ele>2337.3</ele>
        <time>2018-08-19T04:48:57Z</time>
      </trkpt>
      <trkpt lat="42.697337" lon="-0.073562">
        <ele>2338.4</ele>
        <time>2018-08-19T04:49:11Z</time>
      </trkpt>
      <trkpt lat="42.697268" lon="-0.073657">
        <ele>2340.3</ele>
        <time>2018-08-19T04:49:26Z</time>
      </trkpt>
      <trkpt lat="42.697194" lon="-0.073758">
        <ele>2341.8</ele>
        <time>2018-08-19T04:49:42Z</time>
      </trkpt>
      <trkpt lat="42.697116" lon="-0.073851">
        <ele>2344.0</ele>
        <time>2018-08-19T04:49:58Z</time>
      </trkpt>
      <trkpt lat="42.697068" lon="-0.073956">
        <ele>2346.2</ele>
        <time>2018-08-19T04:50:12Z</time>
      </trkpt>
      <trkpt lat="42.697024" lon="-0.074062">
        <ele>2348.1</ele>
        <time>2018-08-19T04:50:28Z</time>
      </trkpt>
      <trkpt lat="42.696979" lon="-0.074163">
        <ele>2349.4</ele>
        <time>2018-08-19T04:50:40Z</time>
      </trkpt>
      <trkpt lat="42.696943" lon="-0.074277">
        <ele>2350.1</ele>
        <time>2018-08-19T04:50:54Z</time>
      </trkpt>
      <trkpt lat="42.696899" lon="-0.074378">
        <ele>2351.2</ele>
        <time>2018-08-19T04:51:19Z</time>
      </trkpt>
      <trkpt lat="42.696830" lon="-0.074445">
        <ele>2354.3</ele>
        <time>2018-08-19T04:51:38Z</time>
      </trkpt>
      <trkpt lat="42.696785" lon="-0.074541">
        <ele>2357.3</ele>
        <time>2018-08-19T04:51:59Z</time>
      </trkpt>
      <trkpt lat="42.696735" lon="-0.074623">
        <ele>2361.3</ele>
        <time>2018-08-19T04:52:24Z</time>
      </trkpt>
      <trkpt lat="42.696739" lon="-0.074626">
        <ele>2362.6</ele>
        <time>2018-08-19T04:55:05Z</time>
      </trkpt>
      <trkpt lat="42.696656" lon="-0.074623">
        <ele>2363.1</ele>
        <time>2018-08-19T04:55:39Z</time>
      </trkpt>
      <trkpt lat="42.696594" lon="-0.074731">
        <ele>2365.3</ele>
        <time>2018-08-19T04:55:53Z</time>
      </trkpt>
      <trkpt lat="42.696539" lon="-0.074839">
        <ele>2366.9</ele>
        <time>2018-08-19T04:56:05Z</time>
      </trkpt>
      <trkpt lat="42.696465" lon="-0.074930">
        <ele>2368.6</ele>
        <time>2018-08-19T04:56:19Z</time>
      </trkpt>
      <trkpt lat="42.696396" lon="-0.075020">
        <ele>2369.4</ele>
        <time>2018-08-19T04:56:32Z</time>
      </trkpt>
      <trkpt lat="42.696356" lon="-0.075127">
        <ele>2371.0</ele>
        <time>2018-08-19T04:56:47Z</time>
      </trkpt>
      <trkpt lat="42.696273" lon="-0.075160">
        <ele>2373.4</ele>
        <time>2018-08-19T04:57:31Z</time>
      </trkpt>
      <trkpt lat="42.696187" lon="-0.075178">
        <ele>2376.6</ele>
        <time>2018-08-19T04:57:49Z</time>
      </trkpt>
      <trkpt lat="42.696121" lon="-0.075254">
        <ele>2379.0</ele>
        <time>2018-08-19T04:58:04Z</time>
      </trkpt>
      <trkpt lat="42.696048" lon="-0.075293">
        <ele>2379.8</ele>
        <time>2018-08-19T04:58:37Z</time>
      </trkpt>
      <trkpt lat="42.695960" lon="-0.075343">
        <ele>2381.8</ele>
        <time>2018-08-19T04:58:53Z</time>
      </trkpt>
      <trkpt lat="42.695885" lon="-0.075399">
        <ele>2382.1</ele>
        <time>2018-08-19T04:59:09Z</time>
      </trkpt>
      <trkpt lat="42.695887" lon="-0.075492">
        <ele>2380.8</ele>
        <time>2018-08-19T04:59:40Z</time>
      </trkpt>
      <trkpt lat="42.695852" lon="-0.075611">
        <ele>2377.0</ele>
        <time>2018-08-19T04:59:57Z</time>
      </trkpt>
      <trkpt lat="42.695803" lon="-0.075721">
        <ele>2373.3</ele>
        <time>2018-08-19T05:00:16Z</time>
      </trkpt>
      <trkpt lat="42.695733" lon="-0.075808">
        <ele>2369.9</ele>
        <time>2018-08-19T05:00:36Z</time>
      </trkpt>
      <trkpt lat="42.695666" lon="-0.075891">
        <ele>2368.7</ele>
        <time>2018-08-19T05:01:01Z</time>
      </trkpt>
      <trkpt lat="42.695640" lon="-0.076007">
        <ele>2364.9</ele>
        <time>2018-08-19T05:01:31Z</time>
      </trkpt>
      <trkpt lat="42.695669" lon="-0.076091">
        <ele>2358.1</ele>
        <time>2018-08-19T05:03:08Z</time>
      </trkpt>
      <trkpt lat="42.695620" lon="-0.076206">
        <ele>2358.0</ele>
        <time>2018-08-19T05:03:25Z</time>
      </trkpt>
      <trkpt lat="42.695543" lon="-0.076284">
        <ele>2357.9</ele>
        <time>2018-08-19T05:03:37Z</time>
      </trkpt>
      <trkpt lat="42.695490" lon="-0.076398">
        <ele>2358.1</ele>
        <time>2018-08-19T05:03:50Z</time>
      </trkpt>
      <trkpt lat="42.695418" lon="-0.076506">
        <ele>2356.8</ele>
        <time>2018-08-19T05:04:04Z</time>
      </trkpt>
      <trkpt lat="42.695331" lon="-0.076568">
        <ele>2355.7</ele>
        <time>2018-08-19T05:04:14Z</time>
      </trkpt>
      <trkpt lat="42.695258" lon="-0.076629">
        <ele>2355.3</ele>
        <time>2018-08-19T05:04:27Z</time>
      </trkpt>
      <trkpt lat="42.695170" lon="-0.076703">
        <ele>2355.6</ele>
        <time>2018-08-19T05:04:47Z</time>
      </trkpt>
      <trkpt lat="42.695113" lon="-0.076811">
        <ele>2355.6</ele>
        <time>2018-08-19T05:05:09Z</time>
      </trkpt>
      <trkpt lat="42.695049" lon="-0.076914">
        <ele>2354.8</ele>
        <time>2018-08-19T05:05:27Z</time>
      </trkpt>
      <trkpt lat="42.694972" lon="-0.076987">
        <ele>2356.4</ele>
        <time>2018-08-19T05:05:41Z</time>
      </trkpt>
      <trkpt lat="42.694907" lon="-0.077062">
        <ele>2357.4</ele>
        <time>2018-08-19T05:05:53Z</time>
      </trkpt>
      <trkpt lat="42.694835" lon="-0.077161">
        <ele>2357.8</ele>
        <time>2018-08-19T05:06:04Z</time>
      </trkpt>
      <trkpt lat="42.694761" lon="-0.077241">
        <ele>2357.3</ele>
        <time>2018-08-19T05:06:15Z</time>
      </trkpt>
      <trkpt lat="42.694665" lon="-0.077297">
        <ele>2357.2</ele>
        <time>2018-08-19T05:06:30Z</time>
      </trkpt>
      <trkpt lat="42.694581" lon="-0.077331">
        <ele>2357.6</ele>
        <time>2018-08-19T05:06:42Z</time>
      </trkpt>
      <trkpt lat="42.694526" lon="-0.077410">
        <ele>2357.9</ele>
        <time>2018-08-19T05:06:53Z</time>
      </trkpt>
      <trkpt lat="42.694485" lon="-0.077521">
        <ele>2357.2</ele>
        <time>2018-08-19T05:07:06Z</time>
      </trkpt>
      <trkpt lat="42.694413" lon="-0.077603">
        <ele>2357.2</ele>
        <time>2018-08-19T05:07:20Z</time>
      </trkpt>
      <trkpt lat="42.694411" lon="-0.077731">
        <ele>2357.9</ele>
        <time>2018-08-19T05:07:33Z</time>
      </trkpt>
      <trkpt lat="42.694383" lon="-0.077836">
        <ele>2358.0</ele>
        <time>2018-08-19T05:07:43Z</time>
      </trkpt>
      <trkpt lat="42.694324" lon="-0.077923">
        <ele>2359.0</ele>
        <time>2018-08-19T05:07:58Z</time>
      </trkpt>
      <trkpt lat="42.694239" lon="-0.077981">
        <ele>2359.9</ele>
        <time>2018-08-19T05:08:11Z</time>
      </trkpt>
      <trkpt lat="42.694155" lon="-0.078010">
        <ele>2361.7</ele>
        <time>2018-08-19T05:08:26Z</time>
      </trkpt>
      <trkpt lat="42.694069" lon="-0.078076">
        <ele>2364.6</ele>
        <time>2018-08-19T05:08:43Z</time>
      </trkpt>
      <trkpt lat="42.693980" lon="-0.078129">
        <ele>2366.8</ele>
        <time>2018-08-19T05:08:59Z</time>
      </trkpt>
      <trkpt lat="42.693893" lon="-0.078132">
        <ele>2368.1</ele>
        <time>2018-08-19T05:09:12Z</time>
      </trkpt>
      <trkpt lat="42.693818" lon="-0.078209">
        <ele>2369.7</ele>
        <time>2018-08-19T05:09:27Z</time>
      </trkpt>
      <trkpt lat="42.693737" lon="-0.078317">
        <ele>2370.8</ele>
        <time>2018-08-19T05:09:42Z</time>
      </trkpt>
      <trkpt lat="42.693640" lon="-0.078370">
        <ele>2373.2</ele>
        <time>2018-08-19T05:09:58Z</time>
      </trkpt>
      <trkpt lat="42.693552" lon="-0.078426">
        <ele>2375.0</ele>
        <time>2018-08-19T05:10:15Z</time>
      </trkpt>
      <trkpt lat="42.693503" lon="-0.078568">
        <ele>2375.4</ele>
        <time>2018-08-19T05:10:33Z</time>
      </trkpt>
      <trkpt lat="42.693410" lon="-0.078622">
        <ele>2376.9</ele>
        <time>2018-08-19T05:10:53Z</time>
      </trkpt>
      <trkpt lat="42.693311" lon="-0.078698">
        <ele>2378.5</ele>
        <time>2018-08-19T05:11:10Z</time>
      </trkpt>
      <trkpt lat="42.693236" lon="-0.078764">
        <ele>2379.7</ele>
        <time>2018-08-19T05:11:27Z</time>
      </trkpt>
      <trkpt lat="42.693163" lon="-0.078825">
        <ele>2381.4</ele>
        <time>2018-08-19T05:11:42Z</time>
      </trkpt>
      <trkpt lat="42.693115" lon="-0.078912">
        <ele>2382.8</ele>
        <time>2018-08-19T05:11:57Z</time>
      </trkpt>
      <trkpt lat="42.693031" lon="-0.078919">
        <ele>2385.6</ele>
        <time>2018-08-19T05:12:14Z</time>
      </trkpt>
      <trkpt lat="42.693013" lon="-0.078983">
        <ele>2388.3</ele>
        <time>2018-08-19T05:12:30Z</time>
      </trkpt>
      <trkpt lat="42.692950" lon="-0.079003">
        <ele>2391.4</ele>
        <time>2018-08-19T05:12:49Z</time>
      </trkpt>
      <trkpt lat="42.692853" lon="-0.078997">
        <ele>2394.7</ele>
        <time>2018-08-19T05:13:11Z</time>
      </trkpt>
      <trkpt lat="42.692773" lon="-0.078987">
        <ele>2398.2</ele>
        <time>2018-08-19T05:13:33Z</time>
      </trkpt>
      <trkpt lat="42.692681" lon="-0.078981">
        <ele>2400.9</ele>
        <time>2018-08-19T05:13:50Z</time>
      </trkpt>
      <trkpt lat="42.692630" lon="-0.079038">
        <ele>2402.8</ele>
        <time>2018-08-19T05:14:05Z</time>
      </trkpt>
      <trkpt lat="42.692560" lon="-0.079123">
        <ele>2410.1</ele>
        <time>2018-08-19T05:14:45Z</time>
      </trkpt>
      <trkpt lat="42.692479" lon="-0.079156">
        <ele>2412.2</ele>
        <time>2018-08-19T05:15:06Z</time>
      </trkpt>
      <trkpt lat="42.692387" lon="-0.079171">
        <ele>2416.0</ele>
        <time>2018-08-19T05:15:27Z</time>
      </trkpt>
      <trkpt lat="42.692283" lon="-0.079158">
        <ele>2418.7</ele>
        <time>2018-08-19T05:15:45Z</time>
      </trkpt>
      <trkpt lat="42.692227" lon="-0.079217">
        <ele>2422.0</ele>
        <time>2018-08-19T05:16:04Z</time>
      </trkpt>
      <trkpt lat="42.692202" lon="-0.079287">
        <ele>2425.5</ele>
        <time>2018-08-19T05:16:27Z</time>
      </trkpt>
      <trkpt lat="42.692119" lon="-0.079280">
        <ele>2428.7</ele>
        <time>2018-08-19T05:16:51Z</time>
      </trkpt>
      <trkpt lat="42.692040" lon="-0.079284">
        <ele>2432.6</ele>
        <time>2018-08-19T05:17:18Z</time>
      </trkpt>
      <trkpt lat="42.691995" lon="-0.079371">
        <ele>2436.0</ele>
        <time>2018-08-19T05:17:43Z</time>
      </trkpt>
      <trkpt lat="42.691985" lon="-0.079474">
        <ele>2440.0</ele>
        <time>2018-08-19T05:18:12Z</time>
      </trkpt>
      <trkpt lat="42.691932" lon="-0.079465">
        <ele>2444.7</ele>
        <time>2018-08-19T05:18:41Z</time>
      </trkpt>
      <trkpt lat="42.691857" lon="-0.079471">
        <ele>2449.0</ele>
        <time>2018-08-19T05:19:14Z</time>
      </trkpt>
      <trkpt lat="42.691793" lon="-0.079472">
        <ele>2452.5</ele>
        <time>2018-08-19T05:19:42Z</time>
      </trkpt>
      <trkpt lat="42.691706" lon="-0.079413">
        <ele>2456.4</ele>
        <time>2018-08-19T05:20:09Z</time>
      </trkpt>
      <trkpt lat="42.691636" lon="-0.079333">
        <ele>2458.5</ele>
        <time>2018-08-19T05:20:27Z</time>
      </trkpt>
      <trkpt lat="42.691551" lon="-0.079356">
        <ele>2461.7</ele>
        <time>2018-08-19T05:20:52Z</time>
      </trkpt>
      <trkpt lat="42.691504" lon="-0.079396">
        <ele>2465.2</ele>
        <time>2018-08-19T05:21:17Z</time>
      </trkpt>
      <trkpt lat="42.691543" lon="-0.079522">
        <ele>2467.9</ele>
        <time>2018-08-19T05:21:36Z</time>
      </trkpt>
      <trkpt lat="42.691549" lon="-0.079634">
        <ele>2471.2</ele>
        <time>2018-08-19T05:22:00Z</time>
      </trkpt>
      <trkpt lat="42.691567" lon="-0.079742">
        <ele>2475.7</ele>
        <time>2018-08-19T05:22:33Z</time>
      </trkpt>
      <trkpt lat="42.691564" lon="-0.079767">
        <ele>2480.0</ele>
        <time>2018-08-19T05:23:05Z</time>
      </trkpt>
      <trkpt lat="42.691522" lon="-0.079801">
        <ele>2484.5</ele>
        <time>2018-08-19T05:23:35Z</time>
      </trkpt>
      <trkpt lat="42.691505" lon="-0.079880">
        <ele>2489.7</ele>
        <time>2018-08-19T05:24:07Z</time>
      </trkpt>
      <trkpt lat="42.691562" lon="-0.080069">
        <ele>2498.0</ele>
        <time>2018-08-19T05:25:04Z</time>
      </trkpt>
      <trkpt lat="42.691550" lon="-0.080176">
        <ele>2501.5</ele>
        <time>2018-08-19T05:25:26Z</time>
      </trkpt>
      <trkpt lat="42.691544" lon="-0.080232">
        <ele>2505.0</ele>
        <time>2018-08-19T05:29:57Z</time>
      </trkpt>
      <trkpt lat="42.691464" lon="-0.080337">
        <ele>2502.5</ele>
        <time>2018-08-19T05:33:23Z</time>
      </trkpt>
      <trkpt lat="42.691412" lon="-0.080280">
        <ele>2499.2</ele>
        <time>2018-08-19T05:33:50Z</time>
      </trkpt>
      <trkpt lat="42.691345" lon="-0.080211">
        <ele>2495.8</ele>
        <time>2018-08-19T05:34:10Z</time>
      </trkpt>
      <trkpt lat="42.691281" lon="-0.080144">
        <ele>2497.2</ele>
        <time>2018-08-19T05:34:37Z</time>
      </trkpt>
      <trkpt lat="42.691222" lon="-0.080108">
        <ele>2495.3</ele>
        <time>2018-08-19T05:35:13Z</time>
      </trkpt>
      <trkpt lat="42.691184" lon="-0.079999">
        <ele>2494.0</ele>
        <time>2018-08-19T05:35:31Z</time>
      </trkpt>
      <trkpt lat="42.691177" lon="-0.079916">
        <ele>2495.4</ele>
        <time>2018-08-19T05:36:05Z</time>
      </trkpt>
      <trkpt lat="42.691164" lon="-0.079812">
        <ele>2496.7</ele>
        <time>2018-08-19T05:36:30Z</time>
      </trkpt>
      <trkpt lat="42.691148" lon="-0.079668">
        <ele>2500.5</ele>
        <time>2018-08-19T05:36:48Z</time>
      </trkpt>
      <trkpt lat="42.691126" lon="-0.079520">
        <ele>2503.5</ele>
        <time>2018-08-19T05:37:03Z</time>
      </trkpt>
      <trkpt lat="42.691108" lon="-0.079387">
        <ele>2506.5</ele>
        <time>2018-08-19T05:37:18Z</time>
      </trkpt>
      <trkpt lat="42.691081" lon="-0.079239">
        <ele>2510.4</ele>
        <time>2018-08-19T05:37:38Z</time>
      </trkpt>
      <trkpt lat="42.691028" lon="-0.079140">
        <ele>2512.5</ele>
        <time>2018-08-19T05:38:00Z</time>
      </trkpt>
      <trkpt lat="42.690959" lon="-0.079068">
        <ele>2508.8</ele>
        <time>2018-08-19T05:38:33Z</time>
      </trkpt>
      <trkpt lat="42.690904" lon="-0.079053">
        <ele>2505.7</ele>
        <time>2018-08-19T05:39:15Z</time>
      </trkpt>
      <trkpt lat="42.690904" lon="-0.079028">
        <ele>2503.7</ele>
        <time>2018-08-19T05:40:19Z</time>
      </trkpt>
      <trkpt lat="42.690866" lon="-0.078892">
        <ele>2505.3</ele>
        <time>2018-08-19T05:40:38Z</time>
      </trkpt>
      <trkpt lat="42.690815" lon="-0.078798">
        <ele>2506.2</ele>
        <time>2018-08-19T05:41:11Z</time>
      </trkpt>
      <trkpt lat="42.690770" lon="-0.078675">
        <ele>2505.9</ele>
        <time>2018-08-19T05:41:28Z</time>
      </trkpt>
      <trkpt lat="42.690744" lon="-0.078538">
        <ele>2507.9</ele>
        <time>2018-08-19T05:41:44Z</time>
      </trkpt>
      <trkpt lat="42.690732" lon="-0.078424">
        <ele>2511.0</ele>
        <time>2018-08-19T05:42:04Z</time>
      </trkpt>
      <trkpt lat="42.690726" lon="-0.078278">
        <ele>2513.5</ele>
        <time>2018-08-19T05:42:23Z</time>
      </trkpt>
      <trkpt lat="42.690666" lon="-0.078174">
        <ele>2517.2</ele>
        <time>2018-08-19T05:42:46Z</time>
      </trkpt>
      <trkpt lat="42.690614" lon="-0.078149">
        <ele>2514.3</ele>
        <time>2018-08-19T05:43:15Z</time>
      </trkpt>
      <trkpt lat="42.690635" lon="-0.078034">
        <ele>2516.1</ele>
        <time>2018-08-19T05:43:44Z</time>
      </trkpt>
      <trkpt lat="42.690600" lon="-0.077914">
        <ele>2519.6</ele>
        <time>2018-08-19T05:44:02Z</time>
      </trkpt>
      <trkpt lat="42.690566" lon="-0.077776">
        <ele>2520.3</ele>
        <time>2018-08-19T05:44:21Z</time>
      </trkpt>
      <trkpt lat="42.690541" lon="-0.077640">
        <ele>2520.9</ele>
        <time>2018-08-19T05:44:34Z</time>
      </trkpt>
      <trkpt lat="42.690547" lon="-0.077493">
        <ele>2523.2</ele>
        <time>2018-08-19T05:44:53Z</time>
      </trkpt>
      <trkpt lat="42.690535" lon="-0.077353">
        <ele>2525.0</ele>
        <time>2018-08-19T05:45:11Z</time>
      </trkpt>
      <trkpt lat="42.690510" lon="-0.077218">
        <ele>2526.2</ele>
        <time>2018-08-19T05:45:31Z</time>
      </trkpt>
      <trkpt lat="42.690497" lon="-0.077096">
        <ele>2524.6</ele>
        <time>2018-08-19T05:45:48Z</time>
      </trkpt>
      <trkpt lat="42.690441" lon="-0.076991">
        <ele>2523.8</ele>
        <time>2018-08-19T05:46:01Z</time>
      </trkpt>
      <trkpt lat="42.690384" lon="-0.076872">
        <ele>2522.6</ele>
        <time>2018-08-19T05:46:14Z</time>
      </trkpt>
      <trkpt lat="42.690315" lon="-0.076743">
        <ele>2522.6</ele>
        <time>2018-08-19T05:46:31Z</time>
      </trkpt>
      <trkpt lat="42.690276" lon="-0.076611">
        <ele>2523.4</ele>
        <time>2018-08-19T05:46:46Z</time>
      </trkpt>
      <trkpt lat="42.690243" lon="-0.076484">
        <ele>2525.0</ele>
        <time>2018-08-19T05:46:59Z</time>
      </trkpt>
      <trkpt lat="42.690184" lon="-0.076374">
        <ele>2524.4</ele>
        <time>2018-08-19T05:47:14Z</time>
      </trkpt>
      <trkpt lat="42.690154" lon="-0.076256">
        <ele>2522.8</ele>
        <time>2018-08-19T05:47:31Z</time>
      </trkpt>
      <trkpt lat="42.690067" lon="-0.076197">
        <ele>2521.5</ele>
        <time>2018-08-19T05:47:51Z</time>
      </trkpt>
      <trkpt lat="42.689989" lon="-0.076150">
        <ele>2519.6</ele>
        <time>2018-08-19T05:48:12Z</time>
      </trkpt>
      <trkpt lat="42.689905" lon="-0.076127">
        <ele>2518.0</ele>
        <time>2018-08-19T05:48:35Z</time>
      </trkpt>
      <trkpt lat="42.689817" lon="-0.076066">
        <ele>2518.6</ele>
        <time>2018-08-19T05:48:56Z</time>
      </trkpt>
      <trkpt lat="42.689752" lon="-0.076136">
        <ele>2515.9</ele>
        <time>2018-08-19T05:50:23Z</time>
      </trkpt>
      <trkpt lat="42.689750" lon="-0.076255">
        <ele>2514.9</ele>
        <time>2018-08-19T05:50:42Z</time>
      </trkpt>
      <trkpt lat="42.689670" lon="-0.076319">
        <ele>2512.1</ele>
        <time>2018-08-19T05:50:58Z</time>
      </trkpt>
      <trkpt lat="42.689572" lon="-0.076316">
        <ele>2511.8</ele>
        <time>2018-08-19T05:51:14Z</time>
      </trkpt>
      <trkpt lat="42.689473" lon="-0.076331">
        <ele>2512.4</ele>
        <time>2018-08-19T05:51:29Z</time>
      </trkpt>
      <trkpt lat="42.689367" lon="-0.076368">
        <ele>2514.0</ele>
        <time>2018-08-19T05:51:45Z</time>
      </trkpt>
      <trkpt lat="42.689264" lon="-0.076380">
        <ele>2515.4</ele>
        <time>2018-08-19T05:52:01Z</time>
      </trkpt>
      <trkpt lat="42.689178" lon="-0.076427">
        <ele>2516.8</ele>
        <time>2018-08-19T05:52:17Z</time>
      </trkpt>
      <trkpt lat="42.689083" lon="-0.076452">
        <ele>2518.6</ele>
        <time>2018-08-19T05:52:35Z</time>
      </trkpt>
      <trkpt lat="42.688986" lon="-0.076448">
        <ele>2521.5</ele>
        <time>2018-08-19T05:52:52Z</time>
      </trkpt>
      <trkpt lat="42.688947" lon="-0.076579">
        <ele>2524.3</ele>
        <time>2018-08-19T05:53:09Z</time>
      </trkpt>
      <trkpt lat="42.688901" lon="-0.076650">
        <ele>2527.6</ele>
        <time>2018-08-19T05:53:47Z</time>
      </trkpt>
      <trkpt lat="42.688830" lon="-0.076712">
        <ele>2528.5</ele>
        <time>2018-08-19T05:54:35Z</time>
      </trkpt>
      <trkpt lat="42.688733" lon="-0.076722">
        <ele>2529.7</ele>
        <time>2018-08-19T05:54:48Z</time>
      </trkpt>
      <trkpt lat="42.688642" lon="-0.076743">
        <ele>2532.2</ele>
        <time>2018-08-19T05:55:06Z</time>
      </trkpt>
      <trkpt lat="42.688547" lon="-0.076799">
        <ele>2534.5</ele>
        <time>2018-08-19T05:55:20Z</time>
      </trkpt>
      <trkpt lat="42.688451" lon="-0.076860">
        <ele>2536.6</ele>
        <time>2018-08-19T05:55:35Z</time>
      </trkpt>
      <trkpt lat="42.688408" lon="-0.076977">
        <ele>2537.5</ele>
        <time>2018-08-19T05:55:51Z</time>
      </trkpt>
      <trkpt lat="42.688347" lon="-0.077067">
        <ele>2538.2</ele>
        <time>2018-08-19T05:56:02Z</time>
      </trkpt>
      <trkpt lat="42.688283" lon="-0.077144">
        <ele>2538.8</ele>
        <time>2018-08-19T05:56:13Z</time>
      </trkpt>
      <trkpt lat="42.688246" lon="-0.077258">
        <ele>2539.5</ele>
        <time>2018-08-19T05:56:26Z</time>
      </trkpt>
      <trkpt lat="42.688205" lon="-0.077370">
        <ele>2539.2</ele>
        <time>2018-08-19T05:56:38Z</time>
      </trkpt>
      <trkpt lat="42.688160" lon="-0.077489">
        <ele>2538.6</ele>
        <time>2018-08-19T05:56:49Z</time>
      </trkpt>
      <trkpt lat="42.688094" lon="-0.077544">
        <ele>2540.0</ele>
        <time>2018-08-19T05:57:07Z</time>
      </trkpt>
      <trkpt lat="42.688008" lon="-0.077607">
        <ele>2541.6</ele>
        <time>2018-08-19T05:57:24Z</time>
      </trkpt>
      <trkpt lat="42.687961" lon="-0.077725">
        <ele>2543.1</ele>
        <time>2018-08-19T05:57:35Z</time>
      </trkpt>
      <trkpt lat="42.687960" lon="-0.077865">
        <ele>2543.2</ele>
        <time>2018-08-19T05:57:45Z</time>
      </trkpt>
      <trkpt lat="42.687927" lon="-0.077981">
        <ele>2543.8</ele>
        <time>2018-08-19T05:57:55Z</time>
      </trkpt>
      <trkpt lat="42.687910" lon="-0.078116">
        <ele>2543.9</ele>
        <time>2018-08-19T05:58:06Z</time>
      </trkpt>
      <trkpt lat="42.687889" lon="-0.078252">
        <ele>2543.6</ele>
        <time>2018-08-19T05:58:18Z</time>
      </trkpt>
      <trkpt lat="42.687859" lon="-0.078385">
        <ele>2543.1</ele>
        <time>2018-08-19T05:58:29Z</time>
      </trkpt>
      <trkpt lat="42.687824" lon="-0.078514">
        <ele>2542.2</ele>
        <time>2018-08-19T05:58:40Z</time>
      </trkpt>
      <trkpt lat="42.687798" lon="-0.078645">
        <ele>2540.5</ele>
        <time>2018-08-19T05:58:52Z</time>
      </trkpt>
      <trkpt lat="42.687800" lon="-0.078783">
        <ele>2540.0</ele>
        <time>2018-08-19T05:59:03Z</time>
      </trkpt>
      <trkpt lat="42.687786" lon="-0.078904">
        <ele>2540.7</ele>
        <time>2018-08-19T05:59:13Z</time>
      </trkpt>
      <trkpt lat="42.687809" lon="-0.079037">
        <ele>2541.9</ele>
        <time>2018-08-19T05:59:25Z</time>
      </trkpt>
      <trkpt lat="42.687822" lon="-0.079170">
        <ele>2542.3</ele>
        <time>2018-08-19T05:59:37Z</time>
      </trkpt>
      <trkpt lat="42.687800" lon="-0.079307">
        <ele>2543.2</ele>
        <time>2018-08-19T05:59:50Z</time>
      </trkpt>
      <trkpt lat="42.687707" lon="-0.079361">
        <ele>2542.9</ele>
        <time>2018-08-19T06:01:33Z</time>
      </trkpt>
      <trkpt lat="42.687651" lon="-0.079452">
        <ele>2540.0</ele>
        <time>2018-08-19T06:01:53Z</time>
      </trkpt>
      <trkpt lat="42.687557" lon="-0.079506">
        <ele>2536.6</ele>
        <time>2018-08-19T06:02:11Z</time>
      </trkpt>
      <trkpt lat="42.687454" lon="-0.079588">
        <ele>2533.7</ele>
        <time>2018-08-19T06:02:26Z</time>
      </trkpt>
      <trkpt lat="42.687382" lon="-0.079692">
        <ele>2531.9</ele>
        <time>2018-08-19T06:02:36Z</time>
      </trkpt>
      <trkpt lat="42.687345" lon="-0.079821">
        <ele>2530.1</ele>
        <time>2018-08-19T06:02:46Z</time>
      </trkpt>
      <trkpt lat="42.687303" lon="-0.079911">
        <ele>2526.4</ele>
        <time>2018-08-19T06:03:03Z</time>
      </trkpt>
      <trkpt lat="42.687238" lon="-0.079945">
        <ele>2523.0</ele>
        <time>2018-08-19T06:03:24Z</time>
      </trkpt>
      <trkpt lat="42.687160" lon="-0.079946">
        <ele>2519.6</ele>
        <time>2018-08-19T06:03:44Z</time>
      </trkpt>
      <trkpt lat="42.687086" lon="-0.079934">
        <ele>2515.6</ele>
        <time>2018-08-19T06:04:20Z</time>
      </trkpt>
      <trkpt lat="42.687031" lon="-0.079903">
        <ele>2510.6</ele>
        <time>2018-08-19T06:04:43Z</time>
      </trkpt>
      <trkpt lat="42.686933" lon="-0.079861">
        <ele>2507.3</ele>
        <time>2018-08-19T06:05:01Z</time>
      </trkpt>
      <trkpt lat="42.686832" lon="-0.079861">
        <ele>2504.3</ele>
        <time>2018-08-19T06:05:18Z</time>
      </trkpt>
      <trkpt lat="42.686764" lon="-0.079938">
        <ele>2502.6</ele>
        <time>2018-08-19T06:05:32Z</time>
      </trkpt>
      <trkpt lat="42.686673" lon="-0.080012">
        <ele>2500.4</ele>
        <time>2018-08-19T06:05:53Z</time>
      </trkpt>
      <trkpt lat="42.686588" lon="-0.080041">
        <ele>2498.3</ele>
        <time>2018-08-19T06:06:06Z</time>
      </trkpt>
      <trkpt lat="42.686490" lon="-0.080024">
        <ele>2496.3</ele>
        <time>2018-08-19T06:06:21Z</time>
      </trkpt>
      <trkpt lat="42.686395" lon="-0.080063">
        <ele>2496.1</ele>
        <time>2018-08-19T06:06:33Z</time>
      </trkpt>
      <trkpt lat="42.686301" lon="-0.080107">
        <ele>2496.7</ele>
        <time>2018-08-19T06:06:46Z</time>
      </trkpt>
      <trkpt lat="42.686217" lon="-0.080145">
        <ele>2498.9</ele>
        <time>2018-08-19T06:07:01Z</time>
      </trkpt>
      <trkpt lat="42.686121" lon="-0.080094">
        <ele>2497.8</ele>
        <time>2018-08-19T06:07:16Z</time>
      </trkpt>
      <trkpt lat="42.686015" lon="-0.080027">
        <ele>2493.8</ele>
        <time>2018-08-19T06:07:36Z</time>
      </trkpt>
      <trkpt lat="42.685975" lon="-0.080098">
        <ele>2491.7</ele>
        <time>2018-08-19T06:08:06Z</time>
      </trkpt>
      <trkpt lat="42.685880" lon="-0.080124">
        <ele>2490.4</ele>
        <time>2018-08-19T06:08:26Z</time>
      </trkpt>
      <trkpt lat="42.685804" lon="-0.080199">
        <ele>2488.5</ele>
        <time>2018-08-19T06:08:41Z</time>
      </trkpt>
      <trkpt lat="42.685721" lon="-0.080175">
        <ele>2488.5</ele>
        <time>2018-08-19T06:08:53Z</time>
      </trkpt>
      <trkpt lat="42.685619" lon="-0.080192">
        <ele>2490.7</ele>
        <time>2018-08-19T06:09:11Z</time>
      </trkpt>
      <trkpt lat="42.685539" lon="-0.080293">
        <ele>2494.4</ele>
        <time>2018-08-19T06:09:31Z</time>
      </trkpt>
      <trkpt lat="42.685484" lon="-0.080439">
        <ele>2498.8</ele>
        <time>2018-08-19T06:09:52Z</time>
      </trkpt>
      <trkpt lat="42.685435" lon="-0.080627">
        <ele>2501.8</ele>
        <time>2018-08-19T06:10:09Z</time>
      </trkpt>
      <trkpt lat="42.685361" lon="-0.080656">
        <ele>2507.0</ele>
        <time>2018-08-19T06:10:33Z</time>
      </trkpt>
      <trkpt lat="42.685275" lon="-0.080670">
        <ele>2509.3</ele>
        <time>2018-08-19T06:10:49Z</time>
      </trkpt>
      <trkpt lat="42.685150" lon="-0.080599">
        <ele>2508.1</ele>
        <time>2018-08-19T06:11:02Z</time>
      </trkpt>
      <trkpt lat="42.685040" lon="-0.080565">
        <ele>2507.8</ele>
        <time>2018-08-19T06:11:13Z</time>
      </trkpt>
      <trkpt lat="42.684965" lon="-0.080497">
        <ele>2508.6</ele>
        <time>2018-08-19T06:11:28Z</time>
      </trkpt>
      <trkpt lat="42.684856" lon="-0.080415">
        <ele>2510.8</ele>
        <time>2018-08-19T06:11:44Z</time>
      </trkpt>
      <trkpt lat="42.684761" lon="-0.080403">
        <ele>2514.4</ele>
        <time>2018-08-19T06:12:03Z</time>
      </trkpt>
      <trkpt lat="42.684717" lon="-0.080386">
        <ele>2517.9</ele>
        <time>2018-08-19T06:12:24Z</time>
      </trkpt>
      <trkpt lat="42.684647" lon="-0.080368">
        <ele>2522.5</ele>
        <time>2018-08-19T06:12:50Z</time>
      </trkpt>
      <trkpt lat="42.684559" lon="-0.080396">
        <ele>2524.3</ele>
        <time>2018-08-19T06:13:21Z</time>
      </trkpt>
      <trkpt lat="42.684556" lon="-0.080495">
        <ele>2526.4</ele>
        <time>2018-08-19T06:13:39Z</time>
      </trkpt>
      <trkpt lat="42.684569" lon="-0.080613">
        <ele>2530.2</ele>
        <time>2018-08-19T06:14:01Z</time>
      </trkpt>
      <trkpt lat="42.684540" lon="-0.080741">
        <ele>2534.9</ele>
        <time>2018-08-19T06:14:27Z</time>
      </trkpt>
      <trkpt lat="42.684511" lon="-0.080873">
        <ele>2538.3</ele>
        <time>2018-08-19T06:14:48Z</time>
      </trkpt>
      <trkpt lat="42.684500" lon="-0.081008">
        <ele>2540.4</ele>
        <time>2018-08-19T06:15:06Z</time>
      </trkpt>
      <trkpt lat="42.684499" lon="-0.081136">
        <ele>2542.8</ele>
        <time>2018-08-19T06:15:22Z</time>
      </trkpt>
      <trkpt lat="42.684475" lon="-0.081242">
        <ele>2544.7</ele>
        <time>2018-08-19T06:15:37Z</time>
      </trkpt>
      <trkpt lat="42.684444" lon="-0.081345">
        <ele>2548.8</ele>
        <time>2018-08-19T06:16:01Z</time>
      </trkpt>
      <trkpt lat="42.684427" lon="-0.081446">
        <ele>2550.9</ele>
        <time>2018-08-19T06:16:18Z</time>
      </trkpt>
      <trkpt lat="42.684377" lon="-0.081546">
        <ele>2553.8</ele>
        <time>2018-08-19T06:16:36Z</time>
      </trkpt>
      <trkpt lat="42.684342" lon="-0.081661">
        <ele>2556.8</ele>
        <time>2018-08-19T06:16:58Z</time>
      </trkpt>
      <trkpt lat="42.684316" lon="-0.081788">
        <ele>2560.0</ele>
        <time>2018-08-19T06:17:16Z</time>
      </trkpt>
      <trkpt lat="42.684281" lon="-0.081871">
        <ele>2562.3</ele>
        <time>2018-08-19T06:17:36Z</time>
      </trkpt>
      <trkpt lat="42.684225" lon="-0.081916">
        <ele>2565.9</ele>
        <time>2018-08-19T06:18:46Z</time>
      </trkpt>
      <trkpt lat="42.684140" lon="-0.081894">
        <ele>2566.5</ele>
        <time>2018-08-19T06:19:41Z</time>
      </trkpt>
      <trkpt lat="42.684076" lon="-0.081886">
        <ele>2568.5</ele>
        <time>2018-08-19T06:20:26Z</time>
      </trkpt>
      <trkpt lat="42.683998" lon="-0.081955">
        <ele>2571.4</ele>
        <time>2018-08-19T06:20:45Z</time>
      </trkpt>
      <trkpt lat="42.683920" lon="-0.082014">
        <ele>2573.6</ele>
        <time>2018-08-19T06:21:01Z</time>
      </trkpt>
      <trkpt lat="42.683921" lon="-0.082012">
        <ele>2575.2</ele>
        <time>2018-08-19T06:21:39Z</time>
      </trkpt>
      <trkpt lat="42.683840" lon="-0.081957">
        <ele>2575.5</ele>
        <time>2018-08-19T06:22:25Z</time>
      </trkpt>
      <trkpt lat="42.683741" lon="-0.081868">
        <ele>2575.1</ele>
        <time>2018-08-19T06:22:42Z</time>
      </trkpt>
      <trkpt lat="42.683682" lon="-0.081810">
        <ele>2577.3</ele>
        <time>2018-08-19T06:22:56Z</time>
      </trkpt>
      <trkpt lat="42.683593" lon="-0.081708">
        <ele>2580.7</ele>
        <time>2018-08-19T06:23:14Z</time>
      </trkpt>
      <trkpt lat="42.683488" lon="-0.081669">
        <ele>2583.3</ele>
        <time>2018-08-19T06:23:30Z</time>
      </trkpt>
      <trkpt lat="42.683414" lon="-0.081766">
        <ele>2586.0</ele>
        <time>2018-08-19T06:23:47Z</time>
      </trkpt>
      <trkpt lat="42.683231" lon="-0.081870">
        <ele>2600.9</ele>
        <time>2018-08-19T06:26:03Z</time>
      </trkpt>
      <trkpt lat="42.683168" lon="-0.081879">
        <ele>2601.5</ele>
        <time>2018-08-19T06:26:28Z</time>
      </trkpt>
      <trkpt lat="42.683065" lon="-0.081876">
        <ele>2603.2</ele>
        <time>2018-08-19T06:26:44Z</time>
      </trkpt>
      <trkpt lat="42.682974" lon="-0.081854">
        <ele>2605.0</ele>
        <time>2018-08-19T06:26:58Z</time>
      </trkpt>
      <trkpt lat="42.682861" lon="-0.081855">
        <ele>2605.7</ele>
        <time>2018-08-19T06:27:12Z</time>
      </trkpt>
      <trkpt lat="42.682713" lon="-0.082137">
        <ele>2611.8</ele>
        <time>2018-08-19T06:28:52Z</time>
      </trkpt>
      <trkpt lat="42.682659" lon="-0.082223">
        <ele>2610.6</ele>
        <time>2018-08-19T06:29:14Z</time>
      </trkpt>
      <trkpt lat="42.682538" lon="-0.082231">
        <ele>2607.4</ele>
        <time>2018-08-19T06:30:19Z</time>
      </trkpt>
      <trkpt lat="42.682509" lon="-0.082191">
        <ele>2608.4</ele>
        <time>2018-08-19T06:30:35Z</time>
      </trkpt>
      <trkpt lat="42.682391" lon="-0.082153">
        <ele>2608.5</ele>
        <time>2018-08-19T06:30:45Z</time>
      </trkpt>
      <trkpt lat="42.682274" lon="-0.082267">
        <ele>2608.8</ele>
        <time>2018-08-19T06:30:56Z</time>
      </trkpt>
      <trkpt lat="42.682234" lon="-0.082285">
        <ele>2612.2</ele>
        <time>2018-08-19T06:31:19Z</time>
      </trkpt>
      <trkpt lat="42.682250" lon="-0.082257">
        <ele>2613.6</ele>
        <time>2018-08-19T06:32:02Z</time>
      </trkpt>
      <trkpt lat="42.682189" lon="-0.082248">
        <ele>2615.3</ele>
        <time>2018-08-19T06:32:34Z</time>
      </trkpt>
      <trkpt lat="42.682093" lon="-0.082305">
        <ele>2618.2</ele>
        <time>2018-08-19T06:32:53Z</time>
      </trkpt>
      <trkpt lat="42.682021" lon="-0.082398">
        <ele>2620.7</ele>
        <time>2018-08-19T06:33:10Z</time>
      </trkpt>
      <trkpt lat="42.681928" lon="-0.082434">
        <ele>2622.9</ele>
        <time>2018-08-19T06:33:22Z</time>
      </trkpt>
      <trkpt lat="42.681833" lon="-0.082475">
        <ele>2624.6</ele>
        <time>2018-08-19T06:33:34Z</time>
      </trkpt>
      <trkpt lat="42.681738" lon="-0.082497">
        <ele>2626.1</ele>
        <time>2018-08-19T06:33:49Z</time>
      </trkpt>
      <trkpt lat="42.681654" lon="-0.082482">
        <ele>2626.4</ele>
        <time>2018-08-19T06:34:01Z</time>
      </trkpt>
      <trkpt lat="42.681591" lon="-0.082442">
        <ele>2624.9</ele>
        <time>2018-08-19T06:34:55Z</time>
      </trkpt>
      <trkpt lat="42.681480" lon="-0.082388">
        <ele>2623.3</ele>
        <time>2018-08-19T06:35:07Z</time>
      </trkpt>
      <trkpt lat="42.681374" lon="-0.082427">
        <ele>2622.1</ele>
        <time>2018-08-19T06:35:18Z</time>
      </trkpt>
      <trkpt lat="42.681262" lon="-0.082414">
        <ele>2623.9</ele>
        <time>2018-08-19T06:35:37Z</time>
      </trkpt>
      <trkpt lat="42.681169" lon="-0.082456">
        <ele>2624.6</ele>
        <time>2018-08-19T06:35:51Z</time>
      </trkpt>
      <trkpt lat="42.681093" lon="-0.082444">
        <ele>2625.2</ele>
        <time>2018-08-19T06:36:33Z</time>
      </trkpt>
      <trkpt lat="42.681022" lon="-0.082342">
        <ele>2626.4</ele>
        <time>2018-08-19T06:36:46Z</time>
      </trkpt>
      <trkpt lat="42.680939" lon="-0.082260">
        <ele>2628.1</ele>
        <time>2018-08-19T06:36:59Z</time>
      </trkpt>
      <trkpt lat="42.680851" lon="-0.082186">
        <ele>2631.1</ele>
        <time>2018-08-19T06:37:15Z</time>
      </trkpt>
      <trkpt lat="42.680817" lon="-0.082099">
        <ele>2640.7</ele>
        <time>2018-08-19T06:38:20Z</time>
      </trkpt>
      <trkpt lat="42.680752" lon="-0.082009">
        <ele>2644.0</ele>
        <time>2018-08-19T06:38:48Z</time>
      </trkpt>
      <trkpt lat="42.680650" lon="-0.081969">
        <ele>2644.7</ele>
        <time>2018-08-19T06:39:00Z</time>
      </trkpt>
      <trkpt lat="42.680566" lon="-0.081903">
        <ele>2645.6</ele>
        <time>2018-08-19T06:39:12Z</time>
      </trkpt>
      <trkpt lat="42.680479" lon="-0.081911">
        <ele>2645.3</ele>
        <time>2018-08-19T06:39:24Z</time>
      </trkpt>
      <trkpt lat="42.680425" lon="-0.082017">
        <ele>2644.1</ele>
        <time>2018-08-19T06:39:43Z</time>
      </trkpt>
      <trkpt lat="42.680320" lon="-0.082039">
        <ele>2644.2</ele>
        <time>2018-08-19T06:39:58Z</time>
      </trkpt>
      <trkpt lat="42.680227" lon="-0.082096">
        <ele>2646.0</ele>
        <time>2018-08-19T06:40:15Z</time>
      </trkpt>
      <trkpt lat="42.680127" lon="-0.082128">
        <ele>2646.9</ele>
        <time>2018-08-19T06:40:28Z</time>
      </trkpt>
      <trkpt lat="42.680016" lon="-0.082150">
        <ele>2647.9</ele>
        <time>2018-08-19T06:40:40Z</time>
      </trkpt>
      <trkpt lat="42.679917" lon="-0.082127">
        <ele>2650.0</ele>
        <time>2018-08-19T06:40:52Z</time>
      </trkpt>
      <trkpt lat="42.679825" lon="-0.082168">
        <ele>2651.4</ele>
        <time>2018-08-19T06:41:03Z</time>
      </trkpt>
      <trkpt lat="42.679731" lon="-0.081953">
        <ele>2656.7</ele>
        <time>2018-08-19T06:41:57Z</time>
      </trkpt>
      <trkpt lat="42.679728" lon="-0.081807">
        <ele>2657.1</ele>
        <time>2018-08-19T06:42:11Z</time>
      </trkpt>
      <trkpt lat="42.679717" lon="-0.081722">
        <ele>2660.3</ele>
        <time>2018-08-19T06:42:45Z</time>
      </trkpt>
      <trkpt lat="42.679730" lon="-0.081576">
        <ele>2663.5</ele>
        <time>2018-08-19T06:43:03Z</time>
      </trkpt>
      <trkpt lat="42.679753" lon="-0.081445">
        <ele>2666.8</ele>
        <time>2018-08-19T06:43:21Z</time>
      </trkpt>
      <trkpt lat="42.679710" lon="-0.081358">
        <ele>2670.1</ele>
        <time>2018-08-19T06:43:42Z</time>
      </trkpt>
      <trkpt lat="42.679672" lon="-0.081274">
        <ele>2673.9</ele>
        <time>2018-08-19T06:44:05Z</time>
      </trkpt>
      <trkpt lat="42.679623" lon="-0.081205">
        <ele>2677.8</ele>
        <time>2018-08-19T06:44:28Z</time>
      </trkpt>
      <trkpt lat="42.679562" lon="-0.081132">
        <ele>2681.8</ele>
        <time>2018-08-19T06:44:54Z</time>
      </trkpt>
      <trkpt lat="42.679535" lon="-0.081059">
        <ele>2685.8</ele>
        <time>2018-08-19T06:45:22Z</time>
      </trkpt>
      <trkpt lat="42.679542" lon="-0.080961">
        <ele>2690.2</ele>
        <time>2018-08-19T06:45:48Z</time>
      </trkpt>
      <trkpt lat="42.679511" lon="-0.080896">
        <ele>2694.3</ele>
        <time>2018-08-19T06:46:16Z</time>
      </trkpt>
      <trkpt lat="42.679476" lon="-0.080826">
        <ele>2697.2</ele>
        <time>2018-08-19T06:46:38Z</time>
      </trkpt>
      <trkpt lat="42.679496" lon="-0.080736">
        <ele>2701.3</ele>
        <time>2018-08-19T06:47:05Z</time>
      </trkpt>
      <trkpt lat="42.679466" lon="-0.080646">
        <ele>2706.4</ele>
        <time>2018-08-19T06:47:38Z</time>
      </trkpt>
      <trkpt lat="42.679421" lon="-0.080611">
        <ele>2710.5</ele>
        <time>2018-08-19T06:48:04Z</time>
      </trkpt>
      <trkpt lat="42.679371" lon="-0.080556">
        <ele>2713.7</ele>
        <time>2018-08-19T06:48:28Z</time>
      </trkpt>
      <trkpt lat="42.679349" lon="-0.080497">
        <ele>2717.6</ele>
        <time>2018-08-19T06:48:53Z</time>
      </trkpt>
      <trkpt lat="42.679311" lon="-0.080431">
        <ele>2721.7</ele>
        <time>2018-08-19T06:49:17Z</time>
      </trkpt>
      <trkpt lat="42.679226" lon="-0.080374">
        <ele>2725.2</ele>
        <time>2018-08-19T06:49:39Z</time>
      </trkpt>
      <trkpt lat="42.679141" lon="-0.080348">
        <ele>2729.2</ele>
        <time>2018-08-19T06:50:02Z</time>
      </trkpt>
      <trkpt lat="42.679152" lon="-0.080231">
        <ele>2731.8</ele>
        <time>2018-08-19T07:10:26Z</time>
      </trkpt>
      <trkpt lat="42.679162" lon="-0.080183">
        <ele>2727.6</ele>
        <time>2018-08-19T07:10:37Z</time>
      </trkpt>
      <trkpt lat="42.679109" lon="-0.080082">
        <ele>2723.3</ele>
        <time>2018-08-19T07:10:47Z</time>
      </trkpt>
      <trkpt lat="42.679121" lon="-0.080004">
        <ele>2719.4</ele>
        <time>2018-08-19T07:10:57Z</time>
      </trkpt>
      <trkpt lat="42.679135" lon="-0.079915">
        <ele>2714.3</ele>
        <time>2018-08-19T07:11:08Z</time>
      </trkpt>
      <trkpt lat="42.679151" lon="-0.079822">
        <ele>2709.8</ele>
        <time>2018-08-19T07:11:18Z</time>
      </trkpt>
      <trkpt lat="42.679151" lon="-0.079708">
        <ele>2704.4</ele>
        <time>2018-08-19T07:11:29Z</time>
      </trkpt>
      <trkpt lat="42.679163" lon="-0.079615">
        <ele>2700.6</ele>
        <time>2018-08-19T07:11:38Z</time>
      </trkpt>
      <trkpt lat="42.679234" lon="-0.079443">
        <ele>2687.2</ele>
        <time>2018-08-19T07:12:30Z</time>
      </trkpt>
      <trkpt lat="42.679175" lon="-0.079340">
        <ele>2684.1</ele>
        <time>2018-08-19T07:12:45Z</time>
      </trkpt>
      <trkpt lat="42.679125" lon="-0.079209">
        <ele>2679.9</ele>
        <time>2018-08-19T07:13:04Z</time>
      </trkpt>
      <trkpt lat="42.679088" lon="-0.079104">
        <ele>2675.9</ele>
        <time>2018-08-19T07:13:21Z</time>
      </trkpt>
      <trkpt lat="42.679031" lon="-0.079015">
        <ele>2673.5</ele>
        <time>2018-08-19T07:13:34Z</time>
      </trkpt>
      <trkpt lat="42.679007" lon="-0.078920">
        <ele>2670.8</ele>
        <time>2018-08-19T07:13:54Z</time>
      </trkpt>
      <trkpt lat="42.678977" lon="-0.078820">
        <ele>2668.4</ele>
        <time>2018-08-19T07:14:06Z</time>
      </trkpt>
      <trkpt lat="42.678948" lon="-0.078697">
        <ele>2665.2</ele>
        <time>2018-08-19T07:14:19Z</time>
      </trkpt>
      <trkpt lat="42.678931" lon="-0.078578">
        <ele>2661.2</ele>
        <time>2018-08-19T07:14:37Z</time>
      </trkpt>
      <trkpt lat="42.678899" lon="-0.078479">
        <ele>2658.8</ele>
        <time>2018-08-19T07:14:48Z</time>
      </trkpt>
      <trkpt lat="42.678848" lon="-0.078381">
        <ele>2655.6</ele>
        <time>2018-08-19T07:14:59Z</time>
      </trkpt>
      <trkpt lat="42.678817" lon="-0.078269">
        <ele>2652.4</ele>
        <time>2018-08-19T07:15:11Z</time>
      </trkpt>
      <trkpt lat="42.678810" lon="-0.078162">
        <ele>2648.4</ele>
        <time>2018-08-19T07:15:24Z</time>
      </trkpt>
      <trkpt lat="42.678759" lon="-0.078060">
        <ele>2644.1</ele>
        <time>2018-08-19T07:15:43Z</time>
      </trkpt>
      <trkpt lat="42.678707" lon="-0.077943">
        <ele>2641.1</ele>
        <time>2018-08-19T07:16:02Z</time>
      </trkpt>
      <trkpt lat="42.678691" lon="-0.077868">
        <ele>2638.2</ele>
        <time>2018-08-19T07:16:30Z</time>
      </trkpt>
      <trkpt lat="42.678698" lon="-0.077774">
        <ele>2635.8</ele>
        <time>2018-08-19T07:16:49Z</time>
      </trkpt>
      <trkpt lat="42.678743" lon="-0.077721">
        <ele>2633.1</ele>
        <time>2018-08-19T07:17:05Z</time>
      </trkpt>
      <trkpt lat="42.678773" lon="-0.077603">
        <ele>2630.9</ele>
        <time>2018-08-19T07:17:14Z</time>
      </trkpt>
      <trkpt lat="42.678758" lon="-0.077506">
        <ele>2627.7</ele>
        <time>2018-08-19T07:17:27Z</time>
      </trkpt>
      <trkpt lat="42.678751" lon="-0.077506">
        <ele>2625.6</ele>
        <time>2018-08-19T07:17:59Z</time>
      </trkpt>
      <trkpt lat="42.678775" lon="-0.077483">
        <ele>2625.6</ele>
        <time>2018-08-19T07:18:41Z</time>
      </trkpt>
      <trkpt lat="42.678727" lon="-0.077429">
        <ele>2624.9</ele>
        <time>2018-08-19T07:19:33Z</time>
      </trkpt>
      <trkpt lat="42.678629" lon="-0.077370">
        <ele>2622.0</ele>
        <time>2018-08-19T07:19:52Z</time>
      </trkpt>
      <trkpt lat="42.678648" lon="-0.077179">
        <ele>2611.7</ele>
        <time>2018-08-19T07:21:05Z</time>
      </trkpt>
      <trkpt lat="42.678645" lon="-0.077121">
        <ele>2608.1</ele>
        <time>2018-08-19T07:21:24Z</time>
      </trkpt>
      <trkpt lat="42.678662" lon="-0.077021">
        <ele>2605.5</ele>
        <time>2018-08-19T07:21:44Z</time>
      </trkpt>
      <trkpt lat="42.678679" lon="-0.077027">
        <ele>2604.6</ele>
        <time>2018-08-19T07:22:12Z</time>
      </trkpt>
      <trkpt lat="42.678638" lon="-0.076920">
        <ele>2604.2</ele>
        <time>2018-08-19T07:22:30Z</time>
      </trkpt>
      <trkpt lat="42.678615" lon="-0.076776">
        <ele>2602.1</ele>
        <time>2018-08-19T07:22:43Z</time>
      </trkpt>
      <trkpt lat="42.678602" lon="-0.076650">
        <ele>2599.2</ele>
        <time>2018-08-19T07:22:57Z</time>
      </trkpt>
      <trkpt lat="42.678565" lon="-0.076527">
        <ele>2596.9</ele>
        <time>2018-08-19T07:23:08Z</time>
      </trkpt>
      <trkpt lat="42.678567" lon="-0.076387">
        <ele>2594.8</ele>
        <time>2018-08-19T07:23:21Z</time>
      </trkpt>
      <trkpt lat="42.678547" lon="-0.076289">
        <ele>2593.3</ele>
        <time>2018-08-19T07:23:35Z</time>
      </trkpt>
      <trkpt lat="42.678539" lon="-0.076165">
        <ele>2591.4</ele>
        <time>2018-08-19T07:23:49Z</time>
      </trkpt>
      <trkpt lat="42.678495" lon="-0.076054">
        <ele>2588.5</ele>
        <time>2018-08-19T07:24:01Z</time>
      </trkpt>
      <trkpt lat="42.678494" lon="-0.075950">
        <ele>2586.8</ele>
        <time>2018-08-19T07:24:11Z</time>
      </trkpt>
      <trkpt lat="42.678482" lon="-0.075830">
        <ele>2585.1</ele>
        <time>2018-08-19T07:24:22Z</time>
      </trkpt>
      <trkpt lat="42.678464" lon="-0.075736">
        <ele>2583.2</ele>
        <time>2018-08-19T07:24:36Z</time>
      </trkpt>
      <trkpt lat="42.678461" lon="-0.075627">
        <ele>2582.5</ele>
        <time>2018-08-19T07:24:54Z</time>
      </trkpt>
      <trkpt lat="42.678406" lon="-0.075577">
        <ele>2580.3</ele>
        <time>2018-08-19T07:25:17Z</time>
      </trkpt>
      <trkpt lat="42.678383" lon="-0.075498">
        <ele>2578.7</ele>
        <time>2018-08-19T07:25:41Z</time>
      </trkpt>
      <trkpt lat="42.678348" lon="-0.075391">
        <ele>2576.5</ele>
        <time>2018-08-19T07:26:03Z</time>
      </trkpt>
      <trkpt lat="42.678334" lon="-0.075336">
        <ele>2576.7</ele>
        <time>2018-08-19T07:26:30Z</time>
      </trkpt>
      <trkpt lat="42.678305" lon="-0.075229">
        <ele>2574.0</ele>
        <time>2018-08-19T07:26:47Z</time>
      </trkpt>
      <trkpt lat="42.678279" lon="-0.075098">
        <ele>2571.3</ele>
        <time>2018-08-19T07:27:03Z</time>
      </trkpt>
      <trkpt lat="42.678233" lon="-0.074993">
        <ele>2568.4</ele>
        <time>2018-08-19T07:27:19Z</time>
      </trkpt>
      <trkpt lat="42.678179" lon="-0.074963">
        <ele>2564.9</ele>
        <time>2018-08-19T07:27:40Z</time>
      </trkpt>
      <trkpt lat="42.678123" lon="-0.074876">
        <ele>2561.8</ele>
        <time>2018-08-19T07:27:55Z</time>
      </trkpt>
      <trkpt lat="42.678110" lon="-0.074753">
        <ele>2558.8</ele>
        <time>2018-08-19T07:28:09Z</time>
      </trkpt>
      <trkpt lat="42.678037" lon="-0.074725">
        <ele>2556.1</ele>
        <time>2018-08-19T07:28:24Z</time>
      </trkpt>
      <trkpt lat="42.677994" lon="-0.074732">
        <ele>2552.7</ele>
        <time>2018-08-19T07:28:48Z</time>
      </trkpt>
      <trkpt lat="42.677913" lon="-0.074719">
        <ele>2549.7</ele>
        <time>2018-08-19T07:29:07Z</time>
      </trkpt>
      <trkpt lat="42.677852" lon="-0.074683">
        <ele>2546.0</ele>
        <time>2018-08-19T07:30:18Z</time>
      </trkpt>
      <trkpt lat="42.677822" lon="-0.074587">
        <ele>2544.0</ele>
        <time>2018-08-19T07:30:37Z</time>
      </trkpt>
      <trkpt lat="42.677813" lon="-0.074440">
        <ele>2544.9</ele>
        <time>2018-08-19T07:30:51Z</time>
      </trkpt>
      <trkpt lat="42.677737" lon="-0.074371">
        <ele>2542.8</ele>
        <time>2018-08-19T07:31:06Z</time>
      </trkpt>
      <trkpt lat="42.677638" lon="-0.074313">
        <ele>2538.9</ele>
        <time>2018-08-19T07:31:23Z</time>
      </trkpt>
      <trkpt lat="42.677579" lon="-0.074258">
        <ele>2536.7</ele>
        <time>2018-08-19T07:31:56Z</time>
      </trkpt>
      <trkpt lat="42.677504" lon="-0.074216">
        <ele>2535.6</ele>
        <time>2018-08-19T07:36:41Z</time>
      </trkpt>
      <trkpt lat="42.677428" lon="-0.074308">
        <ele>2533.5</ele>
        <time>2018-08-19T07:36:52Z</time>
      </trkpt>
      <trkpt lat="42.677367" lon="-0.074394">
        <ele>2531.1</ele>
        <time>2018-08-19T07:37:04Z</time>
      </trkpt>
      <trkpt lat="42.677326" lon="-0.074442">
        <ele>2530.6</ele>
        <time>2018-08-19T07:37:24Z</time>
      </trkpt>
      <trkpt lat="42.677373" lon="-0.074577">
        <ele>2531.8</ele>
        <time>2018-08-19T07:37:38Z</time>
      </trkpt>
      <trkpt lat="42.677342" lon="-0.074738">
        <ele>2533.2</ele>
        <time>2018-08-19T07:37:55Z</time>
      </trkpt>
      <trkpt lat="42.677259" lon="-0.074741">
        <ele>2530.8</ele>
        <time>2018-08-19T07:38:14Z</time>
      </trkpt>
      <trkpt lat="42.677159" lon="-0.074734">
        <ele>2527.4</ele>
        <time>2018-08-19T07:38:30Z</time>
      </trkpt>
      <trkpt lat="42.677069" lon="-0.074683">
        <ele>2523.4</ele>
        <time>2018-08-19T07:38:47Z</time>
      </trkpt>
      <trkpt lat="42.676988" lon="-0.074624">
        <ele>2518.2</ele>
        <time>2018-08-19T07:39:09Z</time>
      </trkpt>
      <trkpt lat="42.676921" lon="-0.074547">
        <ele>2513.4</ele>
        <time>2018-08-19T07:39:33Z</time>
      </trkpt>
      <trkpt lat="42.676841" lon="-0.074521">
        <ele>2509.0</ele>
        <time>2018-08-19T07:39:56Z</time>
      </trkpt>
      <trkpt lat="42.676749" lon="-0.074484">
        <ele>2504.9</ele>
        <time>2018-08-19T07:40:17Z</time>
      </trkpt>
      <trkpt lat="42.676652" lon="-0.074468">
        <ele>2501.2</ele>
        <time>2018-08-19T07:40:35Z</time>
      </trkpt>
      <trkpt lat="42.676545" lon="-0.074457">
        <ele>2498.1</ele>
        <time>2018-08-19T07:40:52Z</time>
      </trkpt>
      <trkpt lat="42.676538" lon="-0.074422">
        <ele>2496.1</ele>
        <time>2018-08-19T07:41:08Z</time>
      </trkpt>
      <trkpt lat="42.676502" lon="-0.074440">
        <ele>2496.1</ele>
        <time>2018-08-19T07:43:49Z</time>
      </trkpt>
      <trkpt lat="42.676459" lon="-0.074359">
        <ele>2492.6</ele>
        <time>2018-08-19T07:44:06Z</time>
      </trkpt>
      <trkpt lat="42.676406" lon="-0.074270">
        <ele>2489.9</ele>
        <time>2018-08-19T07:44:16Z</time>
      </trkpt>
      <trkpt lat="42.676338" lon="-0.074178">
        <ele>2487.3</ele>
        <time>2018-08-19T07:44:26Z</time>
      </trkpt>
      <trkpt lat="42.676291" lon="-0.074082">
        <ele>2484.0</ele>
        <time>2018-08-19T07:44:39Z</time>
      </trkpt>
      <trkpt lat="42.676211" lon="-0.074034">
        <ele>2481.3</ele>
        <time>2018-08-19T07:44:51Z</time>
      </trkpt>
      <trkpt lat="42.676124" lon="-0.073973">
        <ele>2479.8</ele>
        <time>2018-08-19T07:45:04Z</time>
      </trkpt>
      <trkpt lat="42.675995" lon="-0.073342">
        <ele>2474.6</ele>
        <time>2018-08-19T07:48:22Z</time>
      </trkpt>
      <trkpt lat="42.676027" lon="-0.073212">
        <ele>2472.5</ele>
        <time>2018-08-19T07:48:33Z</time>
      </trkpt>
      <trkpt lat="42.676052" lon="-0.073088">
        <ele>2470.3</ele>
        <time>2018-08-19T07:48:53Z</time>
      </trkpt>
      <trkpt lat="42.676070" lon="-0.072961">
        <ele>2468.2</ele>
        <time>2018-08-19T07:49:03Z</time>
      </trkpt>
      <trkpt lat="42.676093" lon="-0.072840">
        <ele>2466.5</ele>
        <time>2018-08-19T07:49:15Z</time>
      </trkpt>
      <trkpt lat="42.676123" lon="-0.072749">
        <ele>2463.6</ele>
        <time>2018-08-19T07:49:37Z</time>
      </trkpt>
      <trkpt lat="42.676140" lon="-0.072617">
        <ele>2461.6</ele>
        <time>2018-08-19T07:49:50Z</time>
      </trkpt>
      <trkpt lat="42.676159" lon="-0.072480">
        <ele>2459.1</ele>
        <time>2018-08-19T07:50:05Z</time>
      </trkpt>
      <trkpt lat="42.676171" lon="-0.072335">
        <ele>2457.1</ele>
        <time>2018-08-19T07:50:17Z</time>
      </trkpt>
      <trkpt lat="42.676174" lon="-0.072218">
        <ele>2454.9</ele>
        <time>2018-08-19T07:50:33Z</time>
      </trkpt>
      <trkpt lat="42.676202" lon="-0.072133">
        <ele>2452.1</ele>
        <time>2018-08-19T07:50:59Z</time>
      </trkpt>
      <trkpt lat="42.676235" lon="-0.071983">
        <ele>2450.7</ele>
        <time>2018-08-19T07:51:11Z</time>
      </trkpt>
      <trkpt lat="42.676282" lon="-0.071846">
        <ele>2449.0</ele>
        <time>2018-08-19T07:51:21Z</time>
      </trkpt>
      <trkpt lat="42.676330" lon="-0.071743">
        <ele>2448.0</ele>
        <time>2018-08-19T07:51:31Z</time>
      </trkpt>
      <trkpt lat="42.676396" lon="-0.071760">
        <ele>2447.7</ele>
        <time>2018-08-19T07:51:56Z</time>
      </trkpt>
      <trkpt lat="42.676413" lon="-0.071682">
        <ele>2447.1</ele>
        <time>2018-08-19T07:52:38Z</time>
      </trkpt>
      <trkpt lat="42.676406" lon="-0.071711">
        <ele>2447.0</ele>
        <time>2018-08-19T07:52:54Z</time>
      </trkpt>
      <trkpt lat="42.676441" lon="-0.071589">
        <ele>2446.9</ele>
        <time>2018-08-19T07:53:36Z</time>
      </trkpt>
      <trkpt lat="42.676452" lon="-0.071477">
        <ele>2446.7</ele>
        <time>2018-08-19T07:53:49Z</time>
      </trkpt>
      <trkpt lat="42.676516" lon="-0.071375">
        <ele>2446.7</ele>
        <time>2018-08-19T07:54:02Z</time>
      </trkpt>
      <trkpt lat="42.676553" lon="-0.071273">
        <ele>2446.9</ele>
        <time>2018-08-19T07:54:20Z</time>
      </trkpt>
      <trkpt lat="42.676526" lon="-0.071167">
        <ele>2445.9</ele>
        <time>2018-08-19T07:54:41Z</time>
      </trkpt>
      <trkpt lat="42.676452" lon="-0.071089">
        <ele>2447.4</ele>
        <time>2018-08-19T07:54:59Z</time>
      </trkpt>
      <trkpt lat="42.676426" lon="-0.070977">
        <ele>2445.9</ele>
        <time>2018-08-19T07:55:12Z</time>
      </trkpt>
      <trkpt lat="42.676431" lon="-0.070860">
        <ele>2443.7</ele>
        <time>2018-08-19T07:55:22Z</time>
      </trkpt>
      <trkpt lat="42.676390" lon="-0.070742">
        <ele>2442.3</ele>
        <time>2018-08-19T07:55:32Z</time>
      </trkpt>
      <trkpt lat="42.676353" lon="-0.070618">
        <ele>2443.5</ele>
        <time>2018-08-19T07:55:45Z</time>
      </trkpt>
      <trkpt lat="42.676315" lon="-0.070511">
        <ele>2443.6</ele>
        <time>2018-08-19T07:55:57Z</time>
      </trkpt>
      <trkpt lat="42.676306" lon="-0.070415">
        <ele>2441.1</ele>
        <time>2018-08-19T07:56:17Z</time>
      </trkpt>
      <trkpt lat="42.676287" lon="-0.070264">
        <ele>2438.9</ele>
        <time>2018-08-19T07:56:32Z</time>
      </trkpt>
      <trkpt lat="42.676278" lon="-0.070136">
        <ele>2435.1</ele>
        <time>2018-08-19T07:56:47Z</time>
      </trkpt>
      <trkpt lat="42.676334" lon="-0.070059">
        <ele>2432.1</ele>
        <time>2018-08-19T07:57:01Z</time>
      </trkpt>
      <trkpt lat="42.676336" lon="-0.069957">
        <ele>2427.7</ele>
        <time>2018-08-19T07:57:17Z</time>
      </trkpt>
      <trkpt lat="42.676368" lon="-0.069847">
        <ele>2423.6</ele>
        <time>2018-08-19T07:57:31Z</time>
      </trkpt>
      <trkpt lat="42.676421" lon="-0.069757">
        <ele>2419.9</ele>
        <time>2018-08-19T07:57:45Z</time>
      </trkpt>
      <trkpt lat="42.676411" lon="-0.069638">
        <ele>2415.6</ele>
        <time>2018-08-19T07:58:01Z</time>
      </trkpt>
      <trkpt lat="42.676421" lon="-0.069550">
        <ele>2412.3</ele>
        <time>2018-08-19T07:58:15Z</time>
      </trkpt>
      <trkpt lat="42.676414" lon="-0.069435">
        <ele>2409.1</ele>
        <time>2018-08-19T07:58:27Z</time>
      </trkpt>
      <trkpt lat="42.676397" lon="-0.069308">
        <ele>2406.7</ele>
        <time>2018-08-19T07:58:39Z</time>
      </trkpt>
      <trkpt lat="42.676386" lon="-0.069189">
        <ele>2403.9</ele>
        <time>2018-08-19T07:58:53Z</time>
      </trkpt>
      <trkpt lat="42.676392" lon="-0.069190">
        <ele>2403.5</ele>
        <time>2018-08-19T07:59:40Z</time>
      </trkpt>
      <trkpt lat="42.676320" lon="-0.069030">
        <ele>2399.0</ele>
        <time>2018-08-19T08:00:51Z</time>
      </trkpt>
      <trkpt lat="42.676248" lon="-0.068856">
        <ele>2391.7</ele>
        <time>2018-08-19T08:01:55Z</time>
      </trkpt>
      <trkpt lat="42.676275" lon="-0.068718">
        <ele>2387.1</ele>
        <time>2018-08-19T08:02:12Z</time>
      </trkpt>
      <trkpt lat="42.676331" lon="-0.068588">
        <ele>2384.8</ele>
        <time>2018-08-19T08:02:27Z</time>
      </trkpt>
      <trkpt lat="42.676364" lon="-0.068527">
        <ele>2381.4</ele>
        <time>2018-08-19T08:02:44Z</time>
      </trkpt>
      <trkpt lat="42.676361" lon="-0.068380">
        <ele>2377.5</ele>
        <time>2018-08-19T08:03:09Z</time>
      </trkpt>
      <trkpt lat="42.676389" lon="-0.068275">
        <ele>2374.8</ele>
        <time>2018-08-19T08:03:21Z</time>
      </trkpt>
      <trkpt lat="42.676371" lon="-0.068178">
        <ele>2371.8</ele>
        <time>2018-08-19T08:03:38Z</time>
      </trkpt>
      <trkpt lat="42.676404" lon="-0.068014">
        <ele>2364.3</ele>
        <time>2018-08-19T08:04:10Z</time>
      </trkpt>
      <trkpt lat="42.676344" lon="-0.067923">
        <ele>2361.7</ele>
        <time>2018-08-19T08:04:25Z</time>
      </trkpt>
      <trkpt lat="42.676284" lon="-0.067820">
        <ele>2360.1</ele>
        <time>2018-08-19T08:04:39Z</time>
      </trkpt>
      <trkpt lat="42.676211" lon="-0.067728">
        <ele>2358.0</ele>
        <time>2018-08-19T08:04:57Z</time>
      </trkpt>
      <trkpt lat="42.676173" lon="-0.067586">
        <ele>2355.3</ele>
        <time>2018-08-19T08:05:11Z</time>
      </trkpt>
      <trkpt lat="42.676136" lon="-0.067446">
        <ele>2353.6</ele>
        <time>2018-08-19T08:05:23Z</time>
      </trkpt>
      <trkpt lat="42.676124" lon="-0.067312">
        <ele>2351.1</ele>
        <time>2018-08-19T08:05:33Z</time>
      </trkpt>
      <trkpt lat="42.676050" lon="-0.067227">
        <ele>2349.3</ele>
        <time>2018-08-19T08:05:45Z</time>
      </trkpt>
      <trkpt lat="42.675886" lon="-0.067255">
        <ele>2346.9</ele>
        <time>2018-08-19T08:08:56Z</time>
      </trkpt>
      <trkpt lat="42.675809" lon="-0.067248">
        <ele>2346.8</ele>
        <time>2018-08-19T08:09:13Z</time>
      </trkpt>
      <trkpt lat="42.675713" lon="-0.067243">
        <ele>2346.2</ele>
        <time>2018-08-19T08:09:22Z</time>
      </trkpt>
      <trkpt lat="42.675611" lon="-0.067255">
        <ele>2346.2</ele>
        <time>2018-08-19T08:09:32Z</time>
      </trkpt>
      <trkpt lat="42.675528" lon="-0.067174">
        <ele>2345.5</ele>
        <time>2018-08-19T08:09:42Z</time>
      </trkpt>
      <trkpt lat="42.675449" lon="-0.067110">
        <ele>2344.9</ele>
        <time>2018-08-19T08:09:51Z</time>
      </trkpt>
      <trkpt lat="42.675342" lon="-0.067117">
        <ele>2344.5</ele>
        <time>2018-08-19T08:10:02Z</time>
      </trkpt>
      <trkpt lat="42.675232" lon="-0.067112">
        <ele>2344.3</ele>
        <time>2018-08-19T08:10:13Z</time>
      </trkpt>
      <trkpt lat="42.675179" lon="-0.067089">
        <ele>2344.4</ele>
        <time>2018-08-19T08:10:27Z</time>
      </trkpt>
      <trkpt lat="42.675082" lon="-0.067065">
        <ele>2343.3</ele>
        <time>2018-08-19T08:10:38Z</time>
      </trkpt>
      <trkpt lat="42.674986" lon="-0.067027">
        <ele>2342.2</ele>
        <time>2018-08-19T08:10:52Z</time>
      </trkpt>
      <trkpt lat="42.674880" lon="-0.067014">
        <ele>2341.5</ele>
        <time>2018-08-19T08:11:03Z</time>
      </trkpt>
      <trkpt lat="42.674785" lon="-0.066955">
        <ele>2341.5</ele>
        <time>2018-08-19T08:11:13Z</time>
      </trkpt>
      <trkpt lat="42.674717" lon="-0.066849">
        <ele>2341.9</ele>
        <time>2018-08-19T08:11:25Z</time>
      </trkpt>
      <trkpt lat="42.674650" lon="-0.066752">
        <ele>2341.9</ele>
        <time>2018-08-19T08:11:37Z</time>
      </trkpt>
      <trkpt lat="42.674572" lon="-0.066681">
        <ele>2340.0</ele>
        <time>2018-08-19T08:11:51Z</time>
      </trkpt>
      <trkpt lat="42.674499" lon="-0.066614">
        <ele>2339.1</ele>
        <time>2018-08-19T08:12:01Z</time>
      </trkpt>
      <trkpt lat="42.674434" lon="-0.066500">
        <ele>2338.7</ele>
        <time>2018-08-19T08:12:12Z</time>
      </trkpt>
      <trkpt lat="42.674350" lon="-0.066420">
        <ele>2338.7</ele>
        <time>2018-08-19T08:12:26Z</time>
      </trkpt>
      <trkpt lat="42.674427" lon="-0.066195">
        <ele>2338.4</ele>
        <time>2018-08-19T08:12:39Z</time>
      </trkpt>
      <trkpt lat="42.674347" lon="-0.066094">
        <ele>2338.4</ele>
        <time>2018-08-19T08:12:51Z</time>
      </trkpt>
      <trkpt lat="42.674245" lon="-0.066057">
        <ele>2338.7</ele>
        <time>2018-08-19T08:13:03Z</time>
      </trkpt>
      <trkpt lat="42.674180" lon="-0.065982">
        <ele>2339.3</ele>
        <time>2018-08-19T08:13:21Z</time>
      </trkpt>
      <trkpt lat="42.674150" lon="-0.065954">
        <ele>2339.4</ele>
        <time>2018-08-19T08:14:16Z</time>
      </trkpt>
      <trkpt lat="42.674151" lon="-0.065974">
        <ele>2338.9</ele>
        <time>2018-08-19T08:14:48Z</time>
      </trkpt>
      <trkpt lat="42.674027" lon="-0.066029">
        <ele>2338.3</ele>
        <time>2018-08-19T08:15:01Z</time>
      </trkpt>
      <trkpt lat="42.673912" lon="-0.066060">
        <ele>2338.6</ele>
        <time>2018-08-19T08:15:12Z</time>
      </trkpt>
      <trkpt lat="42.673818" lon="-0.066054">
        <ele>2338.7</ele>
        <time>2018-08-19T08:15:24Z</time>
      </trkpt>
      <trkpt lat="42.673750" lon="-0.066131">
        <ele>2338.8</ele>
        <time>2018-08-19T08:15:34Z</time>
      </trkpt>
      <trkpt lat="42.673662" lon="-0.066209">
        <ele>2338.6</ele>
        <time>2018-08-19T08:15:45Z</time>
      </trkpt>
      <trkpt lat="42.673566" lon="-0.066242">
        <ele>2338.2</ele>
        <time>2018-08-19T08:15:55Z</time>
      </trkpt>
      <trkpt lat="42.673480" lon="-0.066248">
        <ele>2338.2</ele>
        <time>2018-08-19T08:16:04Z</time>
      </trkpt>
      <trkpt lat="42.673393" lon="-0.066267">
        <ele>2338.7</ele>
        <time>2018-08-19T08:16:15Z</time>
      </trkpt>
      <trkpt lat="42.673307" lon="-0.066276">
        <ele>2339.5</ele>
        <time>2018-08-19T08:16:26Z</time>
      </trkpt>
      <trkpt lat="42.673210" lon="-0.066308">
        <ele>2340.0</ele>
        <time>2018-08-19T08:16:37Z</time>
      </trkpt>
      <trkpt lat="42.673182" lon="-0.066433">
        <ele>2340.3</ele>
        <time>2018-08-19T08:16:45Z</time>
      </trkpt>
      <trkpt lat="42.673100" lon="-0.066473">
        <ele>2340.2</ele>
        <time>2018-08-19T08:16:55Z</time>
      </trkpt>
      <trkpt lat="42.672997" lon="-0.066464">
        <ele>2340.7</ele>
        <time>2018-08-19T08:17:07Z</time>
      </trkpt>
      <trkpt lat="42.672865" lon="-0.066477">
        <ele>2341.7</ele>
        <time>2018-08-19T08:17:18Z</time>
      </trkpt>
      <trkpt lat="42.672771" lon="-0.066511">
        <ele>2342.3</ele>
        <time>2018-08-19T08:17:27Z</time>
      </trkpt>
      <trkpt lat="42.672683" lon="-0.066521">
        <ele>2342.9</ele>
        <time>2018-08-19T08:17:36Z</time>
      </trkpt>
      <trkpt lat="42.672591" lon="-0.066469">
        <ele>2344.5</ele>
        <time>2018-08-19T08:17:46Z</time>
      </trkpt>
      <trkpt lat="42.672503" lon="-0.066527">
        <ele>2345.8</ele>
        <time>2018-08-19T08:17:57Z</time>
      </trkpt>
      <trkpt lat="42.672473" lon="-0.066582">
        <ele>2347.2</ele>
        <time>2018-08-19T08:18:25Z</time>
      </trkpt>
      <trkpt lat="42.672392" lon="-0.066654">
        <ele>2347.0</ele>
        <time>2018-08-19T08:18:57Z</time>
      </trkpt>
      <trkpt lat="42.672300" lon="-0.066669">
        <ele>2346.2</ele>
        <time>2018-08-19T08:19:05Z</time>
      </trkpt>
      <trkpt lat="42.672204" lon="-0.066668">
        <ele>2346.4</ele>
        <time>2018-08-19T08:19:14Z</time>
      </trkpt>
      <trkpt lat="42.672095" lon="-0.066676">
        <ele>2346.1</ele>
        <time>2018-08-19T08:19:23Z</time>
      </trkpt>
      <trkpt lat="42.672005" lon="-0.066695">
        <ele>2346.2</ele>
        <time>2018-08-19T08:19:32Z</time>
      </trkpt>
      <trkpt lat="42.671904" lon="-0.066680">
        <ele>2346.9</ele>
        <time>2018-08-19T08:19:41Z</time>
      </trkpt>
      <trkpt lat="42.671814" lon="-0.066675">
        <ele>2347.5</ele>
        <time>2018-08-19T08:19:50Z</time>
      </trkpt>
      <trkpt lat="42.671725" lon="-0.066676">
        <ele>2348.5</ele>
        <time>2018-08-19T08:19:59Z</time>
      </trkpt>
      <trkpt lat="42.671639" lon="-0.066671">
        <ele>2349.9</ele>
        <time>2018-08-19T08:20:10Z</time>
      </trkpt>
      <trkpt lat="42.671543" lon="-0.066699">
        <ele>2351.0</ele>
        <time>2018-08-19T08:20:21Z</time>
      </trkpt>
      <trkpt lat="42.671437" lon="-0.066710">
        <ele>2352.4</ele>
        <time>2018-08-19T08:20:36Z</time>
      </trkpt>
      <trkpt lat="42.671345" lon="-0.066747">
        <ele>2353.9</ele>
        <time>2018-08-19T08:20:46Z</time>
      </trkpt>
      <trkpt lat="42.671263" lon="-0.066809">
        <ele>2355.3</ele>
        <time>2018-08-19T08:20:58Z</time>
      </trkpt>
      <trkpt lat="42.671162" lon="-0.066816">
        <ele>2358.0</ele>
        <time>2018-08-19T08:21:14Z</time>
      </trkpt>
      <trkpt lat="42.671068" lon="-0.066826">
        <ele>2361.2</ele>
        <time>2018-08-19T08:21:35Z</time>
      </trkpt>
      <trkpt lat="42.670963" lon="-0.066866">
        <ele>2363.1</ele>
        <time>2018-08-19T08:21:50Z</time>
      </trkpt>
      <trkpt lat="42.670866" lon="-0.066884">
        <ele>2365.0</ele>
        <time>2018-08-19T08:22:04Z</time>
      </trkpt>
      <trkpt lat="42.670764" lon="-0.066906">
        <ele>2367.1</ele>
        <time>2018-08-19T08:22:20Z</time>
      </trkpt>
      <trkpt lat="42.670662" lon="-0.066907">
        <ele>2368.3</ele>
        <time>2018-08-19T08:22:36Z</time>
      </trkpt>
      <trkpt lat="42.670573" lon="-0.066853">
        <ele>2370.0</ele>
        <time>2018-08-19T08:22:50Z</time>
      </trkpt>
      <trkpt lat="42.670475" lon="-0.066823">
        <ele>2371.2</ele>
        <time>2018-08-19T08:23:03Z</time>
      </trkpt>
      <trkpt lat="42.670367" lon="-0.066810">
        <ele>2372.4</ele>
        <time>2018-08-19T08:23:14Z</time>
      </trkpt>
      <trkpt lat="42.670273" lon="-0.066772">
        <ele>2373.1</ele>
        <time>2018-08-19T08:23:24Z</time>
      </trkpt>
      <trkpt lat="42.670182" lon="-0.066729">
        <ele>2373.9</ele>
        <time>2018-08-19T08:23:35Z</time>
      </trkpt>
      <trkpt lat="42.670085" lon="-0.066734">
        <ele>2374.7</ele>
        <time>2018-08-19T08:23:46Z</time>
      </trkpt>
      <trkpt lat="42.669991" lon="-0.066718">
        <ele>2375.2</ele>
        <time>2018-08-19T08:23:55Z</time>
      </trkpt>
      <trkpt lat="42.669904" lon="-0.066673">
        <ele>2375.9</ele>
        <time>2018-08-19T08:24:05Z</time>
      </trkpt>
      <trkpt lat="42.669809" lon="-0.066643">
        <ele>2376.6</ele>
        <time>2018-08-19T08:24:17Z</time>
      </trkpt>
      <trkpt lat="42.669754" lon="-0.066613">
        <ele>2377.2</ele>
        <time>2018-08-19T08:25:00Z</time>
      </trkpt>
      <trkpt lat="42.669663" lon="-0.066549">
        <ele>2377.3</ele>
        <time>2018-08-19T08:25:14Z</time>
      </trkpt>
      <trkpt lat="42.669555" lon="-0.066518">
        <ele>2377.3</ele>
        <time>2018-08-19T08:25:26Z</time>
      </trkpt>
      <trkpt lat="42.669465" lon="-0.066478">
        <ele>2377.1</ele>
        <time>2018-08-19T08:25:36Z</time>
      </trkpt>
      <trkpt lat="42.669372" lon="-0.066486">
        <ele>2376.5</ele>
        <time>2018-08-19T08:25:45Z</time>
      </trkpt>
      <trkpt lat="42.669269" lon="-0.066481">
        <ele>2376.7</ele>
        <time>2018-08-19T08:25:55Z</time>
      </trkpt>
      <trkpt lat="42.669231" lon="-0.066450">
        <ele>2376.8</ele>
        <time>2018-08-19T08:26:19Z</time>
      </trkpt>
      <trkpt lat="42.669125" lon="-0.066411">
        <ele>2377.1</ele>
        <time>2018-08-19T08:26:28Z</time>
      </trkpt>
      <trkpt lat="42.669031" lon="-0.066362">
        <ele>2378.6</ele>
        <time>2018-08-19T08:26:38Z</time>
      </trkpt>
      <trkpt lat="42.668940" lon="-0.066318">
        <ele>2380.3</ele>
        <time>2018-08-19T08:26:51Z</time>
      </trkpt>
      <trkpt lat="42.668884" lon="-0.066210">
        <ele>2383.6</ele>
        <time>2018-08-19T08:27:06Z</time>
      </trkpt>
      <trkpt lat="42.668793" lon="-0.066171">
        <ele>2385.8</ele>
        <time>2018-08-19T08:27:19Z</time>
      </trkpt>
      <trkpt lat="42.668714" lon="-0.066082">
        <ele>2388.1</ele>
        <time>2018-08-19T08:27:30Z</time>
      </trkpt>
      <trkpt lat="42.668629" lon="-0.066014">
        <ele>2388.6</ele>
        <time>2018-08-19T08:27:40Z</time>
      </trkpt>
      <trkpt lat="42.668530" lon="-0.065987">
        <ele>2389.3</ele>
        <time>2018-08-19T08:27:49Z</time>
      </trkpt>
      <trkpt lat="42.668453" lon="-0.065926">
        <ele>2389.8</ele>
        <time>2018-08-19T08:28:00Z</time>
      </trkpt>
      <trkpt lat="42.668465" lon="-0.065888">
        <ele>2389.6</ele>
        <time>2018-08-19T08:29:21Z</time>
      </trkpt>
      <trkpt lat="42.668493" lon="-0.065823">
        <ele>2389.5</ele>
        <time>2018-08-19T08:40:04Z</time>
      </trkpt>
      <trkpt lat="42.668441" lon="-0.065719">
        <ele>2389.2</ele>
        <time>2018-08-19T08:40:26Z</time>
      </trkpt>
      <trkpt lat="42.668428" lon="-0.065579">
        <ele>2388.6</ele>
        <time>2018-08-19T08:40:38Z</time>
      </trkpt>
      <trkpt lat="42.668406" lon="-0.065441">
        <ele>2388.1</ele>
        <time>2018-08-19T08:40:50Z</time>
      </trkpt>
      <trkpt lat="42.668432" lon="-0.065232">
        <ele>2387.8</ele>
        <time>2018-08-19T08:41:04Z</time>
      </trkpt>
      <trkpt lat="42.668438" lon="-0.065087">
        <ele>2388.9</ele>
        <time>2018-08-19T08:41:19Z</time>
      </trkpt>
      <trkpt lat="42.668394" lon="-0.064979">
        <ele>2390.4</ele>
        <time>2018-08-19T08:41:32Z</time>
      </trkpt>
      <trkpt lat="42.668304" lon="-0.064889">
        <ele>2390.8</ele>
        <time>2018-08-19T08:41:43Z</time>
      </trkpt>
      <trkpt lat="42.668205" lon="-0.064806">
        <ele>2392.1</ele>
        <time>2018-08-19T08:41:57Z</time>
      </trkpt>
      <trkpt lat="42.668147" lon="-0.064724">
        <ele>2391.8</ele>
        <time>2018-08-19T08:42:10Z</time>
      </trkpt>
      <trkpt lat="42.668090" lon="-0.064628">
        <ele>2390.3</ele>
        <time>2018-08-19T08:42:22Z</time>
      </trkpt>
      <trkpt lat="42.668049" lon="-0.064506">
        <ele>2389.8</ele>
        <time>2018-08-19T08:42:34Z</time>
      </trkpt>
      <trkpt lat="42.667989" lon="-0.064400">
        <ele>2389.9</ele>
        <time>2018-08-19T08:42:46Z</time>
      </trkpt>
      <trkpt lat="42.667953" lon="-0.064267">
        <ele>2389.1</ele>
        <time>2018-08-19T08:42:57Z</time>
      </trkpt>
      <trkpt lat="42.667871" lon="-0.064159">
        <ele>2387.8</ele>
        <time>2018-08-19T08:43:09Z</time>
      </trkpt>
      <trkpt lat="42.667854" lon="-0.064061">
        <ele>2387.0</ele>
        <time>2018-08-19T08:43:35Z</time>
      </trkpt>
      <trkpt lat="42.667897" lon="-0.063997">
        <ele>2386.9</ele>
        <time>2018-08-19T08:44:02Z</time>
      </trkpt>
      <trkpt lat="42.667842" lon="-0.063876">
        <ele>2385.9</ele>
        <time>2018-08-19T08:44:25Z</time>
      </trkpt>
      <trkpt lat="42.667811" lon="-0.063788">
        <ele>2385.6</ele>
        <time>2018-08-19T08:44:38Z</time>
      </trkpt>
      <trkpt lat="42.667701" lon="-0.063698">
        <ele>2385.6</ele>
        <time>2018-08-19T08:44:53Z</time>
      </trkpt>
      <trkpt lat="42.667623" lon="-0.063570">
        <ele>2386.5</ele>
        <time>2018-08-19T08:45:06Z</time>
      </trkpt>
      <trkpt lat="42.667526" lon="-0.063509">
        <ele>2386.9</ele>
        <time>2018-08-19T08:45:17Z</time>
      </trkpt>
      <trkpt lat="42.667401" lon="-0.063492">
        <ele>2386.0</ele>
        <time>2018-08-19T08:45:28Z</time>
      </trkpt>
      <trkpt lat="42.667363" lon="-0.063372">
        <ele>2386.4</ele>
        <time>2018-08-19T08:45:40Z</time>
      </trkpt>
      <trkpt lat="42.667303" lon="-0.063251">
        <ele>2386.2</ele>
        <time>2018-08-19T08:45:54Z</time>
      </trkpt>
      <trkpt lat="42.667244" lon="-0.063120">
        <ele>2387.4</ele>
        <time>2018-08-19T08:46:06Z</time>
      </trkpt>
      <trkpt lat="42.667137" lon="-0.063055">
        <ele>2387.2</ele>
        <time>2018-08-19T08:46:16Z</time>
      </trkpt>
      <trkpt lat="42.667011" lon="-0.063072">
        <ele>2388.1</ele>
        <time>2018-08-19T08:46:27Z</time>
      </trkpt>
      <trkpt lat="42.666901" lon="-0.063090">
        <ele>2389.4</ele>
        <time>2018-08-19T08:46:38Z</time>
      </trkpt>
      <trkpt lat="42.666828" lon="-0.063023">
        <ele>2390.8</ele>
        <time>2018-08-19T08:46:53Z</time>
      </trkpt>
      <trkpt lat="42.666777" lon="-0.062934">
        <ele>2392.1</ele>
        <time>2018-08-19T08:47:10Z</time>
      </trkpt>
      <trkpt lat="42.666728" lon="-0.062803">
        <ele>2392.3</ele>
        <time>2018-08-19T08:47:22Z</time>
      </trkpt>
      <trkpt lat="42.666661" lon="-0.062710">
        <ele>2391.1</ele>
        <time>2018-08-19T08:47:36Z</time>
      </trkpt>
      <trkpt lat="42.666611" lon="-0.062583">
        <ele>2391.2</ele>
        <time>2018-08-19T08:47:51Z</time>
      </trkpt>
      <trkpt lat="42.666542" lon="-0.062453">
        <ele>2391.4</ele>
        <time>2018-08-19T08:48:02Z</time>
      </trkpt>
      <trkpt lat="42.666489" lon="-0.062334">
        <ele>2390.7</ele>
        <time>2018-08-19T08:48:12Z</time>
      </trkpt>
      <trkpt lat="42.666383" lon="-0.062234">
        <ele>2390.0</ele>
        <time>2018-08-19T08:48:23Z</time>
      </trkpt>
      <trkpt lat="42.666291" lon="-0.062168">
        <ele>2390.5</ele>
        <time>2018-08-19T08:48:33Z</time>
      </trkpt>
      <trkpt lat="42.666211" lon="-0.062106">
        <ele>2391.3</ele>
        <time>2018-08-19T08:48:44Z</time>
      </trkpt>
      <trkpt lat="42.666157" lon="-0.062003">
        <ele>2392.0</ele>
        <time>2018-08-19T08:48:54Z</time>
      </trkpt>
      <trkpt lat="42.666107" lon="-0.061921">
        <ele>2391.6</ele>
        <time>2018-08-19T08:49:12Z</time>
      </trkpt>
      <trkpt lat="42.666035" lon="-0.061822">
        <ele>2391.6</ele>
        <time>2018-08-19T08:49:24Z</time>
      </trkpt>
      <trkpt lat="42.665964" lon="-0.061706">
        <ele>2393.1</ele>
        <time>2018-08-19T08:49:35Z</time>
      </trkpt>
      <trkpt lat="42.665882" lon="-0.061619">
        <ele>2394.6</ele>
        <time>2018-08-19T08:49:47Z</time>
      </trkpt>
      <trkpt lat="42.665792" lon="-0.061508">
        <ele>2395.4</ele>
        <time>2018-08-19T08:50:02Z</time>
      </trkpt>
      <trkpt lat="42.665759" lon="-0.061434">
        <ele>2395.4</ele>
        <time>2018-08-19T08:50:34Z</time>
      </trkpt>
      <trkpt lat="42.665668" lon="-0.061337">
        <ele>2395.2</ele>
        <time>2018-08-19T08:51:16Z</time>
      </trkpt>
      <trkpt lat="42.665574" lon="-0.061270">
        <ele>2394.5</ele>
        <time>2018-08-19T08:51:27Z</time>
      </trkpt>
      <trkpt lat="42.665484" lon="-0.061188">
        <ele>2394.9</ele>
        <time>2018-08-19T08:51:38Z</time>
      </trkpt>
      <trkpt lat="42.665396" lon="-0.061110">
        <ele>2395.0</ele>
        <time>2018-08-19T08:51:49Z</time>
      </trkpt>
      <trkpt lat="42.665277" lon="-0.061119">
        <ele>2394.7</ele>
        <time>2018-08-19T08:52:00Z</time>
      </trkpt>
      <trkpt lat="42.665168" lon="-0.061159">
        <ele>2395.5</ele>
        <time>2018-08-19T08:52:12Z</time>
      </trkpt>
      <trkpt lat="42.665091" lon="-0.061102">
        <ele>2395.7</ele>
        <time>2018-08-19T08:52:22Z</time>
      </trkpt>
      <trkpt lat="42.665085" lon="-0.060985">
        <ele>2398.1</ele>
        <time>2018-08-19T08:54:00Z</time>
      </trkpt>
      <trkpt lat="42.665126" lon="-0.060882">
        <ele>2397.7</ele>
        <time>2018-08-19T08:54:13Z</time>
      </trkpt>
      <trkpt lat="42.665181" lon="-0.060757">
        <ele>2397.9</ele>
        <time>2018-08-19T08:54:25Z</time>
      </trkpt>
      <trkpt lat="42.665246" lon="-0.060651">
        <ele>2397.2</ele>
        <time>2018-08-19T08:54:34Z</time>
      </trkpt>
      <trkpt lat="42.665104" lon="-0.060012">
        <ele>2396.6</ele>
        <time>2018-08-19T08:55:35Z</time>
      </trkpt>
      <trkpt lat="42.665107" lon="-0.059842">
        <ele>2396.2</ele>
        <time>2018-08-19T08:55:47Z</time>
      </trkpt>
      <trkpt lat="42.665101" lon="-0.059674">
        <ele>2396.9</ele>
        <time>2018-08-19T08:56:00Z</time>
      </trkpt>
      <trkpt lat="42.665025" lon="-0.059547">
        <ele>2396.2</ele>
        <time>2018-08-19T08:56:12Z</time>
      </trkpt>
      <trkpt lat="42.665080" lon="-0.059381">
        <ele>2395.7</ele>
        <time>2018-08-19T08:56:26Z</time>
      </trkpt>
      <trkpt lat="42.665104" lon="-0.059234">
        <ele>2396.6</ele>
        <time>2018-08-19T08:56:38Z</time>
      </trkpt>
      <trkpt lat="42.665041" lon="-0.059111">
        <ele>2396.2</ele>
        <time>2018-08-19T08:56:53Z</time>
      </trkpt>
      <trkpt lat="42.664986" lon="-0.058974">
        <ele>2397.1</ele>
        <time>2018-08-19T08:57:10Z</time>
      </trkpt>
      <trkpt lat="42.664851" lon="-0.058974">
        <ele>2395.9</ele>
        <time>2018-08-19T08:57:21Z</time>
      </trkpt>
      <trkpt lat="42.664802" lon="-0.058869">
        <ele>2395.9</ele>
        <time>2018-08-19T08:57:39Z</time>
      </trkpt>
      <trkpt lat="42.664734" lon="-0.058745">
        <ele>2396.3</ele>
        <time>2018-08-19T08:57:51Z</time>
      </trkpt>
      <trkpt lat="42.664665" lon="-0.058627">
        <ele>2396.5</ele>
        <time>2018-08-19T08:58:01Z</time>
      </trkpt>
      <trkpt lat="42.664549" lon="-0.058648">
        <ele>2396.6</ele>
        <time>2018-08-19T08:58:13Z</time>
      </trkpt>
      <trkpt lat="42.664449" lon="-0.058649">
        <ele>2397.3</ele>
        <time>2018-08-19T08:58:24Z</time>
      </trkpt>
      <trkpt lat="42.664353" lon="-0.058670">
        <ele>2399.3</ele>
        <time>2018-08-19T08:58:38Z</time>
      </trkpt>
      <trkpt lat="42.664280" lon="-0.058688">
        <ele>2402.0</ele>
        <time>2018-08-19T08:58:52Z</time>
      </trkpt>
      <trkpt lat="42.664194" lon="-0.058706">
        <ele>2403.8</ele>
        <time>2018-08-19T08:59:04Z</time>
      </trkpt>
      <trkpt lat="42.664119" lon="-0.058712">
        <ele>2403.3</ele>
        <time>2018-08-19T08:59:14Z</time>
      </trkpt>
      <trkpt lat="42.664044" lon="-0.058709">
        <ele>2403.8</ele>
        <time>2018-08-19T08:59:31Z</time>
      </trkpt>
      <trkpt lat="42.663956" lon="-0.058717">
        <ele>2404.3</ele>
        <time>2018-08-19T08:59:55Z</time>
      </trkpt>
      <trkpt lat="42.663854" lon="-0.058747">
        <ele>2404.2</ele>
        <time>2018-08-19T09:00:06Z</time>
      </trkpt>
      <trkpt lat="42.663769" lon="-0.058791">
        <ele>2404.9</ele>
        <time>2018-08-19T09:00:28Z</time>
      </trkpt>
      <trkpt lat="42.663743" lon="-0.058776">
        <ele>2404.8</ele>
        <time>2018-08-19T09:01:23Z</time>
      </trkpt>
      <trkpt lat="42.663708" lon="-0.058630">
        <ele>2403.9</ele>
        <time>2018-08-19T09:01:41Z</time>
      </trkpt>
      <trkpt lat="42.663665" lon="-0.058439">
        <ele>2403.0</ele>
        <time>2018-08-19T09:01:54Z</time>
      </trkpt>
      <trkpt lat="42.663556" lon="-0.058393">
        <ele>2403.5</ele>
        <time>2018-08-19T09:02:07Z</time>
      </trkpt>
      <trkpt lat="42.663456" lon="-0.058337">
        <ele>2403.1</ele>
        <time>2018-08-19T09:02:20Z</time>
      </trkpt>
      <trkpt lat="42.663327" lon="-0.058414">
        <ele>2403.0</ele>
        <time>2018-08-19T09:02:31Z</time>
      </trkpt>
      <trkpt lat="42.663229" lon="-0.058383">
        <ele>2404.8</ele>
        <time>2018-08-19T09:02:44Z</time>
      </trkpt>
      <trkpt lat="42.663165" lon="-0.058436">
        <ele>2405.8</ele>
        <time>2018-08-19T09:02:56Z</time>
      </trkpt>
      <trkpt lat="42.663055" lon="-0.058443">
        <ele>2406.9</ele>
        <time>2018-08-19T09:03:12Z</time>
      </trkpt>
      <trkpt lat="42.662826" lon="-0.058369">
        <ele>2406.4</ele>
        <time>2018-08-19T09:04:30Z</time>
      </trkpt>
      <trkpt lat="42.662763" lon="-0.058436">
        <ele>2405.2</ele>
        <time>2018-08-19T09:04:39Z</time>
      </trkpt>
      <trkpt lat="42.662780" lon="-0.058556">
        <ele>2405.1</ele>
        <time>2018-08-19T09:04:50Z</time>
      </trkpt>
      <trkpt lat="42.662737" lon="-0.058664">
        <ele>2407.2</ele>
        <time>2018-08-19T09:05:05Z</time>
      </trkpt>
      <trkpt lat="42.662572" lon="-0.058733">
        <ele>2407.4</ele>
        <time>2018-08-19T09:05:19Z</time>
      </trkpt>
      <trkpt lat="42.662466" lon="-0.058851">
        <ele>2406.2</ele>
        <time>2018-08-19T09:05:32Z</time>
      </trkpt>
      <trkpt lat="42.662371" lon="-0.058860">
        <ele>2404.7</ele>
        <time>2018-08-19T09:05:40Z</time>
      </trkpt>
      <trkpt lat="42.662270" lon="-0.058841">
        <ele>2405.1</ele>
        <time>2018-08-19T09:05:52Z</time>
      </trkpt>
      <trkpt lat="42.662193" lon="-0.058906">
        <ele>2405.8</ele>
        <time>2018-08-19T09:06:01Z</time>
      </trkpt>
      <trkpt lat="42.662107" lon="-0.058961">
        <ele>2406.6</ele>
        <time>2018-08-19T09:06:14Z</time>
      </trkpt>
      <trkpt lat="42.662013" lon="-0.058928">
        <ele>2407.2</ele>
        <time>2018-08-19T09:06:26Z</time>
      </trkpt>
      <trkpt lat="42.661912" lon="-0.058920">
        <ele>2406.5</ele>
        <time>2018-08-19T09:06:37Z</time>
      </trkpt>
      <trkpt lat="42.661810" lon="-0.058911">
        <ele>2406.4</ele>
        <time>2018-08-19T09:06:47Z</time>
      </trkpt>
      <trkpt lat="42.661702" lon="-0.058909">
        <ele>2406.5</ele>
        <time>2018-08-19T09:06:59Z</time>
      </trkpt>
      <trkpt lat="42.661609" lon="-0.058946">
        <ele>2406.1</ele>
        <time>2018-08-19T09:07:08Z</time>
      </trkpt>
      <trkpt lat="42.661536" lon="-0.059010">
        <ele>2405.7</ele>
        <time>2018-08-19T09:07:16Z</time>
      </trkpt>
      <trkpt lat="42.661457" lon="-0.059026">
        <ele>2405.0</ele>
        <time>2018-08-19T09:07:30Z</time>
      </trkpt>
      <trkpt lat="42.661468" lon="-0.059012">
        <ele>2404.9</ele>
        <time>2018-08-19T09:08:11Z</time>
      </trkpt>
      <trkpt lat="42.661412" lon="-0.058980">
        <ele>2404.8</ele>
        <time>2018-08-19T09:08:27Z</time>
      </trkpt>
      <trkpt lat="42.661299" lon="-0.058985">
        <ele>2405.4</ele>
        <time>2018-08-19T09:08:39Z</time>
      </trkpt>
      <trkpt lat="42.661211" lon="-0.059084">
        <ele>2407.6</ele>
        <time>2018-08-19T09:08:52Z</time>
      </trkpt>
      <trkpt lat="42.661119" lon="-0.059146">
        <ele>2408.9</ele>
        <time>2018-08-19T09:09:12Z</time>
      </trkpt>
      <trkpt lat="42.661085" lon="-0.059067">
        <ele>2410.4</ele>
        <time>2018-08-19T09:09:49Z</time>
      </trkpt>
      <trkpt lat="42.661081" lon="-0.058965">
        <ele>2410.9</ele>
        <time>2018-08-19T09:10:17Z</time>
      </trkpt>
      <trkpt lat="42.661079" lon="-0.058837">
        <ele>2409.2</ele>
        <time>2018-08-19T09:10:33Z</time>
      </trkpt>
      <trkpt lat="42.661074" lon="-0.058695">
        <ele>2406.7</ele>
        <time>2018-08-19T09:10:47Z</time>
      </trkpt>
      <trkpt lat="42.660937" lon="-0.058551">
        <ele>2405.2</ele>
        <time>2018-08-19T09:11:00Z</time>
      </trkpt>
      <trkpt lat="42.660902" lon="-0.058497">
        <ele>2404.9</ele>
        <time>2018-08-19T09:11:19Z</time>
      </trkpt>
      <trkpt lat="42.660978" lon="-0.058372">
        <ele>2405.1</ele>
        <time>2018-08-19T09:11:30Z</time>
      </trkpt>
      <trkpt lat="42.661062" lon="-0.058212">
        <ele>2407.4</ele>
        <time>2018-08-19T09:11:46Z</time>
      </trkpt>
      <trkpt lat="42.661123" lon="-0.058088">
        <ele>2408.2</ele>
        <time>2018-08-19T09:12:01Z</time>
      </trkpt>
      <trkpt lat="42.661158" lon="-0.057960">
        <ele>2408.3</ele>
        <time>2018-08-19T09:12:10Z</time>
      </trkpt>
      <trkpt lat="42.661121" lon="-0.057826">
        <ele>2408.2</ele>
        <time>2018-08-19T09:12:20Z</time>
      </trkpt>
      <trkpt lat="42.661035" lon="-0.057699">
        <ele>2408.0</ele>
        <time>2018-08-19T09:12:29Z</time>
      </trkpt>
      <trkpt lat="42.660944" lon="-0.057594">
        <ele>2407.9</ele>
        <time>2018-08-19T09:12:39Z</time>
      </trkpt>
      <trkpt lat="42.660873" lon="-0.057474">
        <ele>2409.7</ele>
        <time>2018-08-19T09:12:53Z</time>
      </trkpt>
      <trkpt lat="42.660797" lon="-0.057370">
        <ele>2410.3</ele>
        <time>2018-08-19T09:13:04Z</time>
      </trkpt>
      <trkpt lat="42.660692" lon="-0.057314">
        <ele>2410.8</ele>
        <time>2018-08-19T09:13:14Z</time>
      </trkpt>
      <trkpt lat="42.660608" lon="-0.057255">
        <ele>2410.8</ele>
        <time>2018-08-19T09:13:25Z</time>
      </trkpt>
      <trkpt lat="42.660569" lon="-0.057151">
        <ele>2409.4</ele>
        <time>2018-08-19T09:13:51Z</time>
      </trkpt>
      <trkpt lat="42.660524" lon="-0.057026">
        <ele>2408.3</ele>
        <time>2018-08-19T09:14:08Z</time>
      </trkpt>
      <trkpt lat="42.660494" lon="-0.056891">
        <ele>2408.4</ele>
        <time>2018-08-19T09:14:26Z</time>
      </trkpt>
      <trkpt lat="42.660438" lon="-0.056764">
        <ele>2408.9</ele>
        <time>2018-08-19T09:14:37Z</time>
      </trkpt>
      <trkpt lat="42.660371" lon="-0.056661">
        <ele>2408.4</ele>
        <time>2018-08-19T09:14:46Z</time>
      </trkpt>
      <trkpt lat="42.660317" lon="-0.056588">
        <ele>2407.6</ele>
        <time>2018-08-19T09:15:09Z</time>
      </trkpt>
      <trkpt lat="42.660256" lon="-0.056497">
        <ele>2408.2</ele>
        <time>2018-08-19T09:15:20Z</time>
      </trkpt>
      <trkpt lat="42.660221" lon="-0.056365">
        <ele>2409.5</ele>
        <time>2018-08-19T09:15:30Z</time>
      </trkpt>
      <trkpt lat="42.660239" lon="-0.056250">
        <ele>2411.6</ele>
        <time>2018-08-19T09:16:00Z</time>
      </trkpt>
      <trkpt lat="42.660211" lon="-0.056135">
        <ele>2410.7</ele>
        <time>2018-08-19T09:16:15Z</time>
      </trkpt>
      <trkpt lat="42.660181" lon="-0.056029">
        <ele>2410.1</ele>
        <time>2018-08-19T09:16:25Z</time>
      </trkpt>
      <trkpt lat="42.660149" lon="-0.055899">
        <ele>2410.5</ele>
        <time>2018-08-19T09:16:39Z</time>
      </trkpt>
      <trkpt lat="42.660142" lon="-0.055770">
        <ele>2411.7</ele>
        <time>2018-08-19T09:16:50Z</time>
      </trkpt>
      <trkpt lat="42.660129" lon="-0.055632">
        <ele>2411.6</ele>
        <time>2018-08-19T09:17:02Z</time>
      </trkpt>
      <trkpt lat="42.660174" lon="-0.055499">
        <ele>2409.7</ele>
        <time>2018-08-19T09:17:18Z</time>
      </trkpt>
      <trkpt lat="42.660233" lon="-0.055376">
        <ele>2409.1</ele>
        <time>2018-08-19T09:17:34Z</time>
      </trkpt>
      <trkpt lat="42.660294" lon="-0.055208">
        <ele>2406.2</ele>
        <time>2018-08-19T09:17:50Z</time>
      </trkpt>
      <trkpt lat="42.660249" lon="-0.055049">
        <ele>2405.5</ele>
        <time>2018-08-19T09:18:00Z</time>
      </trkpt>
      <trkpt lat="42.660231" lon="-0.054916">
        <ele>2404.9</ele>
        <time>2018-08-19T09:18:11Z</time>
      </trkpt>
      <trkpt lat="42.660235" lon="-0.054782">
        <ele>2405.0</ele>
        <time>2018-08-19T09:18:21Z</time>
      </trkpt>
      <trkpt lat="42.660217" lon="-0.054655">
        <ele>2404.5</ele>
        <time>2018-08-19T09:18:36Z</time>
      </trkpt>
      <trkpt lat="42.660198" lon="-0.054511">
        <ele>2404.6</ele>
        <time>2018-08-19T09:18:47Z</time>
      </trkpt>
      <trkpt lat="42.660134" lon="-0.054413">
        <ele>2404.9</ele>
        <time>2018-08-19T09:18:57Z</time>
      </trkpt>
      <trkpt lat="42.660053" lon="-0.054325">
        <ele>2405.9</ele>
        <time>2018-08-19T09:19:10Z</time>
      </trkpt>
      <trkpt lat="42.659841" lon="-0.054360">
        <ele>2405.4</ele>
        <time>2018-08-19T09:19:30Z</time>
      </trkpt>
      <trkpt lat="42.659708" lon="-0.054341">
        <ele>2406.1</ele>
        <time>2018-08-19T09:19:43Z</time>
      </trkpt>
      <trkpt lat="42.659634" lon="-0.054329">
        <ele>2407.5</ele>
        <time>2018-08-19T09:20:07Z</time>
      </trkpt>
      <trkpt lat="42.659574" lon="-0.054243">
        <ele>2406.3</ele>
        <time>2018-08-19T09:20:38Z</time>
      </trkpt>
      <trkpt lat="42.659505" lon="-0.054171">
        <ele>2405.4</ele>
        <time>2018-08-19T09:20:48Z</time>
      </trkpt>
      <trkpt lat="42.659441" lon="-0.054080">
        <ele>2404.1</ele>
        <time>2018-08-19T09:20:58Z</time>
      </trkpt>
      <trkpt lat="42.659373" lon="-0.053992">
        <ele>2403.0</ele>
        <time>2018-08-19T09:21:08Z</time>
      </trkpt>
      <trkpt lat="42.659308" lon="-0.053881">
        <ele>2402.9</ele>
        <time>2018-08-19T09:21:18Z</time>
      </trkpt>
      <trkpt lat="42.659232" lon="-0.053810">
        <ele>2403.2</ele>
        <time>2018-08-19T09:21:27Z</time>
      </trkpt>
      <trkpt lat="42.659155" lon="-0.053714">
        <ele>2403.9</ele>
        <time>2018-08-19T09:21:37Z</time>
      </trkpt>
      <trkpt lat="42.659076" lon="-0.053620">
        <ele>2403.6</ele>
        <time>2018-08-19T09:21:46Z</time>
      </trkpt>
      <trkpt lat="42.658993" lon="-0.053517">
        <ele>2404.0</ele>
        <time>2018-08-19T09:21:55Z</time>
      </trkpt>
      <trkpt lat="42.658892" lon="-0.053452">
        <ele>2404.7</ele>
        <time>2018-08-19T09:22:05Z</time>
      </trkpt>
      <trkpt lat="42.658819" lon="-0.053366">
        <ele>2404.6</ele>
        <time>2018-08-19T09:22:13Z</time>
      </trkpt>
      <trkpt lat="42.658735" lon="-0.053288">
        <ele>2404.4</ele>
        <time>2018-08-19T09:22:23Z</time>
      </trkpt>
      <trkpt lat="42.658632" lon="-0.053236">
        <ele>2404.4</ele>
        <time>2018-08-19T09:22:32Z</time>
      </trkpt>
      <trkpt lat="42.658567" lon="-0.053166">
        <ele>2404.5</ele>
        <time>2018-08-19T09:22:41Z</time>
      </trkpt>
      <trkpt lat="42.658487" lon="-0.053105">
        <ele>2404.0</ele>
        <time>2018-08-19T09:22:53Z</time>
      </trkpt>
      <trkpt lat="42.658389" lon="-0.053078">
        <ele>2402.8</ele>
        <time>2018-08-19T09:23:02Z</time>
      </trkpt>
      <trkpt lat="42.658289" lon="-0.053032">
        <ele>2402.2</ele>
        <time>2018-08-19T09:23:11Z</time>
      </trkpt>
      <trkpt lat="42.658278" lon="-0.052958">
        <ele>2401.6</ele>
        <time>2018-08-19T09:23:45Z</time>
      </trkpt>
      <trkpt lat="42.658312" lon="-0.052921">
        <ele>2402.0</ele>
        <time>2018-08-19T09:24:47Z</time>
      </trkpt>
      <trkpt lat="42.658270" lon="-0.052812">
        <ele>2403.5</ele>
        <time>2018-08-19T09:25:01Z</time>
      </trkpt>
      <trkpt lat="42.658229" lon="-0.052698">
        <ele>2403.4</ele>
        <time>2018-08-19T09:25:18Z</time>
      </trkpt>
      <trkpt lat="42.658161" lon="-0.052588">
        <ele>2402.1</ele>
        <time>2018-08-19T09:25:32Z</time>
      </trkpt>
      <trkpt lat="42.658095" lon="-0.052470">
        <ele>2401.1</ele>
        <time>2018-08-19T09:26:06Z</time>
      </trkpt>
      <trkpt lat="42.658103" lon="-0.052311">
        <ele>2401.4</ele>
        <time>2018-08-19T09:26:25Z</time>
      </trkpt>
      <trkpt lat="42.658155" lon="-0.052235">
        <ele>2401.3</ele>
        <time>2018-08-19T09:26:47Z</time>
      </trkpt>
      <trkpt lat="42.658255" lon="-0.052179">
        <ele>2402.2</ele>
        <time>2018-08-19T09:27:01Z</time>
      </trkpt>
      <trkpt lat="42.658354" lon="-0.052247">
        <ele>2402.4</ele>
        <time>2018-08-19T09:27:24Z</time>
      </trkpt>
      <trkpt lat="42.658472" lon="-0.052265">
        <ele>2405.8</ele>
        <time>2018-08-19T09:29:19Z</time>
      </trkpt>
      <trkpt lat="42.658547" lon="-0.052320">
        <ele>2405.5</ele>
        <time>2018-08-19T09:30:31Z</time>
      </trkpt>
      <trkpt lat="42.658638" lon="-0.052401">
        <ele>2405.8</ele>
        <time>2018-08-19T09:30:41Z</time>
      </trkpt>
      <trkpt lat="42.658727" lon="-0.052446">
        <ele>2405.8</ele>
        <time>2018-08-19T09:30:51Z</time>
      </trkpt>
      <trkpt lat="42.658852" lon="-0.052480">
        <ele>2406.1</ele>
        <time>2018-08-19T09:31:06Z</time>
      </trkpt>
      <trkpt lat="42.658962" lon="-0.052503">
        <ele>2405.8</ele>
        <time>2018-08-19T09:31:20Z</time>
      </trkpt>
      <trkpt lat="42.659062" lon="-0.052551">
        <ele>2405.4</ele>
        <time>2018-08-19T09:31:32Z</time>
      </trkpt>
      <trkpt lat="42.659171" lon="-0.052591">
        <ele>2403.6</ele>
        <time>2018-08-19T09:31:43Z</time>
      </trkpt>
      <trkpt lat="42.659265" lon="-0.052634">
        <ele>2402.1</ele>
        <time>2018-08-19T09:31:53Z</time>
      </trkpt>
      <trkpt lat="42.659343" lon="-0.052692">
        <ele>2401.9</ele>
        <time>2018-08-19T09:32:22Z</time>
      </trkpt>
      <trkpt lat="42.659443" lon="-0.052689">
        <ele>2401.1</ele>
        <time>2018-08-19T09:32:36Z</time>
      </trkpt>
      <trkpt lat="42.659558" lon="-0.052629">
        <ele>2398.6</ele>
        <time>2018-08-19T09:32:51Z</time>
      </trkpt>
      <trkpt lat="42.659659" lon="-0.052594">
        <ele>2398.3</ele>
        <time>2018-08-19T09:33:00Z</time>
      </trkpt>
      <trkpt lat="42.659748" lon="-0.052558">
        <ele>2398.7</ele>
        <time>2018-08-19T09:33:10Z</time>
      </trkpt>
      <trkpt lat="42.659840" lon="-0.052530">
        <ele>2399.4</ele>
        <time>2018-08-19T09:33:21Z</time>
      </trkpt>
      <trkpt lat="42.659911" lon="-0.052471">
        <ele>2399.3</ele>
        <time>2018-08-19T09:33:33Z</time>
      </trkpt>
      <trkpt lat="42.659992" lon="-0.052408">
        <ele>2398.6</ele>
        <time>2018-08-19T09:33:48Z</time>
      </trkpt>
      <trkpt lat="42.660037" lon="-0.052297">
        <ele>2398.9</ele>
        <time>2018-08-19T09:34:17Z</time>
      </trkpt>
      <trkpt lat="42.660021" lon="-0.052144">
        <ele>2399.2</ele>
        <time>2018-08-19T09:34:28Z</time>
      </trkpt>
      <trkpt lat="42.660046" lon="-0.052025">
        <ele>2399.5</ele>
        <time>2018-08-19T09:34:36Z</time>
      </trkpt>
      <trkpt lat="42.660071" lon="-0.051895">
        <ele>2399.1</ele>
        <time>2018-08-19T09:34:45Z</time>
      </trkpt>
      <trkpt lat="42.660127" lon="-0.051774">
        <ele>2399.7</ele>
        <time>2018-08-19T09:34:54Z</time>
      </trkpt>
      <trkpt lat="42.660187" lon="-0.051680">
        <ele>2399.8</ele>
        <time>2018-08-19T09:35:04Z</time>
      </trkpt>
      <trkpt lat="42.660203" lon="-0.051541">
        <ele>2399.1</ele>
        <time>2018-08-19T09:35:14Z</time>
      </trkpt>
      <trkpt lat="42.660239" lon="-0.051418">
        <ele>2399.1</ele>
        <time>2018-08-19T09:35:22Z</time>
      </trkpt>
      <trkpt lat="42.660295" lon="-0.051308">
        <ele>2399.0</ele>
        <time>2018-08-19T09:35:31Z</time>
      </trkpt>
      <trkpt lat="42.660382" lon="-0.051256">
        <ele>2398.4</ele>
        <time>2018-08-19T09:35:41Z</time>
      </trkpt>
      <trkpt lat="42.660480" lon="-0.051209">
        <ele>2397.1</ele>
        <time>2018-08-19T09:35:54Z</time>
      </trkpt>
      <trkpt lat="42.660467" lon="-0.051095">
        <ele>2396.7</ele>
        <time>2018-08-19T09:36:06Z</time>
      </trkpt>
      <trkpt lat="42.660558" lon="-0.050965">
        <ele>2397.7</ele>
        <time>2018-08-19T09:41:57Z</time>
      </trkpt>
      <trkpt lat="42.660615" lon="-0.050860">
        <ele>2397.3</ele>
        <time>2018-08-19T09:42:12Z</time>
      </trkpt>
      <trkpt lat="42.660614" lon="-0.050730">
        <ele>2397.3</ele>
        <time>2018-08-19T09:42:22Z</time>
      </trkpt>
      <trkpt lat="42.660629" lon="-0.050601">
        <ele>2398.0</ele>
        <time>2018-08-19T09:42:32Z</time>
      </trkpt>
      <trkpt lat="42.660658" lon="-0.050465">
        <ele>2397.8</ele>
        <time>2018-08-19T09:42:43Z</time>
      </trkpt>
      <trkpt lat="42.660644" lon="-0.050324">
        <ele>2397.4</ele>
        <time>2018-08-19T09:42:53Z</time>
      </trkpt>
      <trkpt lat="42.660588" lon="-0.050205">
        <ele>2397.9</ele>
        <time>2018-08-19T09:43:04Z</time>
      </trkpt>
      <trkpt lat="42.660525" lon="-0.050093">
        <ele>2398.1</ele>
        <time>2018-08-19T09:43:16Z</time>
      </trkpt>
      <trkpt lat="42.660468" lon="-0.049968">
        <ele>2398.2</ele>
        <time>2018-08-19T09:43:30Z</time>
      </trkpt>
      <trkpt lat="42.660394" lon="-0.049864">
        <ele>2397.6</ele>
        <time>2018-08-19T09:43:40Z</time>
      </trkpt>
      <trkpt lat="42.660343" lon="-0.049749">
        <ele>2398.3</ele>
        <time>2018-08-19T09:43:49Z</time>
      </trkpt>
      <trkpt lat="42.660342" lon="-0.049610">
        <ele>2398.8</ele>
        <time>2018-08-19T09:43:59Z</time>
      </trkpt>
      <trkpt lat="42.660376" lon="-0.049494">
        <ele>2399.1</ele>
        <time>2018-08-19T09:44:09Z</time>
      </trkpt>
      <trkpt lat="42.660397" lon="-0.049361">
        <ele>2398.6</ele>
        <time>2018-08-19T09:44:35Z</time>
      </trkpt>
      <trkpt lat="42.660458" lon="-0.049229">
        <ele>2399.1</ele>
        <time>2018-08-19T09:44:48Z</time>
      </trkpt>
      <trkpt lat="42.660500" lon="-0.049108">
        <ele>2399.9</ele>
        <time>2018-08-19T09:45:02Z</time>
      </trkpt>
      <trkpt lat="42.660532" lon="-0.048985">
        <ele>2399.9</ele>
        <time>2018-08-19T09:45:11Z</time>
      </trkpt>
      <trkpt lat="42.660575" lon="-0.048855">
        <ele>2399.7</ele>
        <time>2018-08-19T09:45:22Z</time>
      </trkpt>
      <trkpt lat="42.660579" lon="-0.048717">
        <ele>2399.8</ele>
        <time>2018-08-19T09:45:35Z</time>
      </trkpt>
      <trkpt lat="42.660567" lon="-0.048586">
        <ele>2399.3</ele>
        <time>2018-08-19T09:45:46Z</time>
      </trkpt>
      <trkpt lat="42.660536" lon="-0.048474">
        <ele>2399.4</ele>
        <time>2018-08-19T09:45:57Z</time>
      </trkpt>
      <trkpt lat="42.660472" lon="-0.048438">
        <ele>2399.5</ele>
        <time>2018-08-19T09:47:35Z</time>
      </trkpt>
      <trkpt lat="42.660432" lon="-0.048347">
        <ele>2400.6</ele>
        <time>2018-08-19T09:48:45Z</time>
      </trkpt>
      <trkpt lat="42.660407" lon="-0.048220">
        <ele>2401.2</ele>
        <time>2018-08-19T09:48:55Z</time>
      </trkpt>
      <trkpt lat="42.660340" lon="-0.048119">
        <ele>2401.3</ele>
        <time>2018-08-19T09:49:05Z</time>
      </trkpt>
      <trkpt lat="42.660277" lon="-0.048018">
        <ele>2401.6</ele>
        <time>2018-08-19T09:49:15Z</time>
      </trkpt>
      <trkpt lat="42.660201" lon="-0.047927">
        <ele>2402.4</ele>
        <time>2018-08-19T09:49:28Z</time>
      </trkpt>
      <trkpt lat="42.660112" lon="-0.047835">
        <ele>2403.0</ele>
        <time>2018-08-19T09:49:37Z</time>
      </trkpt>
      <trkpt lat="42.660044" lon="-0.047795">
        <ele>2402.8</ele>
        <time>2018-08-19T09:50:03Z</time>
      </trkpt>
      <trkpt lat="42.660046" lon="-0.047745">
        <ele>2403.5</ele>
        <time>2018-08-19T09:51:02Z</time>
      </trkpt>
      <trkpt lat="42.660093" lon="-0.047727">
        <ele>2404.9</ele>
        <time>2018-08-19T09:52:21Z</time>
      </trkpt>
      <trkpt lat="42.660170" lon="-0.047699">
        <ele>2404.7</ele>
        <time>2018-08-19T09:53:31Z</time>
      </trkpt>
      <trkpt lat="42.660264" lon="-0.047679">
        <ele>2405.1</ele>
        <time>2018-08-19T09:53:44Z</time>
      </trkpt>
      <trkpt lat="42.660358" lon="-0.047667">
        <ele>2405.5</ele>
        <time>2018-08-19T09:53:57Z</time>
      </trkpt>
      <trkpt lat="42.660484" lon="-0.047696">
        <ele>2405.3</ele>
        <time>2018-08-19T09:54:08Z</time>
      </trkpt>
      <trkpt lat="42.660599" lon="-0.047776">
        <ele>2403.9</ele>
        <time>2018-08-19T09:54:21Z</time>
      </trkpt>
      <trkpt lat="42.660725" lon="-0.047870">
        <ele>2403.0</ele>
        <time>2018-08-19T09:54:34Z</time>
      </trkpt>
      <trkpt lat="42.660844" lon="-0.047836">
        <ele>2401.5</ele>
        <time>2018-08-19T09:54:50Z</time>
      </trkpt>
      <trkpt lat="42.660917" lon="-0.047729">
        <ele>2400.8</ele>
        <time>2018-08-19T09:55:00Z</time>
      </trkpt>
      <trkpt lat="42.660948" lon="-0.047586">
        <ele>2400.2</ele>
        <time>2018-08-19T09:55:10Z</time>
      </trkpt>
      <trkpt lat="42.660977" lon="-0.047489">
        <ele>2399.9</ele>
        <time>2018-08-19T09:55:28Z</time>
      </trkpt>
      <trkpt lat="42.661050" lon="-0.047388">
        <ele>2398.8</ele>
        <time>2018-08-19T09:56:09Z</time>
      </trkpt>
      <trkpt lat="42.661104" lon="-0.047282">
        <ele>2398.4</ele>
        <time>2018-08-19T09:56:19Z</time>
      </trkpt>
      <trkpt lat="42.661180" lon="-0.047187">
        <ele>2398.0</ele>
        <time>2018-08-19T09:56:30Z</time>
      </trkpt>
      <trkpt lat="42.661248" lon="-0.047067">
        <ele>2397.4</ele>
        <time>2018-08-19T09:56:40Z</time>
      </trkpt>
      <trkpt lat="42.661324" lon="-0.046961">
        <ele>2397.5</ele>
        <time>2018-08-19T09:56:50Z</time>
      </trkpt>
      <trkpt lat="42.661395" lon="-0.046840">
        <ele>2396.7</ele>
        <time>2018-08-19T09:57:02Z</time>
      </trkpt>
      <trkpt lat="42.661439" lon="-0.046715">
        <ele>2396.6</ele>
        <time>2018-08-19T09:57:11Z</time>
      </trkpt>
      <trkpt lat="42.661369" lon="-0.046604">
        <ele>2396.6</ele>
        <time>2018-08-19T09:57:22Z</time>
      </trkpt>
      <trkpt lat="42.661355" lon="-0.046467">
        <ele>2397.6</ele>
        <time>2018-08-19T09:57:36Z</time>
      </trkpt>
      <trkpt lat="42.661347" lon="-0.046323">
        <ele>2397.0</ele>
        <time>2018-08-19T09:57:52Z</time>
      </trkpt>
      <trkpt lat="42.661390" lon="-0.046224">
        <ele>2396.1</ele>
        <time>2018-08-19T09:58:03Z</time>
      </trkpt>
      <trkpt lat="42.661439" lon="-0.046117">
        <ele>2395.3</ele>
        <time>2018-08-19T09:58:14Z</time>
      </trkpt>
      <trkpt lat="42.661477" lon="-0.046016">
        <ele>2394.7</ele>
        <time>2018-08-19T09:58:26Z</time>
      </trkpt>
      <trkpt lat="42.661537" lon="-0.045916">
        <ele>2393.9</ele>
        <time>2018-08-19T09:59:20Z</time>
      </trkpt>
      <trkpt lat="42.661610" lon="-0.045826">
        <ele>2393.2</ele>
        <time>2018-08-19T09:59:29Z</time>
      </trkpt>
      <trkpt lat="42.661705" lon="-0.045758">
        <ele>2392.3</ele>
        <time>2018-08-19T09:59:40Z</time>
      </trkpt>
      <trkpt lat="42.661771" lon="-0.045658">
        <ele>2391.4</ele>
        <time>2018-08-19T09:59:50Z</time>
      </trkpt>
      <trkpt lat="42.661833" lon="-0.045555">
        <ele>2390.8</ele>
        <time>2018-08-19T10:00:02Z</time>
      </trkpt>
      <trkpt lat="42.661857" lon="-0.045457">
        <ele>2391.2</ele>
        <time>2018-08-19T10:00:18Z</time>
      </trkpt>
      <trkpt lat="42.661914" lon="-0.045370">
        <ele>2390.3</ele>
        <time>2018-08-19T10:00:59Z</time>
      </trkpt>
      <trkpt lat="42.661972" lon="-0.045272">
        <ele>2389.3</ele>
        <time>2018-08-19T10:01:09Z</time>
      </trkpt>
      <trkpt lat="42.662054" lon="-0.045231">
        <ele>2389.1</ele>
        <time>2018-08-19T10:01:23Z</time>
      </trkpt>
      <trkpt lat="42.662067" lon="-0.045259">
        <ele>2389.6</ele>
        <time>2018-08-19T10:02:18Z</time>
      </trkpt>
      <trkpt lat="42.662164" lon="-0.045288">
        <ele>2389.0</ele>
        <time>2018-08-19T10:02:37Z</time>
      </trkpt>
      <trkpt lat="42.662261" lon="-0.045193">
        <ele>2388.8</ele>
        <time>2018-08-19T10:02:52Z</time>
      </trkpt>
      <trkpt lat="42.662342" lon="-0.045123">
        <ele>2387.2</ele>
        <time>2018-08-19T10:03:05Z</time>
      </trkpt>
      <trkpt lat="42.662379" lon="-0.044986">
        <ele>2386.4</ele>
        <time>2018-08-19T10:03:14Z</time>
      </trkpt>
      <trkpt lat="42.662404" lon="-0.044830">
        <ele>2385.6</ele>
        <time>2018-08-19T10:03:23Z</time>
      </trkpt>
      <trkpt lat="42.662445" lon="-0.044701">
        <ele>2385.5</ele>
        <time>2018-08-19T10:03:33Z</time>
      </trkpt>
      <trkpt lat="42.662449" lon="-0.044580">
        <ele>2385.5</ele>
        <time>2018-08-19T10:03:43Z</time>
      </trkpt>
      <trkpt lat="42.662542" lon="-0.044617">
        <ele>2386.2</ele>
        <time>2018-08-19T10:04:33Z</time>
      </trkpt>
      <trkpt lat="42.662639" lon="-0.044605">
        <ele>2386.5</ele>
        <time>2018-08-19T10:04:44Z</time>
      </trkpt>
      <trkpt lat="42.662729" lon="-0.044592">
        <ele>2386.9</ele>
        <time>2018-08-19T10:04:53Z</time>
      </trkpt>
      <trkpt lat="42.662784" lon="-0.044663">
        <ele>2386.9</ele>
        <time>2018-08-19T10:06:13Z</time>
      </trkpt>
      <trkpt lat="42.662838" lon="-0.044777">
        <ele>2386.0</ele>
        <time>2018-08-19T10:06:24Z</time>
      </trkpt>
      <trkpt lat="42.662923" lon="-0.044857">
        <ele>2385.7</ele>
        <time>2018-08-19T10:06:39Z</time>
      </trkpt>
      <trkpt lat="42.663002" lon="-0.044886">
        <ele>2385.4</ele>
        <time>2018-08-19T10:07:07Z</time>
      </trkpt>
      <trkpt lat="42.663106" lon="-0.044910">
        <ele>2384.8</ele>
        <time>2018-08-19T10:07:21Z</time>
      </trkpt>
      <trkpt lat="42.663202" lon="-0.044920">
        <ele>2385.7</ele>
        <time>2018-08-19T10:07:35Z</time>
      </trkpt>
      <trkpt lat="42.663315" lon="-0.044951">
        <ele>2385.7</ele>
        <time>2018-08-19T10:08:07Z</time>
      </trkpt>
      <trkpt lat="42.663407" lon="-0.044994">
        <ele>2386.0</ele>
        <time>2018-08-19T10:08:20Z</time>
      </trkpt>
      <trkpt lat="42.663502" lon="-0.045041">
        <ele>2385.1</ele>
        <time>2018-08-19T10:08:35Z</time>
      </trkpt>
      <trkpt lat="42.663586" lon="-0.045144">
        <ele>2384.6</ele>
        <time>2018-08-19T10:08:50Z</time>
      </trkpt>
      <trkpt lat="42.663660" lon="-0.045239">
        <ele>2384.9</ele>
        <time>2018-08-19T10:09:04Z</time>
      </trkpt>
      <trkpt lat="42.663731" lon="-0.045358">
        <ele>2384.4</ele>
        <time>2018-08-19T10:09:20Z</time>
      </trkpt>
      <trkpt lat="42.663821" lon="-0.045433">
        <ele>2384.2</ele>
        <time>2018-08-19T10:09:57Z</time>
      </trkpt>
      <trkpt lat="42.663891" lon="-0.045525">
        <ele>2383.6</ele>
        <time>2018-08-19T10:10:10Z</time>
      </trkpt>
      <trkpt lat="42.663947" lon="-0.045594">
        <ele>2382.8</ele>
        <time>2018-08-19T10:11:07Z</time>
      </trkpt>
      <trkpt lat="42.664012" lon="-0.045709">
        <ele>2382.6</ele>
        <time>2018-08-19T10:11:19Z</time>
      </trkpt>
      <trkpt lat="42.664051" lon="-0.045821">
        <ele>2382.3</ele>
        <time>2018-08-19T10:11:33Z</time>
      </trkpt>
      <trkpt lat="42.664142" lon="-0.045885">
        <ele>2382.0</ele>
        <time>2018-08-19T10:11:46Z</time>
      </trkpt>
      <trkpt lat="42.664214" lon="-0.045980">
        <ele>2380.7</ele>
        <time>2018-08-19T10:11:59Z</time>
      </trkpt>
      <trkpt lat="42.664268" lon="-0.046103">
        <ele>2380.4</ele>
        <time>2018-08-19T10:12:11Z</time>
      </trkpt>
      <trkpt lat="42.664319" lon="-0.046050">
        <ele>2378.3</ele>
        <time>2018-08-19T10:12:45Z</time>
      </trkpt>
      <trkpt lat="42.664391" lon="-0.046024">
        <ele>2375.4</ele>
        <time>2018-08-19T10:13:18Z</time>
      </trkpt>
      <trkpt lat="42.664462" lon="-0.046046">
        <ele>2374.3</ele>
        <time>2018-08-19T10:13:37Z</time>
      </trkpt>
      <trkpt lat="42.664552" lon="-0.046015">
        <ele>2373.0</ele>
        <time>2018-08-19T10:13:55Z</time>
      </trkpt>
      <trkpt lat="42.664624" lon="-0.045954">
        <ele>2371.7</ele>
        <time>2018-08-19T10:14:09Z</time>
      </trkpt>
      <trkpt lat="42.664709" lon="-0.045967">
        <ele>2369.9</ele>
        <time>2018-08-19T10:14:28Z</time>
      </trkpt>
      <trkpt lat="42.664784" lon="-0.045974">
        <ele>2370.3</ele>
        <time>2018-08-19T10:15:05Z</time>
      </trkpt>
      <trkpt lat="42.664872" lon="-0.046046">
        <ele>2370.0</ele>
        <time>2018-08-19T10:15:16Z</time>
      </trkpt>
      <trkpt lat="42.664975" lon="-0.046034">
        <ele>2369.0</ele>
        <time>2018-08-19T10:15:25Z</time>
      </trkpt>
      <trkpt lat="42.665071" lon="-0.045957">
        <ele>2367.0</ele>
        <time>2018-08-19T10:15:36Z</time>
      </trkpt>
      <trkpt lat="42.665139" lon="-0.045848">
        <ele>2365.1</ele>
        <time>2018-08-19T10:15:47Z</time>
      </trkpt>
      <trkpt lat="42.665222" lon="-0.045791">
        <ele>2363.1</ele>
        <time>2018-08-19T10:16:00Z</time>
      </trkpt>
      <trkpt lat="42.665328" lon="-0.045826">
        <ele>2361.6</ele>
        <time>2018-08-19T10:16:11Z</time>
      </trkpt>
      <trkpt lat="42.665435" lon="-0.045835">
        <ele>2360.4</ele>
        <time>2018-08-19T10:16:23Z</time>
      </trkpt>
      <trkpt lat="42.665536" lon="-0.045833">
        <ele>2359.0</ele>
        <time>2018-08-19T10:16:34Z</time>
      </trkpt>
      <trkpt lat="42.665618" lon="-0.045914">
        <ele>2358.4</ele>
        <time>2018-08-19T10:16:46Z</time>
      </trkpt>
      <trkpt lat="42.665707" lon="-0.045859">
        <ele>2360.2</ele>
        <time>2018-08-19T10:16:58Z</time>
      </trkpt>
      <trkpt lat="42.665792" lon="-0.045885">
        <ele>2360.2</ele>
        <time>2018-08-19T10:17:08Z</time>
      </trkpt>
      <trkpt lat="42.665890" lon="-0.045855">
        <ele>2359.5</ele>
        <time>2018-08-19T10:17:19Z</time>
      </trkpt>
      <trkpt lat="42.666000" lon="-0.045853">
        <ele>2358.6</ele>
        <time>2018-08-19T10:17:31Z</time>
      </trkpt>
      <trkpt lat="42.666091" lon="-0.045823">
        <ele>2357.0</ele>
        <time>2018-08-19T10:17:42Z</time>
      </trkpt>
      <trkpt lat="42.666126" lon="-0.045780">
        <ele>2354.3</ele>
        <time>2018-08-19T10:18:38Z</time>
      </trkpt>
      <trkpt lat="42.666218" lon="-0.045737">
        <ele>2352.7</ele>
        <time>2018-08-19T10:18:51Z</time>
      </trkpt>
      <trkpt lat="42.666274" lon="-0.045620">
        <ele>2350.0</ele>
        <time>2018-08-19T10:19:03Z</time>
      </trkpt>
      <trkpt lat="42.666363" lon="-0.045618">
        <ele>2348.5</ele>
        <time>2018-08-19T10:19:22Z</time>
      </trkpt>
      <trkpt lat="42.666463" lon="-0.045555">
        <ele>2346.5</ele>
        <time>2018-08-19T10:19:34Z</time>
      </trkpt>
      <trkpt lat="42.666579" lon="-0.045579">
        <ele>2344.6</ele>
        <time>2018-08-19T10:19:47Z</time>
      </trkpt>
      <trkpt lat="42.666689" lon="-0.045590">
        <ele>2343.1</ele>
        <time>2018-08-19T10:20:00Z</time>
      </trkpt>
      <trkpt lat="42.666777" lon="-0.045646">
        <ele>2342.7</ele>
        <time>2018-08-19T10:20:10Z</time>
      </trkpt>
      <trkpt lat="42.666855" lon="-0.045694">
        <ele>2342.9</ele>
        <time>2018-08-19T10:20:19Z</time>
      </trkpt>
      <trkpt lat="42.667112" lon="-0.045631">
        <ele>2340.3</ele>
        <time>2018-08-19T10:23:26Z</time>
      </trkpt>
      <trkpt lat="42.667140" lon="-0.045508">
        <ele>2337.8</ele>
        <time>2018-08-19T10:23:39Z</time>
      </trkpt>
      <trkpt lat="42.667191" lon="-0.045398">
        <ele>2337.1</ele>
        <time>2018-08-19T10:23:49Z</time>
      </trkpt>
      <trkpt lat="42.667216" lon="-0.045272">
        <ele>2336.9</ele>
        <time>2018-08-19T10:24:00Z</time>
      </trkpt>
      <trkpt lat="42.667227" lon="-0.045152">
        <ele>2336.3</ele>
        <time>2018-08-19T10:24:17Z</time>
      </trkpt>
      <trkpt lat="42.667260" lon="-0.045052">
        <ele>2335.6</ele>
        <time>2018-08-19T10:24:28Z</time>
      </trkpt>
      <trkpt lat="42.667323" lon="-0.045013">
        <ele>2336.9</ele>
        <time>2018-08-19T10:24:53Z</time>
      </trkpt>
      <trkpt lat="42.667422" lon="-0.044970">
        <ele>2337.0</ele>
        <time>2018-08-19T10:25:09Z</time>
      </trkpt>
      <trkpt lat="42.667514" lon="-0.044923">
        <ele>2335.9</ele>
        <time>2018-08-19T10:25:19Z</time>
      </trkpt>
      <trkpt lat="42.667611" lon="-0.044881">
        <ele>2334.5</ele>
        <time>2018-08-19T10:25:29Z</time>
      </trkpt>
      <trkpt lat="42.667705" lon="-0.044917">
        <ele>2333.9</ele>
        <time>2018-08-19T10:25:38Z</time>
      </trkpt>
      <trkpt lat="42.667809" lon="-0.044880">
        <ele>2333.4</ele>
        <time>2018-08-19T10:25:49Z</time>
      </trkpt>
      <trkpt lat="42.667908" lon="-0.044850">
        <ele>2333.2</ele>
        <time>2018-08-19T10:26:00Z</time>
      </trkpt>
      <trkpt lat="42.668008" lon="-0.044826">
        <ele>2340.2</ele>
        <time>2018-08-19T10:28:21Z</time>
      </trkpt>
      <trkpt lat="42.668047" lon="-0.044712">
        <ele>2337.4</ele>
        <time>2018-08-19T10:28:47Z</time>
      </trkpt>
      <trkpt lat="42.668032" lon="-0.044589">
        <ele>2338.1</ele>
        <time>2018-08-19T10:29:04Z</time>
      </trkpt>
      <trkpt lat="42.668039" lon="-0.044449">
        <ele>2337.4</ele>
        <time>2018-08-19T10:29:17Z</time>
      </trkpt>
      <trkpt lat="42.668034" lon="-0.044388">
        <ele>2336.2</ele>
        <time>2018-08-19T10:30:27Z</time>
      </trkpt>
      <trkpt lat="42.668012" lon="-0.044362">
        <ele>2336.8</ele>
        <time>2018-08-19T10:58:54Z</time>
      </trkpt>
      <trkpt lat="42.668068" lon="-0.044393">
        <ele>2337.6</ele>
        <time>2018-08-19T10:59:54Z</time>
      </trkpt>
      <trkpt lat="42.668165" lon="-0.044349">
        <ele>2334.9</ele>
        <time>2018-08-19T11:00:18Z</time>
      </trkpt>
      <trkpt lat="42.668185" lon="-0.044228">
        <ele>2333.1</ele>
        <time>2018-08-19T11:00:42Z</time>
      </trkpt>
      <trkpt lat="42.668188" lon="-0.044096">
        <ele>2332.7</ele>
        <time>2018-08-19T11:01:36Z</time>
      </trkpt>
      <trkpt lat="42.668377" lon="-0.043828">
        <ele>2331.7</ele>
        <time>2018-08-19T11:03:21Z</time>
      </trkpt>
      <trkpt lat="42.668456" lon="-0.043756">
        <ele>2333.3</ele>
        <time>2018-08-19T11:03:36Z</time>
      </trkpt>
      <trkpt lat="42.668539" lon="-0.043736">
        <ele>2335.1</ele>
        <time>2018-08-19T11:03:58Z</time>
      </trkpt>
      <trkpt lat="42.668630" lon="-0.043796">
        <ele>2334.9</ele>
        <time>2018-08-19T11:04:09Z</time>
      </trkpt>
      <trkpt lat="42.668731" lon="-0.043733">
        <ele>2334.6</ele>
        <time>2018-08-19T11:04:38Z</time>
      </trkpt>
      <trkpt lat="42.668823" lon="-0.043729">
        <ele>2334.0</ele>
        <time>2018-08-19T11:04:49Z</time>
      </trkpt>
      <trkpt lat="42.668903" lon="-0.043725">
        <ele>2332.2</ele>
        <time>2018-08-19T11:05:07Z</time>
      </trkpt>
      <trkpt lat="42.669002" lon="-0.043719">
        <ele>2331.4</ele>
        <time>2018-08-19T11:05:19Z</time>
      </trkpt>
      <trkpt lat="42.668998" lon="-0.043648">
        <ele>2329.4</ele>
        <time>2018-08-19T11:05:37Z</time>
      </trkpt>
      <trkpt lat="42.669039" lon="-0.043605">
        <ele>2326.1</ele>
        <time>2018-08-19T11:05:58Z</time>
      </trkpt>
      <trkpt lat="42.669117" lon="-0.043579">
        <ele>2321.0</ele>
        <time>2018-08-19T11:06:40Z</time>
      </trkpt>
      <trkpt lat="42.669158" lon="-0.043600">
        <ele>2322.1</ele>
        <time>2018-08-19T11:07:05Z</time>
      </trkpt>
      <trkpt lat="42.669211" lon="-0.043586">
        <ele>2321.6</ele>
        <time>2018-08-19T11:08:20Z</time>
      </trkpt>
      <trkpt lat="42.669296" lon="-0.043540">
        <ele>2321.2</ele>
        <time>2018-08-19T11:08:31Z</time>
      </trkpt>
      <trkpt lat="42.669376" lon="-0.043548">
        <ele>2320.9</ele>
        <time>2018-08-19T11:08:46Z</time>
      </trkpt>
      <trkpt lat="42.669475" lon="-0.043551">
        <ele>2321.1</ele>
        <time>2018-08-19T11:09:15Z</time>
      </trkpt>
      <trkpt lat="42.669574" lon="-0.043619">
        <ele>2320.8</ele>
        <time>2018-08-19T11:09:29Z</time>
      </trkpt>
      <trkpt lat="42.669653" lon="-0.043678">
        <ele>2320.3</ele>
        <time>2018-08-19T11:09:44Z</time>
      </trkpt>
      <trkpt lat="42.669752" lon="-0.043701">
        <ele>2320.4</ele>
        <time>2018-08-19T11:10:03Z</time>
      </trkpt>
      <trkpt lat="42.669784" lon="-0.043639">
        <ele>2323.7</ele>
        <time>2018-08-19T11:10:28Z</time>
      </trkpt>
      <trkpt lat="42.669853" lon="-0.043547">
        <ele>2321.0</ele>
        <time>2018-08-19T11:10:45Z</time>
      </trkpt>
      <trkpt lat="42.669940" lon="-0.043582">
        <ele>2319.3</ele>
        <time>2018-08-19T11:10:58Z</time>
      </trkpt>
      <trkpt lat="42.669973" lon="-0.043489">
        <ele>2317.9</ele>
        <time>2018-08-19T11:11:15Z</time>
      </trkpt>
      <trkpt lat="42.670047" lon="-0.043470">
        <ele>2317.4</ele>
        <time>2018-08-19T11:11:27Z</time>
      </trkpt>
      <trkpt lat="42.670132" lon="-0.043428">
        <ele>2317.7</ele>
        <time>2018-08-19T11:11:44Z</time>
      </trkpt>
      <trkpt lat="42.670093" lon="-0.043292">
        <ele>2318.7</ele>
        <time>2018-08-19T11:11:55Z</time>
      </trkpt>
      <trkpt lat="42.670047" lon="-0.043191">
        <ele>2318.4</ele>
        <time>2018-08-19T11:12:08Z</time>
      </trkpt>
      <trkpt lat="42.669989" lon="-0.043083">
        <ele>2318.4</ele>
        <time>2018-08-19T11:12:17Z</time>
      </trkpt>
      <trkpt lat="42.670014" lon="-0.043016">
        <ele>2318.8</ele>
        <time>2018-08-19T11:12:31Z</time>
      </trkpt>
      <trkpt lat="42.670067" lon="-0.043003">
        <ele>2316.9</ele>
        <time>2018-08-19T11:13:05Z</time>
      </trkpt>
      <trkpt lat="42.670085" lon="-0.042953">
        <ele>2315.3</ele>
        <time>2018-08-19T11:13:37Z</time>
      </trkpt>
      <trkpt lat="42.670162" lon="-0.043054">
        <ele>2315.3</ele>
        <time>2018-08-19T11:13:50Z</time>
      </trkpt>
      <trkpt lat="42.670226" lon="-0.043146">
        <ele>2313.9</ele>
        <time>2018-08-19T11:14:00Z</time>
      </trkpt>
      <trkpt lat="42.670298" lon="-0.043020">
        <ele>2316.4</ele>
        <time>2018-08-19T11:15:48Z</time>
      </trkpt>
      <trkpt lat="42.670299" lon="-0.042957">
        <ele>2316.1</ele>
        <time>2018-08-19T11:16:43Z</time>
      </trkpt>
      <trkpt lat="42.670303" lon="-0.042852">
        <ele>2316.4</ele>
        <time>2018-08-19T11:17:05Z</time>
      </trkpt>
      <trkpt lat="42.670259" lon="-0.042735">
        <ele>2316.1</ele>
        <time>2018-08-19T11:17:17Z</time>
      </trkpt>
      <trkpt lat="42.670307" lon="-0.042652">
        <ele>2314.8</ele>
        <time>2018-08-19T11:17:31Z</time>
      </trkpt>
      <trkpt lat="42.670385" lon="-0.042698">
        <ele>2313.5</ele>
        <time>2018-08-19T11:17:50Z</time>
      </trkpt>
      <trkpt lat="42.670470" lon="-0.042633">
        <ele>2313.7</ele>
        <time>2018-08-19T11:18:03Z</time>
      </trkpt>
      <trkpt lat="42.670533" lon="-0.042582">
        <ele>2315.7</ele>
        <time>2018-08-19T11:18:16Z</time>
      </trkpt>
      <trkpt lat="42.670609" lon="-0.042615">
        <ele>2316.2</ele>
        <time>2018-08-19T11:18:31Z</time>
      </trkpt>
      <trkpt lat="42.670668" lon="-0.042643">
        <ele>2315.5</ele>
        <time>2018-08-19T11:18:44Z</time>
      </trkpt>
      <trkpt lat="42.670755" lon="-0.042603">
        <ele>2315.4</ele>
        <time>2018-08-19T11:18:57Z</time>
      </trkpt>
      <trkpt lat="42.670834" lon="-0.042672">
        <ele>2314.1</ele>
        <time>2018-08-19T11:19:04Z</time>
      </trkpt>
      <trkpt lat="42.670912" lon="-0.042601">
        <ele>2315.1</ele>
        <time>2018-08-19T11:19:18Z</time>
      </trkpt>
      <trkpt lat="42.670976" lon="-0.042480">
        <ele>2313.3</ele>
        <time>2018-08-19T11:19:50Z</time>
      </trkpt>
      <trkpt lat="42.671007" lon="-0.042357">
        <ele>2312.3</ele>
        <time>2018-08-19T11:20:00Z</time>
      </trkpt>
      <trkpt lat="42.671045" lon="-0.042247">
        <ele>2310.2</ele>
        <time>2018-08-19T11:20:12Z</time>
      </trkpt>
      <trkpt lat="42.671068" lon="-0.042137">
        <ele>2308.9</ele>
        <time>2018-08-19T11:20:24Z</time>
      </trkpt>
      <trkpt lat="42.671131" lon="-0.042075">
        <ele>2311.4</ele>
        <time>2018-08-19T11:20:36Z</time>
      </trkpt>
      <trkpt lat="42.671086" lon="-0.041961">
        <ele>2313.3</ele>
        <time>2018-08-19T11:20:49Z</time>
      </trkpt>
      <trkpt lat="42.671026" lon="-0.041858">
        <ele>2313.9</ele>
        <time>2018-08-19T11:21:01Z</time>
      </trkpt>
      <trkpt lat="42.670977" lon="-0.041734">
        <ele>2314.9</ele>
        <time>2018-08-19T11:21:12Z</time>
      </trkpt>
      <trkpt lat="42.670948" lon="-0.041616">
        <ele>2315.5</ele>
        <time>2018-08-19T11:21:23Z</time>
      </trkpt>
      <trkpt lat="42.670962" lon="-0.041499">
        <ele>2315.1</ele>
        <time>2018-08-19T11:21:53Z</time>
      </trkpt>
      <trkpt lat="42.671038" lon="-0.041421">
        <ele>2313.9</ele>
        <time>2018-08-19T11:22:08Z</time>
      </trkpt>
      <trkpt lat="42.671132" lon="-0.041491">
        <ele>2314.9</ele>
        <time>2018-08-19T11:22:21Z</time>
      </trkpt>
      <trkpt lat="42.671218" lon="-0.041455">
        <ele>2316.5</ele>
        <time>2018-08-19T11:22:35Z</time>
      </trkpt>
      <trkpt lat="42.671316" lon="-0.041441">
        <ele>2319.2</ele>
        <time>2018-08-19T11:22:52Z</time>
      </trkpt>
      <trkpt lat="42.671387" lon="-0.041368">
        <ele>2322.1</ele>
        <time>2018-08-19T11:23:08Z</time>
      </trkpt>
      <trkpt lat="42.671446" lon="-0.041288">
        <ele>2323.8</ele>
        <time>2018-08-19T11:23:25Z</time>
      </trkpt>
      <trkpt lat="42.671447" lon="-0.041211">
        <ele>2326.3</ele>
        <time>2018-08-19T11:23:55Z</time>
      </trkpt>
      <trkpt lat="42.671479" lon="-0.041124">
        <ele>2329.4</ele>
        <time>2018-08-19T11:24:19Z</time>
      </trkpt>
      <trkpt lat="42.671545" lon="-0.041178">
        <ele>2330.8</ele>
        <time>2018-08-19T11:24:31Z</time>
      </trkpt>
      <trkpt lat="42.671622" lon="-0.041251">
        <ele>2331.6</ele>
        <time>2018-08-19T11:24:42Z</time>
      </trkpt>
      <trkpt lat="42.671699" lon="-0.041310">
        <ele>2332.3</ele>
        <time>2018-08-19T11:24:53Z</time>
      </trkpt>
      <trkpt lat="42.671797" lon="-0.041314">
        <ele>2332.8</ele>
        <time>2018-08-19T11:25:04Z</time>
      </trkpt>
      <trkpt lat="42.671809" lon="-0.041291">
        <ele>2334.4</ele>
        <time>2018-08-19T11:29:27Z</time>
      </trkpt>
      <trkpt lat="42.671902" lon="-0.041367">
        <ele>2334.6</ele>
        <time>2018-08-19T11:29:57Z</time>
      </trkpt>
      <trkpt lat="42.671995" lon="-0.041354">
        <ele>2334.7</ele>
        <time>2018-08-19T11:30:11Z</time>
      </trkpt>
      <trkpt lat="42.672087" lon="-0.041359">
        <ele>2334.7</ele>
        <time>2018-08-19T11:30:26Z</time>
      </trkpt>
      <trkpt lat="42.672181" lon="-0.041392">
        <ele>2335.7</ele>
        <time>2018-08-19T11:30:38Z</time>
      </trkpt>
      <trkpt lat="42.672267" lon="-0.041423">
        <ele>2337.4</ele>
        <time>2018-08-19T11:30:51Z</time>
      </trkpt>
      <trkpt lat="42.672373" lon="-0.041468">
        <ele>2339.3</ele>
        <time>2018-08-19T11:31:12Z</time>
      </trkpt>
      <trkpt lat="42.672476" lon="-0.041508">
        <ele>2341.7</ele>
        <time>2018-08-19T11:31:26Z</time>
      </trkpt>
      <trkpt lat="42.672574" lon="-0.041556">
        <ele>2343.8</ele>
        <time>2018-08-19T11:31:41Z</time>
      </trkpt>
      <trkpt lat="42.672669" lon="-0.041604">
        <ele>2345.8</ele>
        <time>2018-08-19T11:31:57Z</time>
      </trkpt>
      <trkpt lat="42.672770" lon="-0.041639">
        <ele>2348.4</ele>
        <time>2018-08-19T11:32:11Z</time>
      </trkpt>
      <trkpt lat="42.672867" lon="-0.041675">
        <ele>2351.5</ele>
        <time>2018-08-19T11:32:28Z</time>
      </trkpt>
      <trkpt lat="42.672971" lon="-0.041715">
        <ele>2353.7</ele>
        <time>2018-08-19T11:32:45Z</time>
      </trkpt>
      <trkpt lat="42.673065" lon="-0.041709">
        <ele>2354.0</ele>
        <time>2018-08-19T11:32:55Z</time>
      </trkpt>
      <trkpt lat="42.673154" lon="-0.041742">
        <ele>2353.9</ele>
        <time>2018-08-19T11:33:04Z</time>
      </trkpt>
      <trkpt lat="42.673251" lon="-0.041746">
        <ele>2353.6</ele>
        <time>2018-08-19T11:33:20Z</time>
      </trkpt>
      <trkpt lat="42.673348" lon="-0.041767">
        <ele>2353.6</ele>
        <time>2018-08-19T11:33:30Z</time>
      </trkpt>
      <trkpt lat="42.673438" lon="-0.041756">
        <ele>2353.4</ele>
        <time>2018-08-19T11:33:38Z</time>
      </trkpt>
      <trkpt lat="42.673525" lon="-0.041762">
        <ele>2353.7</ele>
        <time>2018-08-19T11:33:47Z</time>
      </trkpt>
      <trkpt lat="42.673609" lon="-0.041702">
        <ele>2353.9</ele>
        <time>2018-08-19T11:33:57Z</time>
      </trkpt>
      <trkpt lat="42.673708" lon="-0.041669">
        <ele>2354.2</ele>
        <time>2018-08-19T11:34:07Z</time>
      </trkpt>
      <trkpt lat="42.673801" lon="-0.041631">
        <ele>2353.6</ele>
        <time>2018-08-19T11:34:21Z</time>
      </trkpt>
      <trkpt lat="42.673902" lon="-0.041582">
        <ele>2353.8</ele>
        <time>2018-08-19T11:34:32Z</time>
      </trkpt>
      <trkpt lat="42.673994" lon="-0.041552">
        <ele>2354.5</ele>
        <time>2018-08-19T11:34:42Z</time>
      </trkpt>
      <trkpt lat="42.674072" lon="-0.041513">
        <ele>2354.2</ele>
        <time>2018-08-19T11:34:50Z</time>
      </trkpt>
      <trkpt lat="42.674157" lon="-0.041486">
        <ele>2354.2</ele>
        <time>2018-08-19T11:34:58Z</time>
      </trkpt>
      <trkpt lat="42.674247" lon="-0.041463">
        <ele>2354.2</ele>
        <time>2018-08-19T11:35:06Z</time>
      </trkpt>
      <trkpt lat="42.674345" lon="-0.041421">
        <ele>2354.6</ele>
        <time>2018-08-19T11:35:15Z</time>
      </trkpt>
      <trkpt lat="42.674432" lon="-0.041384">
        <ele>2354.1</ele>
        <time>2018-08-19T11:35:23Z</time>
      </trkpt>
      <trkpt lat="42.674520" lon="-0.041340">
        <ele>2354.0</ele>
        <time>2018-08-19T11:35:33Z</time>
      </trkpt>
      <trkpt lat="42.674615" lon="-0.041329">
        <ele>2354.0</ele>
        <time>2018-08-19T11:35:43Z</time>
      </trkpt>
      <trkpt lat="42.674707" lon="-0.041318">
        <ele>2354.0</ele>
        <time>2018-08-19T11:36:08Z</time>
      </trkpt>
      <trkpt lat="42.674792" lon="-0.041269">
        <ele>2354.0</ele>
        <time>2018-08-19T11:36:21Z</time>
      </trkpt>
      <trkpt lat="42.674885" lon="-0.041218">
        <ele>2353.8</ele>
        <time>2018-08-19T11:36:29Z</time>
      </trkpt>
      <trkpt lat="42.674977" lon="-0.041173">
        <ele>2353.9</ele>
        <time>2018-08-19T11:36:37Z</time>
      </trkpt>
      <trkpt lat="42.675065" lon="-0.041117">
        <ele>2353.8</ele>
        <time>2018-08-19T11:36:44Z</time>
      </trkpt>
      <trkpt lat="42.675165" lon="-0.041085">
        <ele>2354.2</ele>
        <time>2018-08-19T11:36:51Z</time>
      </trkpt>
      <trkpt lat="42.675263" lon="-0.041033">
        <ele>2354.2</ele>
        <time>2018-08-19T11:36:58Z</time>
      </trkpt>
      <trkpt lat="42.675358" lon="-0.041011">
        <ele>2354.2</ele>
        <time>2018-08-19T11:37:04Z</time>
      </trkpt>
      <trkpt lat="42.675455" lon="-0.040985">
        <ele>2354.4</ele>
        <time>2018-08-19T11:37:11Z</time>
      </trkpt>
      <trkpt lat="42.675550" lon="-0.040967">
        <ele>2354.8</ele>
        <time>2018-08-19T11:37:18Z</time>
      </trkpt>
      <trkpt lat="42.675642" lon="-0.040929">
        <ele>2354.9</ele>
        <time>2018-08-19T11:37:24Z</time>
      </trkpt>
      <trkpt lat="42.675735" lon="-0.040878">
        <ele>2355.0</ele>
        <time>2018-08-19T11:37:31Z</time>
      </trkpt>
      <trkpt lat="42.675834" lon="-0.040840">
        <ele>2354.7</ele>
        <time>2018-08-19T11:37:39Z</time>
      </trkpt>
      <trkpt lat="42.675920" lon="-0.040807">
        <ele>2354.8</ele>
        <time>2018-08-19T11:37:47Z</time>
      </trkpt>
      <trkpt lat="42.676023" lon="-0.040782">
        <ele>2354.8</ele>
        <time>2018-08-19T11:37:55Z</time>
      </trkpt>
      <trkpt lat="42.676118" lon="-0.040742">
        <ele>2355.1</ele>
        <time>2018-08-19T11:38:03Z</time>
      </trkpt>
      <trkpt lat="42.676202" lon="-0.040722">
        <ele>2355.6</ele>
        <time>2018-08-19T11:38:11Z</time>
      </trkpt>
      <trkpt lat="42.676305" lon="-0.040692">
        <ele>2355.8</ele>
        <time>2018-08-19T11:38:20Z</time>
      </trkpt>
      <trkpt lat="42.676403" lon="-0.040678">
        <ele>2356.1</ele>
        <time>2018-08-19T11:38:29Z</time>
      </trkpt>
      <trkpt lat="42.676485" lon="-0.040621">
        <ele>2356.3</ele>
        <time>2018-08-19T11:38:36Z</time>
      </trkpt>
      <trkpt lat="42.676584" lon="-0.040603">
        <ele>2356.3</ele>
        <time>2018-08-19T11:38:45Z</time>
      </trkpt>
      <trkpt lat="42.676680" lon="-0.040569">
        <ele>2356.8</ele>
        <time>2018-08-19T11:38:52Z</time>
      </trkpt>
      <trkpt lat="42.676781" lon="-0.040558">
        <ele>2357.2</ele>
        <time>2018-08-19T11:39:00Z</time>
      </trkpt>
      <trkpt lat="42.676888" lon="-0.040553">
        <ele>2357.4</ele>
        <time>2018-08-19T11:39:09Z</time>
      </trkpt>
      <trkpt lat="42.676984" lon="-0.040509">
        <ele>2358.1</ele>
        <time>2018-08-19T11:39:18Z</time>
      </trkpt>
      <trkpt lat="42.677052" lon="-0.040512">
        <ele>2358.4</ele>
        <time>2018-08-19T11:40:31Z</time>
      </trkpt>
      <trkpt lat="42.677156" lon="-0.040476">
        <ele>2358.6</ele>
        <time>2018-08-19T11:40:41Z</time>
      </trkpt>
      <trkpt lat="42.677246" lon="-0.040446">
        <ele>2358.7</ele>
        <time>2018-08-19T11:40:49Z</time>
      </trkpt>
      <trkpt lat="42.677337" lon="-0.040406">
        <ele>2358.6</ele>
        <time>2018-08-19T11:40:58Z</time>
      </trkpt>
      <trkpt lat="42.677429" lon="-0.040364">
        <ele>2358.7</ele>
        <time>2018-08-19T11:41:06Z</time>
      </trkpt>
      <trkpt lat="42.677518" lon="-0.040336">
        <ele>2359.2</ele>
        <time>2018-08-19T11:41:14Z</time>
      </trkpt>
      <trkpt lat="42.677623" lon="-0.040310">
        <ele>2359.5</ele>
        <time>2018-08-19T11:41:23Z</time>
      </trkpt>
      <trkpt lat="42.677723" lon="-0.040285">
        <ele>2359.8</ele>
        <time>2018-08-19T11:41:32Z</time>
      </trkpt>
      <trkpt lat="42.677827" lon="-0.040239">
        <ele>2359.9</ele>
        <time>2018-08-19T11:41:42Z</time>
      </trkpt>
      <trkpt lat="42.677915" lon="-0.040154">
        <ele>2364.3</ele>
        <time>2018-08-19T11:42:01Z</time>
      </trkpt>
      <trkpt lat="42.677998" lon="-0.040160">
        <ele>2367.0</ele>
        <time>2018-08-19T11:42:16Z</time>
      </trkpt>
      <trkpt lat="42.678074" lon="-0.040155">
        <ele>2370.9</ele>
        <time>2018-08-19T11:42:34Z</time>
      </trkpt>
      <trkpt lat="42.678106" lon="-0.040073">
        <ele>2374.0</ele>
        <time>2018-08-19T11:42:52Z</time>
      </trkpt>
      <trkpt lat="42.678103" lon="-0.039978">
        <ele>2376.2</ele>
        <time>2018-08-19T11:43:07Z</time>
      </trkpt>
      <trkpt lat="42.678198" lon="-0.039956">
        <ele>2379.4</ele>
        <time>2018-08-19T11:43:22Z</time>
      </trkpt>
      <trkpt lat="42.678283" lon="-0.039886">
        <ele>2382.5</ele>
        <time>2018-08-19T11:43:36Z</time>
      </trkpt>
      <trkpt lat="42.678343" lon="-0.039864">
        <ele>2386.2</ele>
        <time>2018-08-19T11:43:54Z</time>
      </trkpt>
      <trkpt lat="42.678364" lon="-0.039902">
        <ele>2390.4</ele>
        <time>2018-08-19T11:44:24Z</time>
      </trkpt>
      <trkpt lat="42.678375" lon="-0.039880">
        <ele>2393.7</ele>
        <time>2018-08-19T11:44:58Z</time>
      </trkpt>
      <trkpt lat="42.678375" lon="-0.039875">
        <ele>2395.3</ele>
        <time>2018-08-19T11:45:24Z</time>
      </trkpt>
      <trkpt lat="42.678377" lon="-0.039893">
        <ele>2394.8</ele>
        <time>2018-08-19T11:46:18Z</time>
      </trkpt>
      <trkpt lat="42.678424" lon="-0.039868">
        <ele>2399.1</ele>
        <time>2018-08-19T11:47:38Z</time>
      </trkpt>
      <trkpt lat="42.678487" lon="-0.039865">
        <ele>2403.9</ele>
        <time>2018-08-19T11:48:00Z</time>
      </trkpt>
      <trkpt lat="42.678551" lon="-0.039904">
        <ele>2406.6</ele>
        <time>2018-08-19T11:48:18Z</time>
      </trkpt>
      <trkpt lat="42.678642" lon="-0.039911">
        <ele>2408.0</ele>
        <time>2018-08-19T11:48:29Z</time>
      </trkpt>
      <trkpt lat="42.678716" lon="-0.039961">
        <ele>2408.3</ele>
        <time>2018-08-19T11:48:40Z</time>
      </trkpt>
      <trkpt lat="42.678808" lon="-0.039967">
        <ele>2407.7</ele>
        <time>2018-08-19T11:48:50Z</time>
      </trkpt>
      <trkpt lat="42.678884" lon="-0.039895">
        <ele>2406.2</ele>
        <time>2018-08-19T11:48:59Z</time>
      </trkpt>
      <trkpt lat="42.678969" lon="-0.039815">
        <ele>2405.3</ele>
        <time>2018-08-19T11:49:09Z</time>
      </trkpt>
      <trkpt lat="42.679063" lon="-0.039761">
        <ele>2405.3</ele>
        <time>2018-08-19T11:49:19Z</time>
      </trkpt>
      <trkpt lat="42.679144" lon="-0.039711">
        <ele>2404.9</ele>
        <time>2018-08-19T11:49:27Z</time>
      </trkpt>
      <trkpt lat="42.679228" lon="-0.039643">
        <ele>2404.7</ele>
        <time>2018-08-19T11:49:36Z</time>
      </trkpt>
      <trkpt lat="42.679301" lon="-0.039570">
        <ele>2404.7</ele>
        <time>2018-08-19T11:49:45Z</time>
      </trkpt>
      <trkpt lat="42.679363" lon="-0.039476">
        <ele>2404.1</ele>
        <time>2018-08-19T11:50:03Z</time>
      </trkpt>
      <trkpt lat="42.679417" lon="-0.039376">
        <ele>2404.3</ele>
        <time>2018-08-19T11:50:13Z</time>
      </trkpt>
      <trkpt lat="42.679498" lon="-0.039295">
        <ele>2404.2</ele>
        <time>2018-08-19T11:50:30Z</time>
      </trkpt>
      <trkpt lat="42.679587" lon="-0.039228">
        <ele>2403.9</ele>
        <time>2018-08-19T11:50:38Z</time>
      </trkpt>
      <trkpt lat="42.679670" lon="-0.039169">
        <ele>2403.9</ele>
        <time>2018-08-19T11:50:45Z</time>
      </trkpt>
      <trkpt lat="42.679757" lon="-0.039098">
        <ele>2403.9</ele>
        <time>2018-08-19T11:50:53Z</time>
      </trkpt>
      <trkpt lat="42.679837" lon="-0.039035">
        <ele>2404.2</ele>
        <time>2018-08-19T11:51:00Z</time>
      </trkpt>
      <trkpt lat="42.679915" lon="-0.038975">
        <ele>2403.5</ele>
        <time>2018-08-19T11:51:08Z</time>
      </trkpt>
      <trkpt lat="42.679969" lon="-0.038897">
        <ele>2404.3</ele>
        <time>2018-08-19T11:51:16Z</time>
      </trkpt>
      <trkpt lat="42.680042" lon="-0.038800">
        <ele>2404.8</ele>
        <time>2018-08-19T11:51:23Z</time>
      </trkpt>
      <trkpt lat="42.680118" lon="-0.038726">
        <ele>2404.9</ele>
        <time>2018-08-19T11:51:30Z</time>
      </trkpt>
      <trkpt lat="42.680195" lon="-0.038658">
        <ele>2405.0</ele>
        <time>2018-08-19T11:51:37Z</time>
      </trkpt>
      <trkpt lat="42.680268" lon="-0.038588">
        <ele>2405.9</ele>
        <time>2018-08-19T11:51:45Z</time>
      </trkpt>
      <trkpt lat="42.680352" lon="-0.038543">
        <ele>2406.9</ele>
        <time>2018-08-19T11:51:52Z</time>
      </trkpt>
      <trkpt lat="42.680422" lon="-0.038469">
        <ele>2407.8</ele>
        <time>2018-08-19T11:52:00Z</time>
      </trkpt>
      <trkpt lat="42.680500" lon="-0.038395">
        <ele>2409.1</ele>
        <time>2018-08-19T11:52:12Z</time>
      </trkpt>
      <trkpt lat="42.680576" lon="-0.038325">
        <ele>2409.3</ele>
        <time>2018-08-19T11:52:21Z</time>
      </trkpt>
      <trkpt lat="42.680654" lon="-0.038256">
        <ele>2410.4</ele>
        <time>2018-08-19T11:52:29Z</time>
      </trkpt>
      <trkpt lat="42.680738" lon="-0.038172">
        <ele>2411.0</ele>
        <time>2018-08-19T11:52:38Z</time>
      </trkpt>
      <trkpt lat="42.680807" lon="-0.038091">
        <ele>2411.5</ele>
        <time>2018-08-19T11:52:48Z</time>
      </trkpt>
      <trkpt lat="42.680873" lon="-0.038038">
        <ele>2412.8</ele>
        <time>2018-08-19T11:53:12Z</time>
      </trkpt>
      <trkpt lat="42.680950" lon="-0.037938">
        <ele>2413.9</ele>
        <time>2018-08-19T11:53:22Z</time>
      </trkpt>
      <trkpt lat="42.681011" lon="-0.037835">
        <ele>2414.3</ele>
        <time>2018-08-19T11:53:30Z</time>
      </trkpt>
      <trkpt lat="42.681052" lon="-0.037699">
        <ele>2415.1</ele>
        <time>2018-08-19T11:53:38Z</time>
      </trkpt>
      <trkpt lat="42.681122" lon="-0.037613">
        <ele>2416.3</ele>
        <time>2018-08-19T11:53:47Z</time>
      </trkpt>
      <trkpt lat="42.681198" lon="-0.037539">
        <ele>2418.1</ele>
        <time>2018-08-19T11:53:56Z</time>
      </trkpt>
      <trkpt lat="42.681253" lon="-0.037420">
        <ele>2420.5</ele>
        <time>2018-08-19T11:54:05Z</time>
      </trkpt>
      <trkpt lat="42.681318" lon="-0.037302">
        <ele>2423.0</ele>
        <time>2018-08-19T11:54:17Z</time>
      </trkpt>
      <trkpt lat="42.681363" lon="-0.037185">
        <ele>2427.0</ele>
        <time>2018-08-19T11:54:38Z</time>
      </trkpt>
      <trkpt lat="42.681382" lon="-0.037048">
        <ele>2429.5</ele>
        <time>2018-08-19T11:54:52Z</time>
      </trkpt>
      <trkpt lat="42.681456" lon="-0.036979">
        <ele>2433.4</ele>
        <time>2018-08-19T11:55:13Z</time>
      </trkpt>
      <trkpt lat="42.681529" lon="-0.036940">
        <ele>2437.3</ele>
        <time>2018-08-19T11:55:36Z</time>
      </trkpt>
      <trkpt lat="42.681538" lon="-0.036806">
        <ele>2440.1</ele>
        <time>2018-08-19T11:55:51Z</time>
      </trkpt>
      <trkpt lat="42.681606" lon="-0.036822">
        <ele>2442.8</ele>
        <time>2018-08-19T11:56:08Z</time>
      </trkpt>
      <trkpt lat="42.681672" lon="-0.036719">
        <ele>2444.5</ele>
        <time>2018-08-19T11:56:23Z</time>
      </trkpt>
      <trkpt lat="42.681731" lon="-0.036610">
        <ele>2446.0</ele>
        <time>2018-08-19T11:56:38Z</time>
      </trkpt>
      <trkpt lat="42.681792" lon="-0.036559">
        <ele>2449.2</ele>
        <time>2018-08-19T11:56:58Z</time>
      </trkpt>
      <trkpt lat="42.681863" lon="-0.036470">
        <ele>2451.9</ele>
        <time>2018-08-19T11:57:16Z</time>
      </trkpt>
      <trkpt lat="42.681914" lon="-0.036365">
        <ele>2453.7</ele>
        <time>2018-08-19T11:57:43Z</time>
      </trkpt>
      <trkpt lat="42.681971" lon="-0.036237">
        <ele>2454.3</ele>
        <time>2018-08-19T11:57:55Z</time>
      </trkpt>
      <trkpt lat="42.681994" lon="-0.036091">
        <ele>2454.6</ele>
        <time>2018-08-19T11:58:05Z</time>
      </trkpt>
      <trkpt lat="42.681992" lon="-0.035968">
        <ele>2455.1</ele>
        <time>2018-08-19T11:58:14Z</time>
      </trkpt>
      <trkpt lat="42.681989" lon="-0.035833">
        <ele>2456.1</ele>
        <time>2018-08-19T11:58:24Z</time>
      </trkpt>
      <trkpt lat="42.682008" lon="-0.035719">
        <ele>2456.2</ele>
        <time>2018-08-19T11:58:34Z</time>
      </trkpt>
      <trkpt lat="42.681998" lon="-0.035589">
        <ele>2457.6</ele>
        <time>2018-08-19T12:04:15Z</time>
      </trkpt>
      <trkpt lat="42.681997" lon="-0.035447">
        <ele>2459.1</ele>
        <time>2018-08-19T12:04:28Z</time>
      </trkpt>
      <trkpt lat="42.682001" lon="-0.035315">
        <ele>2460.6</ele>
        <time>2018-08-19T12:04:39Z</time>
      </trkpt>
      <trkpt lat="42.682004" lon="-0.035175">
        <ele>2462.3</ele>
        <time>2018-08-19T12:04:51Z</time>
      </trkpt>
      <trkpt lat="42.682019" lon="-0.035037">
        <ele>2464.3</ele>
        <time>2018-08-19T12:05:03Z</time>
      </trkpt>
      <trkpt lat="42.681990" lon="-0.034906">
        <ele>2467.1</ele>
        <time>2018-08-19T12:05:19Z</time>
      </trkpt>
      <trkpt lat="42.681991" lon="-0.034786">
        <ele>2468.7</ele>
        <time>2018-08-19T12:05:44Z</time>
      </trkpt>
      <trkpt lat="42.682019" lon="-0.034658">
        <ele>2470.1</ele>
        <time>2018-08-19T12:05:58Z</time>
      </trkpt>
      <trkpt lat="42.682010" lon="-0.034534">
        <ele>2473.1</ele>
        <time>2018-08-19T12:06:14Z</time>
      </trkpt>
      <trkpt lat="42.682007" lon="-0.034411">
        <ele>2474.8</ele>
        <time>2018-08-19T12:06:27Z</time>
      </trkpt>
      <trkpt lat="42.681969" lon="-0.034301">
        <ele>2477.9</ele>
        <time>2018-08-19T12:06:43Z</time>
      </trkpt>
      <trkpt lat="42.681967" lon="-0.034176">
        <ele>2482.2</ele>
        <time>2018-08-19T12:07:05Z</time>
      </trkpt>
      <trkpt lat="42.681946" lon="-0.034051">
        <ele>2485.8</ele>
        <time>2018-08-19T12:07:24Z</time>
      </trkpt>
      <trkpt lat="42.682128" lon="-0.033872">
        <ele>2502.1</ele>
        <time>2018-08-19T12:10:10Z</time>
      </trkpt>
      <trkpt lat="42.682188" lon="-0.033762">
        <ele>2500.1</ele>
        <time>2018-08-19T12:10:32Z</time>
      </trkpt>
      <trkpt lat="42.682221" lon="-0.033646">
        <ele>2497.8</ele>
        <time>2018-08-19T12:10:47Z</time>
      </trkpt>
      <trkpt lat="42.682267" lon="-0.033534">
        <ele>2496.8</ele>
        <time>2018-08-19T12:10:57Z</time>
      </trkpt>
      <trkpt lat="42.682339" lon="-0.033473">
        <ele>2496.9</ele>
        <time>2018-08-19T12:11:11Z</time>
      </trkpt>
      <trkpt lat="42.682413" lon="-0.033407">
        <ele>2500.1</ele>
        <time>2018-08-19T12:11:32Z</time>
      </trkpt>
      <trkpt lat="42.682494" lon="-0.033492">
        <ele>2501.4</ele>
        <time>2018-08-19T12:11:51Z</time>
      </trkpt>
      <trkpt lat="42.682565" lon="-0.033522">
        <ele>2501.9</ele>
        <time>2018-08-19T12:12:11Z</time>
      </trkpt>
      <trkpt lat="42.682588" lon="-0.033624">
        <ele>2505.9</ele>
        <time>2018-08-19T12:12:37Z</time>
      </trkpt>
      <trkpt lat="42.682652" lon="-0.033631">
        <ele>2508.3</ele>
        <time>2018-08-19T12:12:55Z</time>
      </trkpt>
      <trkpt lat="42.682740" lon="-0.033615">
        <ele>2511.1</ele>
        <time>2018-08-19T12:13:23Z</time>
      </trkpt>
      <trkpt lat="42.682832" lon="-0.033588">
        <ele>2513.5</ele>
        <time>2018-08-19T12:13:57Z</time>
      </trkpt>
      <trkpt lat="42.682849" lon="-0.033721">
        <ele>2513.6</ele>
        <time>2018-08-19T12:14:14Z</time>
      </trkpt>
      <trkpt lat="42.682920" lon="-0.033723">
        <ele>2516.2</ele>
        <time>2018-08-19T12:14:32Z</time>
      </trkpt>
      <trkpt lat="42.683010" lon="-0.033740">
        <ele>2520.4</ele>
        <time>2018-08-19T12:14:53Z</time>
      </trkpt>
      <trkpt lat="42.683086" lon="-0.033702">
        <ele>2522.8</ele>
        <time>2018-08-19T12:15:18Z</time>
      </trkpt>
      <trkpt lat="42.683147" lon="-0.033795">
        <ele>2524.3</ele>
        <time>2018-08-19T12:15:38Z</time>
      </trkpt>
      <trkpt lat="42.683234" lon="-0.033859">
        <ele>2527.3</ele>
        <time>2018-08-19T12:15:57Z</time>
      </trkpt>
      <trkpt lat="42.683299" lon="-0.033972">
        <ele>2529.8</ele>
        <time>2018-08-19T12:16:14Z</time>
      </trkpt>
      <trkpt lat="42.683385" lon="-0.034001">
        <ele>2531.7</ele>
        <time>2018-08-19T12:16:34Z</time>
      </trkpt>
      <trkpt lat="42.683470" lon="-0.034042">
        <ele>2534.9</ele>
        <time>2018-08-19T12:16:55Z</time>
      </trkpt>
      <trkpt lat="42.683503" lon="-0.034080">
        <ele>2536.8</ele>
        <time>2018-08-19T12:18:04Z</time>
      </trkpt>
      <trkpt lat="42.683609" lon="-0.034064">
        <ele>2538.6</ele>
        <time>2018-08-19T12:18:23Z</time>
      </trkpt>
      <trkpt lat="42.683705" lon="-0.034080">
        <ele>2540.9</ele>
        <time>2018-08-19T12:18:38Z</time>
      </trkpt>
      <trkpt lat="42.683781" lon="-0.034099">
        <ele>2544.4</ele>
        <time>2018-08-19T12:19:02Z</time>
      </trkpt>
      <trkpt lat="42.683861" lon="-0.034037">
        <ele>2546.8</ele>
        <time>2018-08-19T12:19:20Z</time>
      </trkpt>
      <trkpt lat="42.683915" lon="-0.034070">
        <ele>2549.1</ele>
        <time>2018-08-19T12:19:44Z</time>
      </trkpt>
      <trkpt lat="42.683949" lon="-0.034182">
        <ele>2551.7</ele>
        <time>2018-08-19T12:20:05Z</time>
      </trkpt>
      <trkpt lat="42.684034" lon="-0.034173">
        <ele>2556.0</ele>
        <time>2018-08-19T12:20:31Z</time>
      </trkpt>
      <trkpt lat="42.684122" lon="-0.034145">
        <ele>2559.4</ele>
        <time>2018-08-19T12:20:53Z</time>
      </trkpt>
      <trkpt lat="42.684214" lon="-0.034155">
        <ele>2562.3</ele>
        <time>2018-08-19T12:21:11Z</time>
      </trkpt>
      <trkpt lat="42.684285" lon="-0.034187">
        <ele>2564.8</ele>
        <time>2018-08-19T12:21:31Z</time>
      </trkpt>
      <trkpt lat="42.684372" lon="-0.034150">
        <ele>2568.0</ele>
        <time>2018-08-19T12:22:33Z</time>
      </trkpt>
      <trkpt lat="42.684421" lon="-0.034054">
        <ele>2569.1</ele>
        <time>2018-08-19T12:22:49Z</time>
      </trkpt>
      <trkpt lat="42.684463" lon="-0.033927">
        <ele>2570.0</ele>
        <time>2018-08-19T12:23:03Z</time>
      </trkpt>
      <trkpt lat="42.684526" lon="-0.033831">
        <ele>2571.0</ele>
        <time>2018-08-19T12:23:15Z</time>
      </trkpt>
      <trkpt lat="42.684611" lon="-0.033772">
        <ele>2571.4</ele>
        <time>2018-08-19T12:23:27Z</time>
      </trkpt>
      <trkpt lat="42.684673" lon="-0.033645">
        <ele>2570.8</ele>
        <time>2018-08-19T12:23:40Z</time>
      </trkpt>
      <trkpt lat="42.684712" lon="-0.033567">
        <ele>2571.3</ele>
        <time>2018-08-19T12:24:00Z</time>
      </trkpt>
      <trkpt lat="42.684759" lon="-0.033516">
        <ele>2572.8</ele>
        <time>2018-08-19T12:24:27Z</time>
      </trkpt>
      <trkpt lat="42.684861" lon="-0.033516">
        <ele>2572.9</ele>
        <time>2018-08-19T12:24:41Z</time>
      </trkpt>
      <trkpt lat="42.684967" lon="-0.033470">
        <ele>2573.8</ele>
        <time>2018-08-19T12:24:55Z</time>
      </trkpt>
      <trkpt lat="42.685019" lon="-0.033378">
        <ele>2574.3</ele>
        <time>2018-08-19T12:25:41Z</time>
      </trkpt>
      <trkpt lat="42.685063" lon="-0.033264">
        <ele>2574.7</ele>
        <time>2018-08-19T12:25:54Z</time>
      </trkpt>
      <trkpt lat="42.685135" lon="-0.033155">
        <ele>2575.3</ele>
        <time>2018-08-19T12:26:05Z</time>
      </trkpt>
      <trkpt lat="42.685209" lon="-0.033076">
        <ele>2575.7</ele>
        <time>2018-08-19T12:26:16Z</time>
      </trkpt>
      <trkpt lat="42.685248" lon="-0.032959">
        <ele>2575.8</ele>
        <time>2018-08-19T12:26:27Z</time>
      </trkpt>
      <trkpt lat="42.685303" lon="-0.032856">
        <ele>2576.3</ele>
        <time>2018-08-19T12:26:40Z</time>
      </trkpt>
      <trkpt lat="42.685355" lon="-0.032785">
        <ele>2577.1</ele>
        <time>2018-08-19T12:27:07Z</time>
      </trkpt>
      <trkpt lat="42.685419" lon="-0.032697">
        <ele>2577.3</ele>
        <time>2018-08-19T12:27:23Z</time>
      </trkpt>
      <trkpt lat="42.685504" lon="-0.032684">
        <ele>2577.8</ele>
        <time>2018-08-19T12:27:36Z</time>
      </trkpt>
      <trkpt lat="42.685590" lon="-0.032663">
        <ele>2578.1</ele>
        <time>2018-08-19T12:27:48Z</time>
      </trkpt>
      <trkpt lat="42.685669" lon="-0.032658">
        <ele>2579.3</ele>
        <time>2018-08-19T12:28:00Z</time>
      </trkpt>
      <trkpt lat="42.685747" lon="-0.032666">
        <ele>2580.1</ele>
        <time>2018-08-19T12:28:14Z</time>
      </trkpt>
      <trkpt lat="42.685806" lon="-0.032756">
        <ele>2581.4</ele>
        <time>2018-08-19T12:28:28Z</time>
      </trkpt>
      <trkpt lat="42.685891" lon="-0.032716">
        <ele>2581.8</ele>
        <time>2018-08-19T12:28:42Z</time>
      </trkpt>
      <trkpt lat="42.685944" lon="-0.032615">
        <ele>2582.0</ele>
        <time>2018-08-19T12:29:00Z</time>
      </trkpt>
      <trkpt lat="42.685976" lon="-0.032508">
        <ele>2581.9</ele>
        <time>2018-08-19T12:29:19Z</time>
      </trkpt>
      <trkpt lat="42.685946" lon="-0.032456">
        <ele>2582.9</ele>
        <time>2018-08-19T12:29:45Z</time>
      </trkpt>
      <trkpt lat="42.685966" lon="-0.032353">
        <ele>2585.9</ele>
        <time>2018-08-19T12:30:08Z</time>
      </trkpt>
      <trkpt lat="42.686020" lon="-0.032290">
        <ele>2587.3</ele>
        <time>2018-08-19T12:30:22Z</time>
      </trkpt>
      <trkpt lat="42.686043" lon="-0.032267">
        <ele>2589.8</ele>
        <time>2018-08-19T12:30:36Z</time>
      </trkpt>
      <trkpt lat="42.686112" lon="-0.032202">
        <ele>2591.7</ele>
        <time>2018-08-19T12:30:58Z</time>
      </trkpt>
      <trkpt lat="42.686121" lon="-0.032158">
        <ele>2593.9</ele>
        <time>2018-08-19T12:31:31Z</time>
      </trkpt>
      <trkpt lat="42.686179" lon="-0.032122">
        <ele>2595.6</ele>
        <time>2018-08-19T12:32:02Z</time>
      </trkpt>
      <trkpt lat="42.686161" lon="-0.032027">
        <ele>2600.2</ele>
        <time>2018-08-19T12:32:26Z</time>
      </trkpt>
      <trkpt lat="42.686236" lon="-0.031922">
        <ele>2607.4</ele>
        <time>2018-08-19T12:35:35Z</time>
      </trkpt>
      <trkpt lat="42.686324" lon="-0.031854">
        <ele>2610.1</ele>
        <time>2018-08-19T12:35:51Z</time>
      </trkpt>
      <trkpt lat="42.686419" lon="-0.031813">
        <ele>2612.5</ele>
        <time>2018-08-19T12:36:07Z</time>
      </trkpt>
      <trkpt lat="42.686507" lon="-0.031739">
        <ele>2614.2</ele>
        <time>2018-08-19T12:36:22Z</time>
      </trkpt>
      <trkpt lat="42.686594" lon="-0.031719">
        <ele>2615.8</ele>
        <time>2018-08-19T12:36:36Z</time>
      </trkpt>
      <trkpt lat="42.686700" lon="-0.031739">
        <ele>2618.5</ele>
        <time>2018-08-19T12:36:54Z</time>
      </trkpt>
      <trkpt lat="42.686807" lon="-0.031755">
        <ele>2619.9</ele>
        <time>2018-08-19T12:37:09Z</time>
      </trkpt>
      <trkpt lat="42.686907" lon="-0.031780">
        <ele>2620.8</ele>
        <time>2018-08-19T12:37:20Z</time>
      </trkpt>
      <trkpt lat="42.687000" lon="-0.031743">
        <ele>2623.0</ele>
        <time>2018-08-19T12:37:39Z</time>
      </trkpt>
      <trkpt lat="42.687086" lon="-0.031683">
        <ele>2626.2</ele>
        <time>2018-08-19T12:37:58Z</time>
      </trkpt>
      <trkpt lat="42.687170" lon="-0.031608">
        <ele>2631.6</ele>
        <time>2018-08-19T12:38:27Z</time>
      </trkpt>
      <trkpt lat="42.687266" lon="-0.031557">
        <ele>2635.2</ele>
        <time>2018-08-19T12:38:47Z</time>
      </trkpt>
      <trkpt lat="42.687379" lon="-0.031521">
        <ele>2637.7</ele>
        <time>2018-08-19T12:39:03Z</time>
      </trkpt>
      <trkpt lat="42.687492" lon="-0.031459">
        <ele>2639.1</ele>
        <time>2018-08-19T12:39:21Z</time>
      </trkpt>
      <trkpt lat="42.687603" lon="-0.031390">
        <ele>2643.2</ele>
        <time>2018-08-19T12:39:44Z</time>
      </trkpt>
      <trkpt lat="42.687703" lon="-0.031393">
        <ele>2645.3</ele>
        <time>2018-08-19T12:40:02Z</time>
      </trkpt>
      <trkpt lat="42.687797" lon="-0.031403">
        <ele>2647.9</ele>
        <time>2018-08-19T12:40:22Z</time>
      </trkpt>
      <trkpt lat="42.687892" lon="-0.031382">
        <ele>2652.5</ele>
        <time>2018-08-19T12:40:48Z</time>
      </trkpt>
      <trkpt lat="42.687983" lon="-0.031404">
        <ele>2655.6</ele>
        <time>2018-08-19T12:41:10Z</time>
      </trkpt>
      <trkpt lat="42.688081" lon="-0.031433">
        <ele>2657.1</ele>
        <time>2018-08-19T12:41:32Z</time>
      </trkpt>
      <trkpt lat="42.688178" lon="-0.031430">
        <ele>2660.1</ele>
        <time>2018-08-19T12:41:52Z</time>
      </trkpt>
      <trkpt lat="42.688252" lon="-0.031372">
        <ele>2662.6</ele>
        <time>2018-08-19T12:42:09Z</time>
      </trkpt>
      <trkpt lat="42.688294" lon="-0.031400">
        <ele>2666.3</ele>
        <time>2018-08-19T12:42:35Z</time>
      </trkpt>
      <trkpt lat="42.688317" lon="-0.031404">
        <ele>2666.6</ele>
        <time>2018-08-19T12:43:20Z</time>
      </trkpt>
      <trkpt lat="42.688428" lon="-0.031400">
        <ele>2668.1</ele>
        <time>2018-08-19T12:43:38Z</time>
      </trkpt>
      <trkpt lat="42.688553" lon="-0.031416">
        <ele>2670.5</ele>
        <time>2018-08-19T12:43:55Z</time>
      </trkpt>
      <trkpt lat="42.688638" lon="-0.031423">
        <ele>2674.1</ele>
        <time>2018-08-19T12:44:19Z</time>
      </trkpt>
      <trkpt lat="42.688718" lon="-0.031473">
        <ele>2677.5</ele>
        <time>2018-08-19T12:44:42Z</time>
      </trkpt>
      <trkpt lat="42.688808" lon="-0.031508">
        <ele>2681.6</ele>
        <time>2018-08-19T12:45:08Z</time>
      </trkpt>
      <trkpt lat="42.688906" lon="-0.031501">
        <ele>2684.0</ele>
        <time>2018-08-19T12:45:47Z</time>
      </trkpt>
      <trkpt lat="42.688974" lon="-0.031557">
        <ele>2687.0</ele>
        <time>2018-08-19T12:46:04Z</time>
      </trkpt>
      <trkpt lat="42.689035" lon="-0.031622">
        <ele>2687.9</ele>
        <time>2018-08-19T12:46:19Z</time>
      </trkpt>
      <trkpt lat="42.689107" lon="-0.031635">
        <ele>2692.1</ele>
        <time>2018-08-19T12:46:47Z</time>
      </trkpt>
      <trkpt lat="42.689205" lon="-0.031613">
        <ele>2696.6</ele>
        <time>2018-08-19T12:47:15Z</time>
      </trkpt>
      <trkpt lat="42.689244" lon="-0.031628">
        <ele>2699.4</ele>
        <time>2018-08-19T12:47:52Z</time>
      </trkpt>
      <trkpt lat="42.689329" lon="-0.031587">
        <ele>2702.3</ele>
        <time>2018-08-19T12:48:13Z</time>
      </trkpt>
      <trkpt lat="42.689433" lon="-0.031592">
        <ele>2705.5</ele>
        <time>2018-08-19T12:48:35Z</time>
      </trkpt>
      <trkpt lat="42.689470" lon="-0.031533">
        <ele>2708.4</ele>
        <time>2018-08-19T12:49:08Z</time>
      </trkpt>
      <trkpt lat="42.689521" lon="-0.031453">
        <ele>2720.9</ele>
        <time>2018-08-19T12:51:35Z</time>
      </trkpt>
      <trkpt lat="42.689528" lon="-0.031477">
        <ele>2721.7</ele>
        <time>2018-08-19T12:52:10Z</time>
      </trkpt>
      <trkpt lat="42.689617" lon="-0.031453">
        <ele>2724.7</ele>
        <time>2018-08-19T12:52:28Z</time>
      </trkpt>
      <trkpt lat="42.689671" lon="-0.031462">
        <ele>2725.8</ele>
        <time>2018-08-19T12:52:54Z</time>
      </trkpt>
      <trkpt lat="42.689766" lon="-0.031481">
        <ele>2727.4</ele>
        <time>2018-08-19T12:53:17Z</time>
      </trkpt>
      <trkpt lat="42.689833" lon="-0.031573">
        <ele>2727.7</ele>
        <time>2018-08-19T12:53:30Z</time>
      </trkpt>
      <trkpt lat="42.689924" lon="-0.031629">
        <ele>2729.3</ele>
        <time>2018-08-19T12:53:42Z</time>
      </trkpt>
      <trkpt lat="42.689995" lon="-0.031707">
        <ele>2730.4</ele>
        <time>2018-08-19T12:53:53Z</time>
      </trkpt>
      <trkpt lat="42.690051" lon="-0.031778">
        <ele>2733.4</ele>
        <time>2018-08-19T12:54:11Z</time>
      </trkpt>
      <trkpt lat="42.690113" lon="-0.031864">
        <ele>2735.7</ele>
        <time>2018-08-19T12:54:25Z</time>
      </trkpt>
      <trkpt lat="42.690173" lon="-0.031975">
        <ele>2737.3</ele>
        <time>2018-08-19T12:54:41Z</time>
      </trkpt>
      <trkpt lat="42.690245" lon="-0.032042">
        <ele>2739.0</ele>
        <time>2018-08-19T12:54:53Z</time>
      </trkpt>
      <trkpt lat="42.690314" lon="-0.032124">
        <ele>2740.5</ele>
        <time>2018-08-19T12:55:06Z</time>
      </trkpt>
      <trkpt lat="42.690376" lon="-0.032223">
        <ele>2743.0</ele>
        <time>2018-08-19T12:55:24Z</time>
      </trkpt>
      <trkpt lat="42.690436" lon="-0.032354">
        <ele>2745.7</ele>
        <time>2018-08-19T12:55:39Z</time>
      </trkpt>
      <trkpt lat="42.690496" lon="-0.032479">
        <ele>2748.9</ele>
        <time>2018-08-19T12:55:57Z</time>
      </trkpt>
      <trkpt lat="42.690546" lon="-0.032618">
        <ele>2751.4</ele>
        <time>2018-08-19T12:56:11Z</time>
      </trkpt>
      <trkpt lat="42.690600" lon="-0.032719">
        <ele>2754.0</ele>
        <time>2018-08-19T12:56:27Z</time>
      </trkpt>
      <trkpt lat="42.690646" lon="-0.032819">
        <ele>2757.7</ele>
        <time>2018-08-19T12:56:47Z</time>
      </trkpt>
      <trkpt lat="42.690684" lon="-0.032938">
        <ele>2761.9</ele>
        <time>2018-08-19T12:57:09Z</time>
      </trkpt>
      <trkpt lat="42.690756" lon="-0.033020">
        <ele>2766.1</ele>
        <time>2018-08-19T12:57:30Z</time>
      </trkpt>
      <trkpt lat="42.690777" lon="-0.033144">
        <ele>2769.2</ele>
        <time>2018-08-19T12:57:50Z</time>
      </trkpt>
      <trkpt lat="42.690835" lon="-0.033213">
        <ele>2772.0</ele>
        <time>2018-08-19T12:58:07Z</time>
      </trkpt>
      <trkpt lat="42.690862" lon="-0.033354">
        <ele>2775.4</ele>
        <time>2018-08-19T12:58:26Z</time>
      </trkpt>
      <trkpt lat="42.690886" lon="-0.033471">
        <ele>2777.9</ele>
        <time>2018-08-19T12:58:42Z</time>
      </trkpt>
      <trkpt lat="42.690901" lon="-0.033600">
        <ele>2779.6</ele>
        <time>2018-08-19T12:58:56Z</time>
      </trkpt>
      <trkpt lat="42.690950" lon="-0.033709">
        <ele>2782.0</ele>
        <time>2018-08-19T12:59:16Z</time>
      </trkpt>
      <trkpt lat="42.690996" lon="-0.033803">
        <ele>2785.2</ele>
        <time>2018-08-19T12:59:35Z</time>
      </trkpt>
      <trkpt lat="42.691112" lon="-0.033995">
        <ele>2789.1</ele>
        <time>2018-08-19T13:14:38Z</time>
      </trkpt>
      <trkpt lat="42.691167" lon="-0.034086">
        <ele>2785.3</ele>
        <time>2018-08-19T13:15:02Z</time>
      </trkpt>
      <trkpt lat="42.691210" lon="-0.034157">
        <ele>2781.6</ele>
        <time>2018-08-19T13:15:45Z</time>
      </trkpt>
      <trkpt lat="42.691225" lon="-0.034210">
        <ele>2780.6</ele>
        <time>2018-08-19T13:16:12Z</time>
      </trkpt>
      <trkpt lat="42.691278" lon="-0.034269">
        <ele>2780.6</ele>
        <time>2018-08-19T13:16:50Z</time>
      </trkpt>
      <trkpt lat="42.691282" lon="-0.034299">
        <ele>2779.1</ele>
        <time>2018-08-19T13:18:15Z</time>
      </trkpt>
      <trkpt lat="42.691379" lon="-0.034198">
        <ele>2771.2</ele>
        <time>2018-08-19T13:19:38Z</time>
      </trkpt>
      <trkpt lat="42.691469" lon="-0.034283">
        <ele>2766.5</ele>
        <time>2018-08-19T13:19:56Z</time>
      </trkpt>
      <trkpt lat="42.691562" lon="-0.034351">
        <ele>2764.0</ele>
        <time>2018-08-19T13:20:10Z</time>
      </trkpt>
      <trkpt lat="42.691596" lon="-0.034441">
        <ele>2760.3</ele>
        <time>2018-08-19T13:20:32Z</time>
      </trkpt>
      <trkpt lat="42.691617" lon="-0.034545">
        <ele>2756.9</ele>
        <time>2018-08-19T13:21:06Z</time>
      </trkpt>
      <trkpt lat="42.691673" lon="-0.034593">
        <ele>2752.8</ele>
        <time>2018-08-19T13:21:49Z</time>
      </trkpt>
      <trkpt lat="42.691734" lon="-0.034685">
        <ele>2750.7</ele>
        <time>2018-08-19T13:22:20Z</time>
      </trkpt>
      <trkpt lat="42.691793" lon="-0.034795">
        <ele>2749.3</ele>
        <time>2018-08-19T13:22:48Z</time>
      </trkpt>
      <trkpt lat="42.691839" lon="-0.034907">
        <ele>2748.5</ele>
        <time>2018-08-19T13:23:11Z</time>
      </trkpt>
      <trkpt lat="42.691888" lon="-0.035014">
        <ele>2747.0</ele>
        <time>2018-08-19T13:23:29Z</time>
      </trkpt>
      <trkpt lat="42.691941" lon="-0.035122">
        <ele>2746.7</ele>
        <time>2018-08-19T13:23:47Z</time>
      </trkpt>
      <trkpt lat="42.692008" lon="-0.035211">
        <ele>2745.7</ele>
        <time>2018-08-19T13:24:09Z</time>
      </trkpt>
      <trkpt lat="42.692078" lon="-0.035302">
        <ele>2744.9</ele>
        <time>2018-08-19T13:24:24Z</time>
      </trkpt>
      <trkpt lat="42.692162" lon="-0.035327">
        <ele>2741.6</ele>
        <time>2018-08-19T13:24:54Z</time>
      </trkpt>
      <trkpt lat="42.692249" lon="-0.035341">
        <ele>2741.0</ele>
        <time>2018-08-19T13:25:30Z</time>
      </trkpt>
      <trkpt lat="42.692271" lon="-0.035362">
        <ele>2739.6</ele>
        <time>2018-08-19T13:26:12Z</time>
      </trkpt>
      <trkpt lat="42.692308" lon="-0.035338">
        <ele>2737.1</ele>
        <time>2018-08-19T13:26:37Z</time>
      </trkpt>
      <trkpt lat="42.692324" lon="-0.035364">
        <ele>2736.6</ele>
        <time>2018-08-19T13:27:05Z</time>
      </trkpt>
      <trkpt lat="42.692442" lon="-0.035359">
        <ele>2736.6</ele>
        <time>2018-08-19T13:27:19Z</time>
      </trkpt>
      <trkpt lat="42.692531" lon="-0.035329">
        <ele>2735.7</ele>
        <time>2018-08-19T13:27:28Z</time>
      </trkpt>
      <trkpt lat="42.692579" lon="-0.035245">
        <ele>2734.7</ele>
        <time>2018-08-19T13:27:39Z</time>
      </trkpt>
      <trkpt lat="42.692608" lon="-0.035143">
        <ele>2733.8</ele>
        <time>2018-08-19T13:27:50Z</time>
      </trkpt>
      <trkpt lat="42.692637" lon="-0.035051">
        <ele>2733.1</ele>
        <time>2018-08-19T13:28:36Z</time>
      </trkpt>
      <trkpt lat="42.692690" lon="-0.034947">
        <ele>2732.6</ele>
        <time>2018-08-19T13:28:45Z</time>
      </trkpt>
      <trkpt lat="42.692722" lon="-0.034829">
        <ele>2732.7</ele>
        <time>2018-08-19T13:28:55Z</time>
      </trkpt>
      <trkpt lat="42.692763" lon="-0.034722">
        <ele>2732.3</ele>
        <time>2018-08-19T13:29:05Z</time>
      </trkpt>
      <trkpt lat="42.692834" lon="-0.034699">
        <ele>2730.7</ele>
        <time>2018-08-19T13:29:58Z</time>
      </trkpt>
      <trkpt lat="42.692902" lon="-0.034583">
        <ele>2729.9</ele>
        <time>2018-08-19T13:30:09Z</time>
      </trkpt>
      <trkpt lat="42.692923" lon="-0.034455">
        <ele>2728.9</ele>
        <time>2018-08-19T13:30:22Z</time>
      </trkpt>
      <trkpt lat="42.692939" lon="-0.034319">
        <ele>2727.1</ele>
        <time>2018-08-19T13:30:59Z</time>
      </trkpt>
      <trkpt lat="42.693003" lon="-0.034227">
        <ele>2726.5</ele>
        <time>2018-08-19T13:31:10Z</time>
      </trkpt>
      <trkpt lat="42.693045" lon="-0.034211">
        <ele>2724.0</ele>
        <time>2018-08-19T13:31:45Z</time>
      </trkpt>
      <trkpt lat="42.693109" lon="-0.034154">
        <ele>2720.8</ele>
        <time>2018-08-19T13:32:03Z</time>
      </trkpt>
      <trkpt lat="42.693194" lon="-0.034209">
        <ele>2717.3</ele>
        <time>2018-08-19T13:32:21Z</time>
      </trkpt>
      <trkpt lat="42.693248" lon="-0.034301">
        <ele>2714.4</ele>
        <time>2018-08-19T13:32:37Z</time>
      </trkpt>
      <trkpt lat="42.693327" lon="-0.034362">
        <ele>2710.8</ele>
        <time>2018-08-19T13:33:19Z</time>
      </trkpt>
      <trkpt lat="42.693392" lon="-0.034447">
        <ele>2708.3</ele>
        <time>2018-08-19T13:33:34Z</time>
      </trkpt>
      <trkpt lat="42.693447" lon="-0.034539">
        <ele>2705.0</ele>
        <time>2018-08-19T13:33:59Z</time>
      </trkpt>
      <trkpt lat="42.693518" lon="-0.034623">
        <ele>2701.2</ele>
        <time>2018-08-19T13:34:16Z</time>
      </trkpt>
      <trkpt lat="42.693572" lon="-0.034722">
        <ele>2696.2</ele>
        <time>2018-08-19T13:34:36Z</time>
      </trkpt>
      <trkpt lat="42.693645" lon="-0.034803">
        <ele>2692.5</ele>
        <time>2018-08-19T13:34:53Z</time>
      </trkpt>
      <trkpt lat="42.693736" lon="-0.034839">
        <ele>2689.6</ele>
        <time>2018-08-19T13:35:39Z</time>
      </trkpt>
      <trkpt lat="42.693800" lon="-0.034934">
        <ele>2686.4</ele>
        <time>2018-08-19T13:35:51Z</time>
      </trkpt>
      <trkpt lat="42.693853" lon="-0.034849">
        <ele>2682.4</ele>
        <time>2018-08-19T13:36:03Z</time>
      </trkpt>
      <trkpt lat="42.693887" lon="-0.034732">
        <ele>2679.2</ele>
        <time>2018-08-19T13:36:13Z</time>
      </trkpt>
      <trkpt lat="42.693920" lon="-0.034605">
        <ele>2675.0</ele>
        <time>2018-08-19T13:36:26Z</time>
      </trkpt>
      <trkpt lat="42.693953" lon="-0.034491">
        <ele>2670.8</ele>
        <time>2018-08-19T13:36:37Z</time>
      </trkpt>
      <trkpt lat="42.694001" lon="-0.034387">
        <ele>2667.1</ele>
        <time>2018-08-19T13:36:49Z</time>
      </trkpt>
      <trkpt lat="42.694058" lon="-0.034277">
        <ele>2662.2</ele>
        <time>2018-08-19T13:37:02Z</time>
      </trkpt>
      <trkpt lat="42.694129" lon="-0.034188">
        <ele>2658.2</ele>
        <time>2018-08-19T13:37:15Z</time>
      </trkpt>
      <trkpt lat="42.694181" lon="-0.034087">
        <ele>2654.6</ele>
        <time>2018-08-19T13:37:24Z</time>
      </trkpt>
      <trkpt lat="42.694249" lon="-0.034029">
        <ele>2650.3</ele>
        <time>2018-08-19T13:37:37Z</time>
      </trkpt>
      <trkpt lat="42.694328" lon="-0.033974">
        <ele>2646.6</ele>
        <time>2018-08-19T13:37:51Z</time>
      </trkpt>
      <trkpt lat="42.694403" lon="-0.033921">
        <ele>2643.4</ele>
        <time>2018-08-19T13:38:02Z</time>
      </trkpt>
      <trkpt lat="42.694479" lon="-0.033860">
        <ele>2639.5</ele>
        <time>2018-08-19T13:38:13Z</time>
      </trkpt>
      <trkpt lat="42.694556" lon="-0.033801">
        <ele>2635.3</ele>
        <time>2018-08-19T13:38:26Z</time>
      </trkpt>
      <trkpt lat="42.694607" lon="-0.033786">
        <ele>2632.8</ele>
        <time>2018-08-19T13:39:46Z</time>
      </trkpt>
      <trkpt lat="42.694696" lon="-0.033753">
        <ele>2629.6</ele>
        <time>2018-08-19T13:40:00Z</time>
      </trkpt>
      <trkpt lat="42.694761" lon="-0.033709">
        <ele>2626.2</ele>
        <time>2018-08-19T13:40:15Z</time>
      </trkpt>
      <trkpt lat="42.694810" lon="-0.033661">
        <ele>2622.3</ele>
        <time>2018-08-19T13:40:29Z</time>
      </trkpt>
      <trkpt lat="42.694873" lon="-0.033621">
        <ele>2618.1</ele>
        <time>2018-08-19T13:40:45Z</time>
      </trkpt>
      <trkpt lat="42.694967" lon="-0.033573">
        <ele>2614.2</ele>
        <time>2018-08-19T13:40:57Z</time>
      </trkpt>
      <trkpt lat="42.695053" lon="-0.033517">
        <ele>2609.3</ele>
        <time>2018-08-19T13:41:10Z</time>
      </trkpt>
      <trkpt lat="42.695143" lon="-0.033497">
        <ele>2605.6</ele>
        <time>2018-08-19T13:41:23Z</time>
      </trkpt>
      <trkpt lat="42.695226" lon="-0.033479">
        <ele>2602.5</ele>
        <time>2018-08-19T13:41:35Z</time>
      </trkpt>
      <trkpt lat="42.695329" lon="-0.033514">
        <ele>2599.1</ele>
        <time>2018-08-19T13:41:48Z</time>
      </trkpt>
      <trkpt lat="42.695414" lon="-0.033543">
        <ele>2597.3</ele>
        <time>2018-08-19T13:42:00Z</time>
      </trkpt>
      <trkpt lat="42.695471" lon="-0.033564">
        <ele>2594.9</ele>
        <time>2018-08-19T13:42:42Z</time>
      </trkpt>
      <trkpt lat="42.695567" lon="-0.033616">
        <ele>2593.0</ele>
        <time>2018-08-19T13:42:58Z</time>
      </trkpt>
      <trkpt lat="42.695673" lon="-0.033623">
        <ele>2591.8</ele>
        <time>2018-08-19T13:43:16Z</time>
      </trkpt>
      <trkpt lat="42.695768" lon="-0.033621">
        <ele>2591.9</ele>
        <time>2018-08-19T13:43:27Z</time>
      </trkpt>
      <trkpt lat="42.695864" lon="-0.033601">
        <ele>2592.7</ele>
        <time>2018-08-19T13:43:45Z</time>
      </trkpt>
      <trkpt lat="42.695889" lon="-0.033679">
        <ele>2596.6</ele>
        <time>2018-08-19T13:44:23Z</time>
      </trkpt>
      <trkpt lat="42.695918" lon="-0.033746">
        <ele>2598.9</ele>
        <time>2018-08-19T13:44:42Z</time>
      </trkpt>
      <trkpt lat="42.695978" lon="-0.033747">
        <ele>2600.4</ele>
        <time>2018-08-19T13:45:09Z</time>
      </trkpt>
      <trkpt lat="42.696084" lon="-0.033674">
        <ele>2596.1</ele>
        <time>2018-08-19T13:46:31Z</time>
      </trkpt>
      <trkpt lat="42.696114" lon="-0.033641">
        <ele>2592.9</ele>
        <time>2018-08-19T13:46:50Z</time>
      </trkpt>
      <trkpt lat="42.696154" lon="-0.033632">
        <ele>2588.9</ele>
        <time>2018-08-19T13:47:14Z</time>
      </trkpt>
      <trkpt lat="42.696223" lon="-0.033600">
        <ele>2585.2</ele>
        <time>2018-08-19T13:47:42Z</time>
      </trkpt>
      <trkpt lat="42.696326" lon="-0.033663">
        <ele>2585.0</ele>
        <time>2018-08-19T13:47:55Z</time>
      </trkpt>
      <trkpt lat="42.696415" lon="-0.033736">
        <ele>2582.9</ele>
        <time>2018-08-19T13:48:09Z</time>
      </trkpt>
      <trkpt lat="42.696505" lon="-0.033807">
        <ele>2581.7</ele>
        <time>2018-08-19T13:48:21Z</time>
      </trkpt>
      <trkpt lat="42.696575" lon="-0.033862">
        <ele>2580.9</ele>
        <time>2018-08-19T13:48:37Z</time>
      </trkpt>
      <trkpt lat="42.696640" lon="-0.033962">
        <ele>2579.8</ele>
        <time>2018-08-19T13:48:51Z</time>
      </trkpt>
      <trkpt lat="42.696660" lon="-0.034095">
        <ele>2580.1</ele>
        <time>2018-08-19T13:49:05Z</time>
      </trkpt>
      <trkpt lat="42.696700" lon="-0.034218">
        <ele>2582.8</ele>
        <time>2018-08-19T13:49:19Z</time>
      </trkpt>
      <trkpt lat="42.696775" lon="-0.034287">
        <ele>2583.1</ele>
        <time>2018-08-19T13:49:35Z</time>
      </trkpt>
      <trkpt lat="42.696804" lon="-0.034415">
        <ele>2583.8</ele>
        <time>2018-08-19T13:49:50Z</time>
      </trkpt>
      <trkpt lat="42.696815" lon="-0.034529">
        <ele>2587.9</ele>
        <time>2018-08-19T13:50:10Z</time>
      </trkpt>
      <trkpt lat="42.696826" lon="-0.034648">
        <ele>2591.0</ele>
        <time>2018-08-19T13:50:29Z</time>
      </trkpt>
      <trkpt lat="42.696895" lon="-0.034733">
        <ele>2592.3</ele>
        <time>2018-08-19T13:50:41Z</time>
      </trkpt>
      <trkpt lat="42.697003" lon="-0.034769">
        <ele>2593.6</ele>
        <time>2018-08-19T13:50:54Z</time>
      </trkpt>
      <trkpt lat="42.697024" lon="-0.034845">
        <ele>2593.1</ele>
        <time>2018-08-19T13:52:33Z</time>
      </trkpt>
      <trkpt lat="42.697113" lon="-0.034901">
        <ele>2592.4</ele>
        <time>2018-08-19T13:52:43Z</time>
      </trkpt>
      <trkpt lat="42.697249" lon="-0.034876">
        <ele>2592.3</ele>
        <time>2018-08-19T13:52:57Z</time>
      </trkpt>
      <trkpt lat="42.697350" lon="-0.034888">
        <ele>2591.7</ele>
        <time>2018-08-19T13:53:10Z</time>
      </trkpt>
      <trkpt lat="42.697467" lon="-0.034860">
        <ele>2590.9</ele>
        <time>2018-08-19T13:53:26Z</time>
      </trkpt>
      <trkpt lat="42.697567" lon="-0.034889">
        <ele>2590.3</ele>
        <time>2018-08-19T13:53:51Z</time>
      </trkpt>
      <trkpt lat="42.697638" lon="-0.034915">
        <ele>2590.6</ele>
        <time>2018-08-19T13:54:46Z</time>
      </trkpt>
      <trkpt lat="42.697713" lon="-0.034983">
        <ele>2589.1</ele>
        <time>2018-08-19T13:55:01Z</time>
      </trkpt>
      <trkpt lat="42.697780" lon="-0.035075">
        <ele>2586.5</ele>
        <time>2018-08-19T13:55:19Z</time>
      </trkpt>
      <trkpt lat="42.697752" lon="-0.035176">
        <ele>2585.3</ele>
        <time>2018-08-19T13:55:32Z</time>
      </trkpt>
      <trkpt lat="42.697704" lon="-0.035260">
        <ele>2583.0</ele>
        <time>2018-08-19T13:55:44Z</time>
      </trkpt>
      <trkpt lat="42.697620" lon="-0.035254">
        <ele>2580.4</ele>
        <time>2018-08-19T13:55:57Z</time>
      </trkpt>
      <trkpt lat="42.697570" lon="-0.035296">
        <ele>2578.1</ele>
        <time>2018-08-19T13:56:09Z</time>
      </trkpt>
      <trkpt lat="42.697515" lon="-0.035346">
        <ele>2574.4</ele>
        <time>2018-08-19T13:56:28Z</time>
      </trkpt>
      <trkpt lat="42.697505" lon="-0.035421">
        <ele>2571.1</ele>
        <time>2018-08-19T13:56:52Z</time>
      </trkpt>
      <trkpt lat="42.697470" lon="-0.035502">
        <ele>2567.4</ele>
        <time>2018-08-19T13:57:08Z</time>
      </trkpt>
      <trkpt lat="42.697531" lon="-0.035600">
        <ele>2564.4</ele>
        <time>2018-08-19T13:57:21Z</time>
      </trkpt>
      <trkpt lat="42.697598" lon="-0.035691">
        <ele>2561.1</ele>
        <time>2018-08-19T13:57:34Z</time>
      </trkpt>
      <trkpt lat="42.697681" lon="-0.035727">
        <ele>2557.6</ele>
        <time>2018-08-19T13:57:47Z</time>
      </trkpt>
      <trkpt lat="42.697713" lon="-0.035856">
        <ele>2555.1</ele>
        <time>2018-08-19T13:58:00Z</time>
      </trkpt>
      <trkpt lat="42.697781" lon="-0.035919">
        <ele>2553.2</ele>
        <time>2018-08-19T13:58:14Z</time>
      </trkpt>
      <trkpt lat="42.697869" lon="-0.035856">
        <ele>2550.8</ele>
        <time>2018-08-19T13:58:30Z</time>
      </trkpt>
      <trkpt lat="42.697913" lon="-0.035960">
        <ele>2548.1</ele>
        <time>2018-08-19T13:58:45Z</time>
      </trkpt>
      <trkpt lat="42.697986" lon="-0.035952">
        <ele>2545.4</ele>
        <time>2018-08-19T13:59:02Z</time>
      </trkpt>
      <trkpt lat="42.698028" lon="-0.036053">
        <ele>2542.5</ele>
        <time>2018-08-19T13:59:17Z</time>
      </trkpt>
      <trkpt lat="42.698100" lon="-0.036137">
        <ele>2540.1</ele>
        <time>2018-08-19T13:59:30Z</time>
      </trkpt>
      <trkpt lat="42.698172" lon="-0.036212">
        <ele>2537.7</ele>
        <time>2018-08-19T13:59:41Z</time>
      </trkpt>
      <trkpt lat="42.698228" lon="-0.036256">
        <ele>2535.5</ele>
        <time>2018-08-19T13:59:54Z</time>
      </trkpt>
      <trkpt lat="42.698321" lon="-0.036181">
        <ele>2533.9</ele>
        <time>2018-08-19T14:00:06Z</time>
      </trkpt>
      <trkpt lat="42.698391" lon="-0.036163">
        <ele>2531.2</ele>
        <time>2018-08-19T14:00:24Z</time>
      </trkpt>
      <trkpt lat="42.698483" lon="-0.036124">
        <ele>2529.6</ele>
        <time>2018-08-19T14:00:38Z</time>
      </trkpt>
      <trkpt lat="42.698523" lon="-0.036022">
        <ele>2529.4</ele>
        <time>2018-08-19T14:01:01Z</time>
      </trkpt>
      <trkpt lat="42.698621" lon="-0.036029">
        <ele>2526.8</ele>
        <time>2018-08-19T14:01:19Z</time>
      </trkpt>
      <trkpt lat="42.698696" lon="-0.036033">
        <ele>2523.0</ele>
        <time>2018-08-19T14:01:38Z</time>
      </trkpt>
      <trkpt lat="42.698717" lon="-0.036089">
        <ele>2519.9</ele>
        <time>2018-08-19T14:01:57Z</time>
      </trkpt>
      <trkpt lat="42.698749" lon="-0.036116">
        <ele>2517.8</ele>
        <time>2018-08-19T14:02:17Z</time>
      </trkpt>
      <trkpt lat="42.698787" lon="-0.036198">
        <ele>2514.3</ele>
        <time>2018-08-19T14:02:38Z</time>
      </trkpt>
      <trkpt lat="42.698876" lon="-0.036199">
        <ele>2510.9</ele>
        <time>2018-08-19T14:02:54Z</time>
      </trkpt>
      <trkpt lat="42.698949" lon="-0.036205">
        <ele>2506.8</ele>
        <time>2018-08-19T14:03:14Z</time>
      </trkpt>
      <trkpt lat="42.698998" lon="-0.036235">
        <ele>2503.8</ele>
        <time>2018-08-19T14:03:31Z</time>
      </trkpt>
      <trkpt lat="42.698972" lon="-0.036326">
        <ele>2500.6</ele>
        <time>2018-08-19T14:04:02Z</time>
      </trkpt>
      <trkpt lat="42.698987" lon="-0.036438">
        <ele>2497.4</ele>
        <time>2018-08-19T14:04:21Z</time>
      </trkpt>
      <trkpt lat="42.699012" lon="-0.036544">
        <ele>2493.8</ele>
        <time>2018-08-19T14:04:37Z</time>
      </trkpt>
      <trkpt lat="42.699047" lon="-0.036582">
        <ele>2490.5</ele>
        <time>2018-08-19T14:04:59Z</time>
      </trkpt>
      <trkpt lat="42.699129" lon="-0.036510">
        <ele>2488.7</ele>
        <time>2018-08-19T14:05:20Z</time>
      </trkpt>
      <trkpt lat="42.699125" lon="-0.036612">
        <ele>2486.0</ele>
        <time>2018-08-19T14:05:36Z</time>
      </trkpt>
      <trkpt lat="42.699215" lon="-0.036583">
        <ele>2483.5</ele>
        <time>2018-08-19T14:05:51Z</time>
      </trkpt>
      <trkpt lat="42.699226" lon="-0.036674">
        <ele>2480.3</ele>
        <time>2018-08-19T14:06:07Z</time>
      </trkpt>
      <trkpt lat="42.699196" lon="-0.036790">
        <ele>2477.2</ele>
        <time>2018-08-19T14:06:24Z</time>
      </trkpt>
      <trkpt lat="42.699218" lon="-0.036883">
        <ele>2476.1</ele>
        <time>2018-08-19T14:06:41Z</time>
      </trkpt>
      <trkpt lat="42.699281" lon="-0.036897">
        <ele>2473.9</ele>
        <time>2018-08-19T14:07:01Z</time>
      </trkpt>
      <trkpt lat="42.699294" lon="-0.036973">
        <ele>2470.0</ele>
        <time>2018-08-19T14:08:19Z</time>
      </trkpt>
      <trkpt lat="42.699334" lon="-0.037048">
        <ele>2465.8</ele>
        <time>2018-08-19T14:09:29Z</time>
      </trkpt>
      <trkpt lat="42.699389" lon="-0.037138">
        <ele>2464.2</ele>
        <time>2018-08-19T14:09:44Z</time>
      </trkpt>
      <trkpt lat="42.699393" lon="-0.037217">
        <ele>2460.6</ele>
        <time>2018-08-19T14:10:13Z</time>
      </trkpt>
      <trkpt lat="42.699406" lon="-0.037329">
        <ele>2459.0</ele>
        <time>2018-08-19T14:10:55Z</time>
      </trkpt>
      <trkpt lat="42.699426" lon="-0.037445">
        <ele>2457.0</ele>
        <time>2018-08-19T14:11:21Z</time>
      </trkpt>
      <trkpt lat="42.699436" lon="-0.037577">
        <ele>2455.0</ele>
        <time>2018-08-19T14:11:36Z</time>
      </trkpt>
      <trkpt lat="42.699473" lon="-0.037695">
        <ele>2452.9</ele>
        <time>2018-08-19T14:11:51Z</time>
      </trkpt>
      <trkpt lat="42.699548" lon="-0.037787">
        <ele>2450.9</ele>
        <time>2018-08-19T14:12:08Z</time>
      </trkpt>
      <trkpt lat="42.699642" lon="-0.037857">
        <ele>2449.6</ele>
        <time>2018-08-19T14:12:20Z</time>
      </trkpt>
      <trkpt lat="42.699711" lon="-0.037935">
        <ele>2447.0</ele>
        <time>2018-08-19T14:12:35Z</time>
      </trkpt>
      <trkpt lat="42.699789" lon="-0.037920">
        <ele>2443.6</ele>
        <time>2018-08-19T14:14:19Z</time>
      </trkpt>
      <trkpt lat="42.699877" lon="-0.037905">
        <ele>2440.0</ele>
        <time>2018-08-19T14:14:37Z</time>
      </trkpt>
      <trkpt lat="42.699953" lon="-0.037960">
        <ele>2436.3</ele>
        <time>2018-08-19T14:14:54Z</time>
      </trkpt>
      <trkpt lat="42.700044" lon="-0.037953">
        <ele>2432.6</ele>
        <time>2018-08-19T14:15:12Z</time>
      </trkpt>
      <trkpt lat="42.700123" lon="-0.037934">
        <ele>2429.7</ele>
        <time>2018-08-19T14:15:25Z</time>
      </trkpt>
      <trkpt lat="42.700208" lon="-0.038005">
        <ele>2427.4</ele>
        <time>2018-08-19T14:15:37Z</time>
      </trkpt>
      <trkpt lat="42.700263" lon="-0.038103">
        <ele>2424.5</ele>
        <time>2018-08-19T14:15:54Z</time>
      </trkpt>
      <trkpt lat="42.700340" lon="-0.038158">
        <ele>2422.8</ele>
        <time>2018-08-19T14:16:45Z</time>
      </trkpt>
      <trkpt lat="42.700410" lon="-0.038208">
        <ele>2420.9</ele>
        <time>2018-08-19T14:16:59Z</time>
      </trkpt>
      <trkpt lat="42.700449" lon="-0.038126">
        <ele>2418.6</ele>
        <time>2018-08-19T14:17:16Z</time>
      </trkpt>
      <trkpt lat="42.700502" lon="-0.038214">
        <ele>2416.2</ele>
        <time>2018-08-19T14:17:32Z</time>
      </trkpt>
      <trkpt lat="42.700540" lon="-0.038310">
        <ele>2414.1</ele>
        <time>2018-08-19T14:17:43Z</time>
      </trkpt>
      <trkpt lat="42.700533" lon="-0.038449">
        <ele>2410.9</ele>
        <time>2018-08-19T14:17:57Z</time>
      </trkpt>
      <trkpt lat="42.700560" lon="-0.038564">
        <ele>2406.9</ele>
        <time>2018-08-19T14:18:19Z</time>
      </trkpt>
      <trkpt lat="42.700560" lon="-0.038689">
        <ele>2404.5</ele>
        <time>2018-08-19T14:18:34Z</time>
      </trkpt>
      <trkpt lat="42.700566" lon="-0.038829">
        <ele>2401.7</ele>
        <time>2018-08-19T14:18:49Z</time>
      </trkpt>
      <trkpt lat="42.700563" lon="-0.038971">
        <ele>2397.6</ele>
        <time>2018-08-19T14:19:04Z</time>
      </trkpt>
      <trkpt lat="42.700546" lon="-0.039111">
        <ele>2394.4</ele>
        <time>2018-08-19T14:19:17Z</time>
      </trkpt>
      <trkpt lat="42.700590" lon="-0.039251">
        <ele>2392.9</ele>
        <time>2018-08-19T14:19:28Z</time>
      </trkpt>
      <trkpt lat="42.700609" lon="-0.039396">
        <ele>2392.8</ele>
        <time>2018-08-19T14:19:42Z</time>
      </trkpt>
      <trkpt lat="42.700648" lon="-0.039514">
        <ele>2392.9</ele>
        <time>2018-08-19T14:19:53Z</time>
      </trkpt>
      <trkpt lat="42.700653" lon="-0.039657">
        <ele>2391.9</ele>
        <time>2018-08-19T14:20:04Z</time>
      </trkpt>
      <trkpt lat="42.700684" lon="-0.039789">
        <ele>2391.6</ele>
        <time>2018-08-19T14:20:15Z</time>
      </trkpt>
      <trkpt lat="42.700721" lon="-0.039918">
        <ele>2391.9</ele>
        <time>2018-08-19T14:20:25Z</time>
      </trkpt>
      <trkpt lat="42.700749" lon="-0.040043">
        <ele>2391.2</ele>
        <time>2018-08-19T14:20:36Z</time>
      </trkpt>
      <trkpt lat="42.700774" lon="-0.040177">
        <ele>2390.8</ele>
        <time>2018-08-19T14:20:52Z</time>
      </trkpt>
      <trkpt lat="42.700816" lon="-0.040322">
        <ele>2389.2</ele>
        <time>2018-08-19T14:21:10Z</time>
      </trkpt>
      <trkpt lat="42.700835" lon="-0.040447">
        <ele>2388.1</ele>
        <time>2018-08-19T14:21:22Z</time>
      </trkpt>
      <trkpt lat="42.700834" lon="-0.040582">
        <ele>2387.5</ele>
        <time>2018-08-19T14:21:33Z</time>
      </trkpt>
      <trkpt lat="42.700835" lon="-0.040710">
        <ele>2387.2</ele>
        <time>2018-08-19T14:21:45Z</time>
      </trkpt>
      <trkpt lat="42.700823" lon="-0.040843">
        <ele>2387.1</ele>
        <time>2018-08-19T14:21:58Z</time>
      </trkpt>
      <trkpt lat="42.700800" lon="-0.040959">
        <ele>2386.5</ele>
        <time>2018-08-19T14:22:10Z</time>
      </trkpt>
      <trkpt lat="42.700776" lon="-0.041087">
        <ele>2386.4</ele>
        <time>2018-08-19T14:22:24Z</time>
      </trkpt>
      <trkpt lat="42.700748" lon="-0.041208">
        <ele>2386.6</ele>
        <time>2018-08-19T14:22:36Z</time>
      </trkpt>
      <trkpt lat="42.700719" lon="-0.041330">
        <ele>2386.7</ele>
        <time>2018-08-19T14:22:47Z</time>
      </trkpt>
      <trkpt lat="42.700693" lon="-0.041462">
        <ele>2386.5</ele>
        <time>2018-08-19T14:22:57Z</time>
      </trkpt>
      <trkpt lat="42.700668" lon="-0.041586">
        <ele>2386.3</ele>
        <time>2018-08-19T14:23:09Z</time>
      </trkpt>
      <trkpt lat="42.700645" lon="-0.041721">
        <ele>2385.8</ele>
        <time>2018-08-19T14:23:21Z</time>
      </trkpt>
      <trkpt lat="42.700663" lon="-0.041856">
        <ele>2386.3</ele>
        <time>2018-08-19T14:23:34Z</time>
      </trkpt>
      <trkpt lat="42.700683" lon="-0.042001">
        <ele>2386.0</ele>
        <time>2018-08-19T14:23:47Z</time>
      </trkpt>
      <trkpt lat="42.700690" lon="-0.042159">
        <ele>2386.1</ele>
        <time>2018-08-19T14:24:01Z</time>
      </trkpt>
      <trkpt lat="42.700703" lon="-0.042285">
        <ele>2385.6</ele>
        <time>2018-08-19T14:24:11Z</time>
      </trkpt>
      <trkpt lat="42.700731" lon="-0.042398">
        <ele>2385.5</ele>
        <time>2018-08-19T14:24:21Z</time>
      </trkpt>
      <trkpt lat="42.700758" lon="-0.042531">
        <ele>2385.9</ele>
        <time>2018-08-19T14:24:33Z</time>
      </trkpt>
      <trkpt lat="42.700822" lon="-0.042643">
        <ele>2386.2</ele>
        <time>2018-08-19T14:24:43Z</time>
      </trkpt>
      <trkpt lat="42.700877" lon="-0.042760">
        <ele>2386.4</ele>
        <time>2018-08-19T14:24:53Z</time>
      </trkpt>
      <trkpt lat="42.700916" lon="-0.042894">
        <ele>2387.6</ele>
        <time>2018-08-19T14:25:06Z</time>
      </trkpt>
      <trkpt lat="42.700942" lon="-0.043022">
        <ele>2388.3</ele>
        <time>2018-08-19T14:25:18Z</time>
      </trkpt>
      <trkpt lat="42.700969" lon="-0.043145">
        <ele>2388.3</ele>
        <time>2018-08-19T14:25:28Z</time>
      </trkpt>
      <trkpt lat="42.701002" lon="-0.043274">
        <ele>2387.8</ele>
        <time>2018-08-19T14:25:39Z</time>
      </trkpt>
      <trkpt lat="42.701037" lon="-0.043405">
        <ele>2387.8</ele>
        <time>2018-08-19T14:25:50Z</time>
      </trkpt>
      <trkpt lat="42.701032" lon="-0.043529">
        <ele>2388.2</ele>
        <time>2018-08-19T14:26:01Z</time>
      </trkpt>
      <trkpt lat="42.701034" lon="-0.043651">
        <ele>2388.3</ele>
        <time>2018-08-19T14:26:12Z</time>
      </trkpt>
      <trkpt lat="42.701082" lon="-0.043770">
        <ele>2388.5</ele>
        <time>2018-08-19T14:26:22Z</time>
      </trkpt>
      <trkpt lat="42.701130" lon="-0.043886">
        <ele>2388.3</ele>
        <time>2018-08-19T14:26:31Z</time>
      </trkpt>
      <trkpt lat="42.701177" lon="-0.044016">
        <ele>2387.9</ele>
        <time>2018-08-19T14:26:40Z</time>
      </trkpt>
      <trkpt lat="42.701211" lon="-0.044142">
        <ele>2387.9</ele>
        <time>2018-08-19T14:26:49Z</time>
      </trkpt>
      <trkpt lat="42.701248" lon="-0.044265">
        <ele>2387.9</ele>
        <time>2018-08-19T14:26:58Z</time>
      </trkpt>
      <trkpt lat="42.701279" lon="-0.044395">
        <ele>2387.8</ele>
        <time>2018-08-19T14:27:08Z</time>
      </trkpt>
      <trkpt lat="42.701312" lon="-0.044522">
        <ele>2387.5</ele>
        <time>2018-08-19T14:27:16Z</time>
      </trkpt>
      <trkpt lat="42.701344" lon="-0.044632">
        <ele>2387.1</ele>
        <time>2018-08-19T14:27:24Z</time>
      </trkpt>
      <trkpt lat="42.701359" lon="-0.044753">
        <ele>2385.8</ele>
        <time>2018-08-19T14:27:34Z</time>
      </trkpt>
      <trkpt lat="42.701333" lon="-0.044886">
        <ele>2384.6</ele>
        <time>2018-08-19T14:27:45Z</time>
      </trkpt>
      <trkpt lat="42.701325" lon="-0.045008">
        <ele>2383.9</ele>
        <time>2018-08-19T14:27:55Z</time>
      </trkpt>
      <trkpt lat="42.701324" lon="-0.045148">
        <ele>2383.0</ele>
        <time>2018-08-19T14:28:04Z</time>
      </trkpt>
      <trkpt lat="42.701341" lon="-0.045279">
        <ele>2382.1</ele>
        <time>2018-08-19T14:28:14Z</time>
      </trkpt>
      <trkpt lat="42.701376" lon="-0.045409">
        <ele>2380.6</ele>
        <time>2018-08-19T14:28:28Z</time>
      </trkpt>
      <trkpt lat="42.701377" lon="-0.045542">
        <ele>2379.4</ele>
        <time>2018-08-19T14:28:42Z</time>
      </trkpt>
      <trkpt lat="42.701424" lon="-0.045662">
        <ele>2378.7</ele>
        <time>2018-08-19T14:28:53Z</time>
      </trkpt>
      <trkpt lat="42.701475" lon="-0.045745">
        <ele>2378.4</ele>
        <time>2018-08-19T14:29:04Z</time>
      </trkpt>
      <trkpt lat="42.701463" lon="-0.045845">
        <ele>2378.1</ele>
        <time>2018-08-19T14:29:16Z</time>
      </trkpt>
      <trkpt lat="42.701469" lon="-0.045981">
        <ele>2377.9</ele>
        <time>2018-08-19T14:29:28Z</time>
      </trkpt>
      <trkpt lat="42.701455" lon="-0.046124">
        <ele>2376.9</ele>
        <time>2018-08-19T14:29:41Z</time>
      </trkpt>
      <trkpt lat="42.701457" lon="-0.046260">
        <ele>2376.0</ele>
        <time>2018-08-19T14:29:54Z</time>
      </trkpt>
      <trkpt lat="42.701457" lon="-0.046383">
        <ele>2375.4</ele>
        <time>2018-08-19T14:30:09Z</time>
      </trkpt>
      <trkpt lat="42.701473" lon="-0.046513">
        <ele>2374.3</ele>
        <time>2018-08-19T14:30:23Z</time>
      </trkpt>
      <trkpt lat="42.701496" lon="-0.046636">
        <ele>2371.7</ele>
        <time>2018-08-19T14:30:38Z</time>
      </trkpt>
      <trkpt lat="42.701533" lon="-0.046758">
        <ele>2370.4</ele>
        <time>2018-08-19T14:30:49Z</time>
      </trkpt>
      <trkpt lat="42.701575" lon="-0.046875">
        <ele>2369.2</ele>
        <time>2018-08-19T14:31:02Z</time>
      </trkpt>
      <trkpt lat="42.701615" lon="-0.046989">
        <ele>2367.2</ele>
        <time>2018-08-19T14:31:15Z</time>
      </trkpt>
      <trkpt lat="42.701626" lon="-0.047118">
        <ele>2366.9</ele>
        <time>2018-08-19T14:31:30Z</time>
      </trkpt>
      <trkpt lat="42.701679" lon="-0.047219">
        <ele>2366.7</ele>
        <time>2018-08-19T14:31:45Z</time>
      </trkpt>
      <trkpt lat="42.701711" lon="-0.047351">
        <ele>2364.6</ele>
        <time>2018-08-19T14:31:59Z</time>
      </trkpt>
      <trkpt lat="42.701763" lon="-0.047480">
        <ele>2364.0</ele>
        <time>2018-08-19T14:32:11Z</time>
      </trkpt>
      <trkpt lat="42.701834" lon="-0.047575">
        <ele>2362.8</ele>
        <time>2018-08-19T14:32:24Z</time>
      </trkpt>
      <trkpt lat="42.701913" lon="-0.047657">
        <ele>2361.5</ele>
        <time>2018-08-19T14:32:35Z</time>
      </trkpt>
      <trkpt lat="42.701997" lon="-0.047720">
        <ele>2360.6</ele>
        <time>2018-08-19T14:32:44Z</time>
      </trkpt>
      <trkpt lat="42.702061" lon="-0.047810">
        <ele>2359.9</ele>
        <time>2018-08-19T14:32:54Z</time>
      </trkpt>
      <trkpt lat="42.702089" lon="-0.047922">
        <ele>2358.6</ele>
        <time>2018-08-19T14:33:05Z</time>
      </trkpt>
      <trkpt lat="42.702088" lon="-0.048056">
        <ele>2356.8</ele>
        <time>2018-08-19T14:33:14Z</time>
      </trkpt>
      <trkpt lat="42.702055" lon="-0.048180">
        <ele>2355.9</ele>
        <time>2018-08-19T14:33:24Z</time>
      </trkpt>
      <trkpt lat="42.702023" lon="-0.048298">
        <ele>2355.5</ele>
        <time>2018-08-19T14:33:33Z</time>
      </trkpt>
      <trkpt lat="42.701973" lon="-0.048422">
        <ele>2354.9</ele>
        <time>2018-08-19T14:33:43Z</time>
      </trkpt>
      <trkpt lat="42.701959" lon="-0.048550">
        <ele>2355.0</ele>
        <time>2018-08-19T14:33:53Z</time>
      </trkpt>
      <trkpt lat="42.702036" lon="-0.048638">
        <ele>2355.3</ele>
        <time>2018-08-19T14:34:02Z</time>
      </trkpt>
      <trkpt lat="42.702093" lon="-0.048738">
        <ele>2355.7</ele>
        <time>2018-08-19T14:34:13Z</time>
      </trkpt>
      <trkpt lat="42.702076" lon="-0.048852">
        <ele>2353.9</ele>
        <time>2018-08-19T14:34:28Z</time>
      </trkpt>
      <trkpt lat="42.702033" lon="-0.048972">
        <ele>2351.6</ele>
        <time>2018-08-19T14:34:52Z</time>
      </trkpt>
      <trkpt lat="42.702031" lon="-0.049101">
        <ele>2352.0</ele>
        <time>2018-08-19T14:35:03Z</time>
      </trkpt>
      <trkpt lat="42.702027" lon="-0.049237">
        <ele>2349.9</ele>
        <time>2018-08-19T14:35:19Z</time>
      </trkpt>
      <trkpt lat="42.701998" lon="-0.049365">
        <ele>2347.8</ele>
        <time>2018-08-19T14:35:31Z</time>
      </trkpt>
      <trkpt lat="42.702016" lon="-0.049487">
        <ele>2346.2</ele>
        <time>2018-08-19T14:35:42Z</time>
      </trkpt>
      <trkpt lat="42.702031" lon="-0.049602">
        <ele>2344.5</ele>
        <time>2018-08-19T14:35:53Z</time>
      </trkpt>
      <trkpt lat="42.702086" lon="-0.049681">
        <ele>2343.1</ele>
        <time>2018-08-19T14:36:05Z</time>
      </trkpt>
      <trkpt lat="42.702077" lon="-0.049802">
        <ele>2340.5</ele>
        <time>2018-08-19T14:36:18Z</time>
      </trkpt>
      <trkpt lat="42.702101" lon="-0.049923">
        <ele>2337.9</ele>
        <time>2018-08-19T14:36:34Z</time>
      </trkpt>
      <trkpt lat="42.702081" lon="-0.050038">
        <ele>2335.5</ele>
        <time>2018-08-19T14:36:45Z</time>
      </trkpt>
      <trkpt lat="42.702051" lon="-0.050151">
        <ele>2335.9</ele>
        <time>2018-08-19T14:36:55Z</time>
      </trkpt>
      <trkpt lat="42.702119" lon="-0.050261">
        <ele>2334.9</ele>
        <time>2018-08-19T14:37:07Z</time>
      </trkpt>
      <trkpt lat="42.702153" lon="-0.050382">
        <ele>2332.6</ele>
        <time>2018-08-19T14:37:17Z</time>
      </trkpt>
      <trkpt lat="42.702199" lon="-0.050496">
        <ele>2331.3</ele>
        <time>2018-08-19T14:37:26Z</time>
      </trkpt>
      <trkpt lat="42.702230" lon="-0.050614">
        <ele>2329.7</ele>
        <time>2018-08-19T14:37:36Z</time>
      </trkpt>
      <trkpt lat="42.702274" lon="-0.050723">
        <ele>2328.3</ele>
        <time>2018-08-19T14:37:45Z</time>
      </trkpt>
      <trkpt lat="42.702267" lon="-0.050851">
        <ele>2327.3</ele>
        <time>2018-08-19T14:37:56Z</time>
      </trkpt>
      <trkpt lat="42.702204" lon="-0.050968">
        <ele>2327.1</ele>
        <time>2018-08-19T14:38:11Z</time>
      </trkpt>
      <trkpt lat="42.702237" lon="-0.051104">
        <ele>2327.6</ele>
        <time>2018-08-19T14:38:21Z</time>
      </trkpt>
      <trkpt lat="42.702241" lon="-0.051238">
        <ele>2326.8</ele>
        <time>2018-08-19T14:38:32Z</time>
      </trkpt>
      <trkpt lat="42.702261" lon="-0.051365">
        <ele>2325.3</ele>
        <time>2018-08-19T14:38:44Z</time>
      </trkpt>
      <trkpt lat="42.702255" lon="-0.051484">
        <ele>2324.1</ele>
        <time>2018-08-19T14:38:56Z</time>
      </trkpt>
      <trkpt lat="42.702300" lon="-0.051602">
        <ele>2322.6</ele>
        <time>2018-08-19T14:39:08Z</time>
      </trkpt>
      <trkpt lat="42.702360" lon="-0.051687">
        <ele>2321.4</ele>
        <time>2018-08-19T14:39:18Z</time>
      </trkpt>
      <trkpt lat="42.702419" lon="-0.051803">
        <ele>2320.6</ele>
        <time>2018-08-19T14:39:28Z</time>
      </trkpt>
      <trkpt lat="42.702420" lon="-0.051933">
        <ele>2320.2</ele>
        <time>2018-08-19T14:39:38Z</time>
      </trkpt>
      <trkpt lat="42.702426" lon="-0.052064">
        <ele>2320.1</ele>
        <time>2018-08-19T14:39:47Z</time>
      </trkpt>
      <trkpt lat="42.702401" lon="-0.052197">
        <ele>2318.9</ele>
        <time>2018-08-19T14:39:57Z</time>
      </trkpt>
      <trkpt lat="42.702393" lon="-0.052334">
        <ele>2318.4</ele>
        <time>2018-08-19T14:40:06Z</time>
      </trkpt>
      <trkpt lat="42.702404" lon="-0.052466">
        <ele>2317.8</ele>
        <time>2018-08-19T14:40:17Z</time>
      </trkpt>
      <trkpt lat="42.702389" lon="-0.052610">
        <ele>2317.4</ele>
        <time>2018-08-19T14:40:28Z</time>
      </trkpt>
      <trkpt lat="42.702390" lon="-0.052752">
        <ele>2317.4</ele>
        <time>2018-08-19T14:40:38Z</time>
      </trkpt>
      <trkpt lat="42.702367" lon="-0.052884">
        <ele>2317.4</ele>
        <time>2018-08-19T14:40:48Z</time>
      </trkpt>
      <trkpt lat="42.702344" lon="-0.053011">
        <ele>2317.8</ele>
        <time>2018-08-19T14:40:58Z</time>
      </trkpt>
      <trkpt lat="42.702343" lon="-0.053147">
        <ele>2318.7</ele>
        <time>2018-08-19T14:41:08Z</time>
      </trkpt>
      <trkpt lat="42.702347" lon="-0.053282">
        <ele>2318.7</ele>
        <time>2018-08-19T14:41:18Z</time>
      </trkpt>
      <trkpt lat="42.702350" lon="-0.053414">
        <ele>2319.4</ele>
        <time>2018-08-19T14:41:30Z</time>
      </trkpt>
      <trkpt lat="42.702360" lon="-0.053559">
        <ele>2320.1</ele>
        <time>2018-08-19T14:41:42Z</time>
      </trkpt>
      <trkpt lat="42.702322" lon="-0.053674">
        <ele>2320.7</ele>
        <time>2018-08-19T14:41:52Z</time>
      </trkpt>
      <trkpt lat="42.702300" lon="-0.053818">
        <ele>2320.7</ele>
        <time>2018-08-19T14:42:02Z</time>
      </trkpt>
      <trkpt lat="42.702330" lon="-0.053947">
        <ele>2320.3</ele>
        <time>2018-08-19T14:42:10Z</time>
      </trkpt>
      <trkpt lat="42.702346" lon="-0.054083">
        <ele>2319.8</ele>
        <time>2018-08-19T14:42:18Z</time>
      </trkpt>
      <trkpt lat="42.702317" lon="-0.054209">
        <ele>2319.2</ele>
        <time>2018-08-19T14:42:27Z</time>
      </trkpt>
      <trkpt lat="42.702277" lon="-0.054314">
        <ele>2318.7</ele>
        <time>2018-08-19T14:42:36Z</time>
      </trkpt>
      <trkpt lat="42.702254" lon="-0.054441">
        <ele>2318.3</ele>
        <time>2018-08-19T14:42:45Z</time>
      </trkpt>
      <trkpt lat="42.702186" lon="-0.054532">
        <ele>2317.8</ele>
        <time>2018-08-19T14:42:54Z</time>
      </trkpt>
      <trkpt lat="42.702176" lon="-0.054663">
        <ele>2318.1</ele>
        <time>2018-08-19T14:43:05Z</time>
      </trkpt>
      <trkpt lat="42.702221" lon="-0.054792">
        <ele>2318.5</ele>
        <time>2018-08-19T14:43:16Z</time>
      </trkpt>
      <trkpt lat="42.702244" lon="-0.054934">
        <ele>2318.7</ele>
        <time>2018-08-19T14:43:27Z</time>
      </trkpt>
      <trkpt lat="42.702250" lon="-0.055054">
        <ele>2318.4</ele>
        <time>2018-08-19T14:43:36Z</time>
      </trkpt>
      <trkpt lat="42.702257" lon="-0.055174">
        <ele>2318.0</ele>
        <time>2018-08-19T14:43:45Z</time>
      </trkpt>
      <trkpt lat="42.702228" lon="-0.055296">
        <ele>2318.1</ele>
        <time>2018-08-19T14:43:55Z</time>
      </trkpt>
      <trkpt lat="42.702222" lon="-0.055417">
        <ele>2318.3</ele>
        <time>2018-08-19T14:44:05Z</time>
      </trkpt>
      <trkpt lat="42.702203" lon="-0.055558">
        <ele>2319.3</ele>
        <time>2018-08-19T14:44:17Z</time>
      </trkpt>
      <trkpt lat="42.702182" lon="-0.055671">
        <ele>2319.5</ele>
        <time>2018-08-19T14:44:26Z</time>
      </trkpt>
      <trkpt lat="42.702237" lon="-0.055772">
        <ele>2319.5</ele>
        <time>2018-08-19T14:44:34Z</time>
      </trkpt>
      <trkpt lat="42.702294" lon="-0.055884">
        <ele>2319.5</ele>
        <time>2018-08-19T14:44:42Z</time>
      </trkpt>
      <trkpt lat="42.702346" lon="-0.055986">
        <ele>2319.4</ele>
        <time>2018-08-19T14:44:50Z</time>
      </trkpt>
      <trkpt lat="42.702408" lon="-0.056085">
        <ele>2319.2</ele>
        <time>2018-08-19T14:44:58Z</time>
      </trkpt>
      <trkpt lat="42.702482" lon="-0.056171">
        <ele>2318.8</ele>
        <time>2018-08-19T14:45:07Z</time>
      </trkpt>
      <trkpt lat="42.702551" lon="-0.056262">
        <ele>2318.9</ele>
        <time>2018-08-19T14:45:15Z</time>
      </trkpt>
      <trkpt lat="42.702560" lon="-0.056373">
        <ele>2318.8</ele>
        <time>2018-08-19T14:45:22Z</time>
      </trkpt>
      <trkpt lat="42.702559" lon="-0.056488">
        <ele>2318.9</ele>
        <time>2018-08-19T14:45:30Z</time>
      </trkpt>
      <trkpt lat="42.702535" lon="-0.056615">
        <ele>2319.7</ele>
        <time>2018-08-19T14:45:39Z</time>
      </trkpt>
      <trkpt lat="42.702557" lon="-0.056736">
        <ele>2320.5</ele>
        <time>2018-08-19T14:45:49Z</time>
      </trkpt>
      <trkpt lat="42.702573" lon="-0.056855">
        <ele>2320.4</ele>
        <time>2018-08-19T14:46:01Z</time>
      </trkpt>
      <trkpt lat="42.702616" lon="-0.056972">
        <ele>2320.7</ele>
        <time>2018-08-19T14:46:11Z</time>
      </trkpt>
      <trkpt lat="42.702657" lon="-0.057083">
        <ele>2321.0</ele>
        <time>2018-08-19T14:46:21Z</time>
      </trkpt>
      <trkpt lat="42.702612" lon="-0.057187">
        <ele>2320.8</ele>
        <time>2018-08-19T14:46:31Z</time>
      </trkpt>
      <trkpt lat="42.702644" lon="-0.057321">
        <ele>2320.7</ele>
        <time>2018-08-19T14:46:41Z</time>
      </trkpt>
      <trkpt lat="42.702676" lon="-0.057450">
        <ele>2320.5</ele>
        <time>2018-08-19T14:46:51Z</time>
      </trkpt>
      <trkpt lat="42.702698" lon="-0.057577">
        <ele>2320.4</ele>
        <time>2018-08-19T14:47:00Z</time>
      </trkpt>
      <trkpt lat="42.702736" lon="-0.057705">
        <ele>2321.1</ele>
        <time>2018-08-19T14:47:10Z</time>
      </trkpt>
      <trkpt lat="42.702750" lon="-0.057824">
        <ele>2321.6</ele>
        <time>2018-08-19T14:47:19Z</time>
      </trkpt>
      <trkpt lat="42.702761" lon="-0.057949">
        <ele>2322.6</ele>
        <time>2018-08-19T14:47:29Z</time>
      </trkpt>
      <trkpt lat="42.702761" lon="-0.058084">
        <ele>2323.4</ele>
        <time>2018-08-19T14:47:39Z</time>
      </trkpt>
      <trkpt lat="42.702772" lon="-0.058204">
        <ele>2323.7</ele>
        <time>2018-08-19T14:47:48Z</time>
      </trkpt>
      <trkpt lat="42.702812" lon="-0.058327">
        <ele>2324.1</ele>
        <time>2018-08-19T14:47:57Z</time>
      </trkpt>
      <trkpt lat="42.702812" lon="-0.058463">
        <ele>2324.2</ele>
        <time>2018-08-19T14:48:06Z</time>
      </trkpt>
      <trkpt lat="42.702814" lon="-0.058601">
        <ele>2324.5</ele>
        <time>2018-08-19T14:48:15Z</time>
      </trkpt>
      <trkpt lat="42.702848" lon="-0.058719">
        <ele>2324.6</ele>
        <time>2018-08-19T14:48:23Z</time>
      </trkpt>
      <trkpt lat="42.702927" lon="-0.058824">
        <ele>2324.8</ele>
        <time>2018-08-19T14:48:31Z</time>
      </trkpt>
      <trkpt lat="42.702956" lon="-0.058943">
        <ele>2324.9</ele>
        <time>2018-08-19T14:48:39Z</time>
      </trkpt>
      <trkpt lat="42.702961" lon="-0.059071">
        <ele>2326.3</ele>
        <time>2018-08-19T14:48:49Z</time>
      </trkpt>
      <trkpt lat="42.702973" lon="-0.059185">
        <ele>2327.0</ele>
        <time>2018-08-19T14:48:58Z</time>
      </trkpt>
      <trkpt lat="42.703003" lon="-0.059305">
        <ele>2327.2</ele>
        <time>2018-08-19T14:49:07Z</time>
      </trkpt>
      <trkpt lat="42.703034" lon="-0.059432">
        <ele>2327.2</ele>
        <time>2018-08-19T14:49:17Z</time>
      </trkpt>
      <trkpt lat="42.703067" lon="-0.059546">
        <ele>2327.8</ele>
        <time>2018-08-19T14:49:27Z</time>
      </trkpt>
      <trkpt lat="42.703089" lon="-0.059666">
        <ele>2328.1</ele>
        <time>2018-08-19T14:49:37Z</time>
      </trkpt>
      <trkpt lat="42.703106" lon="-0.059787">
        <ele>2328.5</ele>
        <time>2018-08-19T14:49:46Z</time>
      </trkpt>
      <trkpt lat="42.703137" lon="-0.059918">
        <ele>2328.5</ele>
        <time>2018-08-19T14:49:55Z</time>
      </trkpt>
      <trkpt lat="42.703164" lon="-0.060040">
        <ele>2328.7</ele>
        <time>2018-08-19T14:50:05Z</time>
      </trkpt>
      <trkpt lat="42.703171" lon="-0.060173">
        <ele>2329.2</ele>
        <time>2018-08-19T14:50:14Z</time>
      </trkpt>
      <trkpt lat="42.703161" lon="-0.060291">
        <ele>2328.7</ele>
        <time>2018-08-19T14:50:24Z</time>
      </trkpt>
      <trkpt lat="42.703154" lon="-0.060408">
        <ele>2327.6</ele>
        <time>2018-08-19T14:50:36Z</time>
      </trkpt>
      <trkpt lat="42.703179" lon="-0.060532">
        <ele>2326.4</ele>
        <time>2018-08-19T14:50:47Z</time>
      </trkpt>
      <trkpt lat="42.703204" lon="-0.060663">
        <ele>2325.7</ele>
        <time>2018-08-19T14:50:57Z</time>
      </trkpt>
      <trkpt lat="42.703224" lon="-0.060787">
        <ele>2325.2</ele>
        <time>2018-08-19T14:51:07Z</time>
      </trkpt>
      <trkpt lat="42.703260" lon="-0.060917">
        <ele>2324.6</ele>
        <time>2018-08-19T14:51:18Z</time>
      </trkpt>
      <trkpt lat="42.703235" lon="-0.061044">
        <ele>2324.3</ele>
        <time>2018-08-19T14:51:29Z</time>
      </trkpt>
      <trkpt lat="42.703223" lon="-0.061181">
        <ele>2323.8</ele>
        <time>2018-08-19T14:51:40Z</time>
      </trkpt>
      <trkpt lat="42.703243" lon="-0.061310">
        <ele>2322.6</ele>
        <time>2018-08-19T14:51:54Z</time>
      </trkpt>
      <trkpt lat="42.703255" lon="-0.061428">
        <ele>2321.2</ele>
        <time>2018-08-19T14:52:07Z</time>
      </trkpt>
      <trkpt lat="42.703263" lon="-0.061560">
        <ele>2319.9</ele>
        <time>2018-08-19T14:52:17Z</time>
      </trkpt>
      <trkpt lat="42.703278" lon="-0.061696">
        <ele>2318.6</ele>
        <time>2018-08-19T14:52:27Z</time>
      </trkpt>
      <trkpt lat="42.703291" lon="-0.061828">
        <ele>2316.8</ele>
        <time>2018-08-19T14:52:39Z</time>
      </trkpt>
      <trkpt lat="42.703360" lon="-0.061915">
        <ele>2315.4</ele>
        <time>2018-08-19T14:52:51Z</time>
      </trkpt>
      <trkpt lat="42.703413" lon="-0.062029">
        <ele>2313.1</ele>
        <time>2018-08-19T14:53:02Z</time>
      </trkpt>
      <trkpt lat="42.703449" lon="-0.062161">
        <ele>2311.9</ele>
        <time>2018-08-19T14:53:11Z</time>
      </trkpt>
      <trkpt lat="42.703465" lon="-0.062288">
        <ele>2311.2</ele>
        <time>2018-08-19T14:53:20Z</time>
      </trkpt>
      <trkpt lat="42.703479" lon="-0.062406">
        <ele>2309.9</ele>
        <time>2018-08-19T14:53:30Z</time>
      </trkpt>
      <trkpt lat="42.703485" lon="-0.062540">
        <ele>2308.1</ele>
        <time>2018-08-19T14:53:40Z</time>
      </trkpt>
      <trkpt lat="42.703489" lon="-0.062677">
        <ele>2306.5</ele>
        <time>2018-08-19T14:53:48Z</time>
      </trkpt>
      <trkpt lat="42.703488" lon="-0.062808">
        <ele>2303.9</ele>
        <time>2018-08-19T14:53:57Z</time>
      </trkpt>
      <trkpt lat="42.703521" lon="-0.062936">
        <ele>2301.7</ele>
        <time>2018-08-19T14:54:06Z</time>
      </trkpt>
      <trkpt lat="42.703490" lon="-0.063063">
        <ele>2299.3</ele>
        <time>2018-08-19T14:54:14Z</time>
      </trkpt>
      <trkpt lat="42.703508" lon="-0.063193">
        <ele>2297.6</ele>
        <time>2018-08-19T14:54:22Z</time>
      </trkpt>
      <trkpt lat="42.703524" lon="-0.063326">
        <ele>2295.8</ele>
        <time>2018-08-19T14:54:31Z</time>
      </trkpt>
      <trkpt lat="42.703543" lon="-0.063444">
        <ele>2294.2</ele>
        <time>2018-08-19T14:54:38Z</time>
      </trkpt>
      <trkpt lat="42.703563" lon="-0.063578">
        <ele>2292.4</ele>
        <time>2018-08-19T14:54:45Z</time>
      </trkpt>
      <trkpt lat="42.703600" lon="-0.063717">
        <ele>2290.4</ele>
        <time>2018-08-19T14:54:54Z</time>
      </trkpt>
      <trkpt lat="42.703632" lon="-0.063829">
        <ele>2288.5</ele>
        <time>2018-08-19T14:55:04Z</time>
      </trkpt>
      <trkpt lat="42.703704" lon="-0.063957">
        <ele>2285.7</ele>
        <time>2018-08-19T14:55:14Z</time>
      </trkpt>
      <trkpt lat="42.703765" lon="-0.064056">
        <ele>2284.0</ele>
        <time>2018-08-19T14:55:21Z</time>
      </trkpt>
      <trkpt lat="42.703834" lon="-0.064119">
        <ele>2281.6</ele>
        <time>2018-08-19T14:55:32Z</time>
      </trkpt>
      <trkpt lat="42.703846" lon="-0.064114">
        <ele>2278.3</ele>
        <time>2018-08-19T14:57:36Z</time>
      </trkpt>
      <trkpt lat="42.703867" lon="-0.064098">
        <ele>2279.4</ele>
        <time>2018-08-19T14:58:24Z</time>
      </trkpt>
      <trkpt lat="42.703903" lon="-0.063976">
        <ele>2278.1</ele>
        <time>2018-08-19T14:58:40Z</time>
      </trkpt>
      <trkpt lat="42.703947" lon="-0.063863">
        <ele>2277.5</ele>
        <time>2018-08-19T14:58:50Z</time>
      </trkpt>
      <trkpt lat="42.703966" lon="-0.063741">
        <ele>2275.9</ele>
        <time>2018-08-19T14:59:00Z</time>
      </trkpt>
      <trkpt lat="42.704046" lon="-0.063658">
        <ele>2275.5</ele>
        <time>2018-08-19T14:59:09Z</time>
      </trkpt>
      <trkpt lat="42.704139" lon="-0.063614">
        <ele>2274.5</ele>
        <time>2018-08-19T14:59:18Z</time>
      </trkpt>
      <trkpt lat="42.704234" lon="-0.063577">
        <ele>2273.4</ele>
        <time>2018-08-19T14:59:28Z</time>
      </trkpt>
      <trkpt lat="42.704331" lon="-0.063558">
        <ele>2272.0</ele>
        <time>2018-08-19T14:59:37Z</time>
      </trkpt>
      <trkpt lat="42.704424" lon="-0.063532">
        <ele>2271.1</ele>
        <time>2018-08-19T14:59:46Z</time>
      </trkpt>
      <trkpt lat="42.704522" lon="-0.063508">
        <ele>2270.4</ele>
        <time>2018-08-19T14:59:56Z</time>
      </trkpt>
      <trkpt lat="42.704628" lon="-0.063466">
        <ele>2269.4</ele>
        <time>2018-08-19T15:00:07Z</time>
      </trkpt>
      <trkpt lat="42.704730" lon="-0.063448">
        <ele>2268.2</ele>
        <time>2018-08-19T15:00:16Z</time>
      </trkpt>
      <trkpt lat="42.704808" lon="-0.063403">
        <ele>2267.4</ele>
        <time>2018-08-19T15:00:27Z</time>
      </trkpt>
      <trkpt lat="42.704894" lon="-0.063346">
        <ele>2266.3</ele>
        <time>2018-08-19T15:00:40Z</time>
      </trkpt>
      <trkpt lat="42.704985" lon="-0.063293">
        <ele>2265.3</ele>
        <time>2018-08-19T15:00:48Z</time>
      </trkpt>
      <trkpt lat="42.705079" lon="-0.063270">
        <ele>2264.6</ele>
        <time>2018-08-19T15:00:57Z</time>
      </trkpt>
      <trkpt lat="42.705173" lon="-0.063242">
        <ele>2263.5</ele>
        <time>2018-08-19T15:01:06Z</time>
      </trkpt>
      <trkpt lat="42.705262" lon="-0.063201">
        <ele>2262.5</ele>
        <time>2018-08-19T15:01:16Z</time>
      </trkpt>
      <trkpt lat="42.705345" lon="-0.063178">
        <ele>2261.7</ele>
        <time>2018-08-19T15:01:25Z</time>
      </trkpt>
      <trkpt lat="42.705439" lon="-0.063160">
        <ele>2260.8</ele>
        <time>2018-08-19T15:01:34Z</time>
      </trkpt>
      <trkpt lat="42.705533" lon="-0.063118">
        <ele>2259.9</ele>
        <time>2018-08-19T15:01:43Z</time>
      </trkpt>
      <trkpt lat="42.705622" lon="-0.063053">
        <ele>2258.8</ele>
        <time>2018-08-19T15:01:52Z</time>
      </trkpt>
      <trkpt lat="42.705706" lon="-0.062979">
        <ele>2257.7</ele>
        <time>2018-08-19T15:02:01Z</time>
      </trkpt>
      <trkpt lat="42.705795" lon="-0.062941">
        <ele>2256.9</ele>
        <time>2018-08-19T15:02:10Z</time>
      </trkpt>
      <trkpt lat="42.705893" lon="-0.062903">
        <ele>2255.6</ele>
        <time>2018-08-19T15:02:20Z</time>
      </trkpt>
      <trkpt lat="42.705981" lon="-0.062840">
        <ele>2254.7</ele>
        <time>2018-08-19T15:02:29Z</time>
      </trkpt>
      <trkpt lat="42.706066" lon="-0.062774">
        <ele>2253.8</ele>
        <time>2018-08-19T15:02:38Z</time>
      </trkpt>
      <trkpt lat="42.706154" lon="-0.062704">
        <ele>2252.9</ele>
        <time>2018-08-19T15:02:47Z</time>
      </trkpt>
      <trkpt lat="42.706233" lon="-0.062622">
        <ele>2251.9</ele>
        <time>2018-08-19T15:02:56Z</time>
      </trkpt>
      <trkpt lat="42.706317" lon="-0.062568">
        <ele>2250.8</ele>
        <time>2018-08-19T15:03:05Z</time>
      </trkpt>
      <trkpt lat="42.706397" lon="-0.062490">
        <ele>2249.4</ele>
        <time>2018-08-19T15:03:14Z</time>
      </trkpt>
      <trkpt lat="42.706473" lon="-0.062420">
        <ele>2248.5</ele>
        <time>2018-08-19T15:03:23Z</time>
      </trkpt>
      <trkpt lat="42.706549" lon="-0.062339">
        <ele>2247.6</ele>
        <time>2018-08-19T15:03:32Z</time>
      </trkpt>
      <trkpt lat="42.706638" lon="-0.062290">
        <ele>2246.6</ele>
        <time>2018-08-19T15:03:41Z</time>
      </trkpt>
      <trkpt lat="42.706727" lon="-0.062221">
        <ele>2245.7</ele>
        <time>2018-08-19T15:03:51Z</time>
      </trkpt>
      <trkpt lat="42.706802" lon="-0.062143">
        <ele>2244.8</ele>
        <time>2018-08-19T15:04:00Z</time>
      </trkpt>
      <trkpt lat="42.706886" lon="-0.062086">
        <ele>2243.7</ele>
        <time>2018-08-19T15:04:09Z</time>
      </trkpt>
      <trkpt lat="42.706962" lon="-0.061988">
        <ele>2242.7</ele>
        <time>2018-08-19T15:04:19Z</time>
      </trkpt>
      <trkpt lat="42.707031" lon="-0.061896">
        <ele>2242.0</ele>
        <time>2018-08-19T15:04:28Z</time>
      </trkpt>
      <trkpt lat="42.707094" lon="-0.061799">
        <ele>2241.7</ele>
        <time>2018-08-19T15:04:37Z</time>
      </trkpt>
      <trkpt lat="42.707135" lon="-0.061682">
        <ele>2240.8</ele>
        <time>2018-08-19T15:04:46Z</time>
      </trkpt>
      <trkpt lat="42.707170" lon="-0.061562">
        <ele>2239.8</ele>
        <time>2018-08-19T15:04:54Z</time>
      </trkpt>
      <trkpt lat="42.707200" lon="-0.061443">
        <ele>2239.1</ele>
        <time>2018-08-19T15:05:02Z</time>
      </trkpt>
      <trkpt lat="42.707236" lon="-0.061309">
        <ele>2238.2</ele>
        <time>2018-08-19T15:05:11Z</time>
      </trkpt>
      <trkpt lat="42.707272" lon="-0.061199">
        <ele>2237.3</ele>
        <time>2018-08-19T15:05:19Z</time>
      </trkpt>
      <trkpt lat="42.707316" lon="-0.061096">
        <ele>2236.5</ele>
        <time>2018-08-19T15:05:27Z</time>
      </trkpt>
      <trkpt lat="42.707409" lon="-0.061052">
        <ele>2235.7</ele>
        <time>2018-08-19T15:05:36Z</time>
      </trkpt>
      <trkpt lat="42.707479" lon="-0.060971">
        <ele>2234.8</ele>
        <time>2018-08-19T15:05:45Z</time>
      </trkpt>
      <trkpt lat="42.707534" lon="-0.060869">
        <ele>2234.1</ele>
        <time>2018-08-19T15:05:53Z</time>
      </trkpt>
      <trkpt lat="42.707603" lon="-0.060793">
        <ele>2233.3</ele>
        <time>2018-08-19T15:06:02Z</time>
      </trkpt>
      <trkpt lat="42.707688" lon="-0.060725">
        <ele>2232.1</ele>
        <time>2018-08-19T15:06:13Z</time>
      </trkpt>
      <trkpt lat="42.707763" lon="-0.060647">
        <ele>2231.3</ele>
        <time>2018-08-19T15:06:21Z</time>
      </trkpt>
      <trkpt lat="42.707843" lon="-0.060550">
        <ele>2230.4</ele>
        <time>2018-08-19T15:06:30Z</time>
      </trkpt>
      <trkpt lat="42.707917" lon="-0.060466">
        <ele>2229.4</ele>
        <time>2018-08-19T15:06:40Z</time>
      </trkpt>
      <trkpt lat="42.707977" lon="-0.060365">
        <ele>2228.4</ele>
        <time>2018-08-19T15:06:49Z</time>
      </trkpt>
      <trkpt lat="42.708042" lon="-0.060277">
        <ele>2227.8</ele>
        <time>2018-08-19T15:06:57Z</time>
      </trkpt>
      <trkpt lat="42.708122" lon="-0.060184">
        <ele>2226.8</ele>
        <time>2018-08-19T15:07:06Z</time>
      </trkpt>
      <trkpt lat="42.708198" lon="-0.060103">
        <ele>2226.0</ele>
        <time>2018-08-19T15:07:15Z</time>
      </trkpt>
      <trkpt lat="42.708293" lon="-0.060078">
        <ele>2225.1</ele>
        <time>2018-08-19T15:07:23Z</time>
      </trkpt>
      <trkpt lat="42.708358" lon="-0.059991">
        <ele>2224.0</ele>
        <time>2018-08-19T15:07:31Z</time>
      </trkpt>
      <trkpt lat="42.708441" lon="-0.059924">
        <ele>2223.1</ele>
        <time>2018-08-19T15:07:39Z</time>
      </trkpt>
      <trkpt lat="42.708531" lon="-0.059853">
        <ele>2222.2</ele>
        <time>2018-08-19T15:07:48Z</time>
      </trkpt>
      <trkpt lat="42.708612" lon="-0.059777">
        <ele>2221.4</ele>
        <time>2018-08-19T15:07:56Z</time>
      </trkpt>
      <trkpt lat="42.708689" lon="-0.059692">
        <ele>2220.6</ele>
        <time>2018-08-19T15:08:05Z</time>
      </trkpt>
      <trkpt lat="42.708753" lon="-0.059606">
        <ele>2219.8</ele>
        <time>2018-08-19T15:08:13Z</time>
      </trkpt>
      <trkpt lat="42.708829" lon="-0.059515">
        <ele>2219.0</ele>
        <time>2018-08-19T15:08:21Z</time>
      </trkpt>
      <trkpt lat="42.708914" lon="-0.059437">
        <ele>2218.3</ele>
        <time>2018-08-19T15:08:29Z</time>
      </trkpt>
      <trkpt lat="42.708984" lon="-0.059348">
        <ele>2217.8</ele>
        <time>2018-08-19T15:08:37Z</time>
      </trkpt>
      <trkpt lat="42.709060" lon="-0.059272">
        <ele>2217.3</ele>
        <time>2018-08-19T15:08:45Z</time>
      </trkpt>
      <trkpt lat="42.709146" lon="-0.059233">
        <ele>2216.9</ele>
        <time>2018-08-19T15:08:53Z</time>
      </trkpt>
      <trkpt lat="42.709229" lon="-0.059164">
        <ele>2216.5</ele>
        <time>2018-08-19T15:09:01Z</time>
      </trkpt>
      <trkpt lat="42.709321" lon="-0.059110">
        <ele>2216.3</ele>
        <time>2018-08-19T15:09:09Z</time>
      </trkpt>
      <trkpt lat="42.709412" lon="-0.059029">
        <ele>2216.0</ele>
        <time>2018-08-19T15:09:18Z</time>
      </trkpt>
      <trkpt lat="42.709481" lon="-0.058949">
        <ele>2215.6</ele>
        <time>2018-08-19T15:09:25Z</time>
      </trkpt>
      <trkpt lat="42.709562" lon="-0.058855">
        <ele>2215.5</ele>
        <time>2018-08-19T15:09:34Z</time>
      </trkpt>
      <trkpt lat="42.709642" lon="-0.058782">
        <ele>2215.5</ele>
        <time>2018-08-19T15:09:42Z</time>
      </trkpt>
      <trkpt lat="42.709726" lon="-0.058720">
        <ele>2215.5</ele>
        <time>2018-08-19T15:09:50Z</time>
      </trkpt>
      <trkpt lat="42.709807" lon="-0.058635">
        <ele>2215.7</ele>
        <time>2018-08-19T15:09:57Z</time>
      </trkpt>
      <trkpt lat="42.709883" lon="-0.058544">
        <ele>2215.7</ele>
        <time>2018-08-19T15:10:05Z</time>
      </trkpt>
      <trkpt lat="42.709955" lon="-0.058440">
        <ele>2215.7</ele>
        <time>2018-08-19T15:10:13Z</time>
      </trkpt>
      <trkpt lat="42.710018" lon="-0.058336">
        <ele>2215.9</ele>
        <time>2018-08-19T15:10:21Z</time>
      </trkpt>
      <trkpt lat="42.710069" lon="-0.058227">
        <ele>2216.0</ele>
        <time>2018-08-19T15:10:29Z</time>
      </trkpt>
      <trkpt lat="42.710109" lon="-0.058168">
        <ele>2215.8</ele>
        <time>2018-08-19T15:10:37Z</time>
      </trkpt>
      <trkpt lat="42.710161" lon="-0.058023">
        <ele>2216.1</ele>
        <time>2018-08-19T15:10:46Z</time>
      </trkpt>
      <trkpt lat="42.710219" lon="-0.057924">
        <ele>2215.9</ele>
        <time>2018-08-19T15:10:54Z</time>
      </trkpt>
      <trkpt lat="42.710281" lon="-0.057802">
        <ele>2215.6</ele>
        <time>2018-08-19T15:11:03Z</time>
      </trkpt>
      <trkpt lat="42.710342" lon="-0.057700">
        <ele>2215.3</ele>
        <time>2018-08-19T15:11:11Z</time>
      </trkpt>
      <trkpt lat="42.710403" lon="-0.057596">
        <ele>2215.4</ele>
        <time>2018-08-19T15:11:19Z</time>
      </trkpt>
      <trkpt lat="42.710463" lon="-0.057501">
        <ele>2215.4</ele>
        <time>2018-08-19T15:11:27Z</time>
      </trkpt>
      <trkpt lat="42.710520" lon="-0.057401">
        <ele>2215.6</ele>
        <time>2018-08-19T15:11:35Z</time>
      </trkpt>
      <trkpt lat="42.710591" lon="-0.057309">
        <ele>2215.9</ele>
        <time>2018-08-19T15:11:43Z</time>
      </trkpt>
      <trkpt lat="42.710664" lon="-0.057205">
        <ele>2215.9</ele>
        <time>2018-08-19T15:11:51Z</time>
      </trkpt>
      <trkpt lat="42.710728" lon="-0.057118">
        <ele>2215.6</ele>
        <time>2018-08-19T15:11:59Z</time>
      </trkpt>
      <trkpt lat="42.710801" lon="-0.057037">
        <ele>2215.6</ele>
        <time>2018-08-19T15:12:06Z</time>
      </trkpt>
      <trkpt lat="42.710881" lon="-0.056969">
        <ele>2215.6</ele>
        <time>2018-08-19T15:12:13Z</time>
      </trkpt>
      <trkpt lat="42.710952" lon="-0.056879">
        <ele>2215.9</ele>
        <time>2018-08-19T15:12:20Z</time>
      </trkpt>
      <trkpt lat="42.711027" lon="-0.056802">
        <ele>2216.0</ele>
        <time>2018-08-19T15:12:27Z</time>
      </trkpt>
      <trkpt lat="42.711108" lon="-0.056739">
        <ele>2215.9</ele>
        <time>2018-08-19T15:12:34Z</time>
      </trkpt>
      <trkpt lat="42.711189" lon="-0.056684">
        <ele>2215.9</ele>
        <time>2018-08-19T15:12:41Z</time>
      </trkpt>
      <trkpt lat="42.711287" lon="-0.056629">
        <ele>2216.1</ele>
        <time>2018-08-19T15:12:49Z</time>
      </trkpt>
      <trkpt lat="42.711370" lon="-0.056591">
        <ele>2215.9</ele>
        <time>2018-08-19T15:12:56Z</time>
      </trkpt>
      <trkpt lat="42.711454" lon="-0.056552">
        <ele>2215.7</ele>
        <time>2018-08-19T15:13:04Z</time>
      </trkpt>
      <trkpt lat="42.711526" lon="-0.056492">
        <ele>2215.4</ele>
        <time>2018-08-19T15:13:12Z</time>
      </trkpt>
      <trkpt lat="42.711600" lon="-0.056416">
        <ele>2215.3</ele>
        <time>2018-08-19T15:13:20Z</time>
      </trkpt>
      <trkpt lat="42.711676" lon="-0.056312">
        <ele>2215.5</ele>
        <time>2018-08-19T15:13:29Z</time>
      </trkpt>
      <trkpt lat="42.711739" lon="-0.056211">
        <ele>2215.5</ele>
        <time>2018-08-19T15:13:37Z</time>
      </trkpt>
      <trkpt lat="42.711818" lon="-0.056118">
        <ele>2215.3</ele>
        <time>2018-08-19T15:13:45Z</time>
      </trkpt>
      <trkpt lat="42.711878" lon="-0.056013">
        <ele>2215.3</ele>
        <time>2018-08-19T15:13:53Z</time>
      </trkpt>
      <trkpt lat="42.711927" lon="-0.055890">
        <ele>2215.3</ele>
        <time>2018-08-19T15:14:01Z</time>
      </trkpt>
      <trkpt lat="42.711971" lon="-0.055780">
        <ele>2215.2</ele>
        <time>2018-08-19T15:14:08Z</time>
      </trkpt>
      <trkpt lat="42.711998" lon="-0.055655">
        <ele>2215.2</ele>
        <time>2018-08-19T15:14:16Z</time>
      </trkpt>
      <trkpt lat="42.712055" lon="-0.055529">
        <ele>2215.2</ele>
        <time>2018-08-19T15:14:24Z</time>
      </trkpt>
      <trkpt lat="42.712114" lon="-0.055428">
        <ele>2215.4</ele>
        <time>2018-08-19T15:14:35Z</time>
      </trkpt>
      <trkpt lat="42.712143" lon="-0.055299">
        <ele>2215.5</ele>
        <time>2018-08-19T15:14:43Z</time>
      </trkpt>
      <trkpt lat="42.712181" lon="-0.055179">
        <ele>2215.5</ele>
        <time>2018-08-19T15:14:51Z</time>
      </trkpt>
      <trkpt lat="42.712220" lon="-0.055048">
        <ele>2215.5</ele>
        <time>2018-08-19T15:14:59Z</time>
      </trkpt>
      <trkpt lat="42.712249" lon="-0.054927">
        <ele>2215.2</ele>
        <time>2018-08-19T15:15:07Z</time>
      </trkpt>
      <trkpt lat="42.712265" lon="-0.054799">
        <ele>2215.5</ele>
        <time>2018-08-19T15:15:15Z</time>
      </trkpt>
      <trkpt lat="42.712289" lon="-0.054680">
        <ele>2215.5</ele>
        <time>2018-08-19T15:15:22Z</time>
      </trkpt>
      <trkpt lat="42.712310" lon="-0.054547">
        <ele>2215.5</ele>
        <time>2018-08-19T15:15:30Z</time>
      </trkpt>
      <trkpt lat="42.712336" lon="-0.054415">
        <ele>2215.7</ele>
        <time>2018-08-19T15:15:38Z</time>
      </trkpt>
      <trkpt lat="42.712364" lon="-0.054289">
        <ele>2215.7</ele>
        <time>2018-08-19T15:15:46Z</time>
      </trkpt>
      <trkpt lat="42.712411" lon="-0.054170">
        <ele>2215.7</ele>
        <time>2018-08-19T15:15:54Z</time>
      </trkpt>
      <trkpt lat="42.712418" lon="-0.054053">
        <ele>2215.6</ele>
        <time>2018-08-19T15:15:59Z</time>
      </trkpt>
      <trkpt lat="42.712447" lon="-0.053963">
        <ele>2215.1</ele>
        <time>2018-08-19T15:16:06Z</time>
      </trkpt>
      <trkpt lat="42.712477" lon="-0.053857">
        <ele>2215.2</ele>
        <time>2018-08-19T15:16:13Z</time>
      </trkpt>
      <trkpt lat="42.712530" lon="-0.053742">
        <ele>2215.5</ele>
        <time>2018-08-19T15:16:23Z</time>
      </trkpt>
      <trkpt lat="42.712563" lon="-0.053606">
        <ele>2215.6</ele>
        <time>2018-08-19T15:16:29Z</time>
      </trkpt>
      <trkpt lat="42.712585" lon="-0.053509">
        <ele>2215.9</ele>
        <time>2018-08-19T15:16:36Z</time>
      </trkpt>
      <trkpt lat="42.712634" lon="-0.053367">
        <ele>2215.8</ele>
        <time>2018-08-19T15:16:47Z</time>
      </trkpt>
      <trkpt lat="42.712665" lon="-0.053249">
        <ele>2215.4</ele>
        <time>2018-08-19T15:16:54Z</time>
      </trkpt>
      <trkpt lat="42.712690" lon="-0.053153">
        <ele>2215.3</ele>
        <time>2018-08-19T15:17:01Z</time>
      </trkpt>
      <trkpt lat="42.712732" lon="-0.053009">
        <ele>2215.5</ele>
        <time>2018-08-19T15:17:11Z</time>
      </trkpt>
      <trkpt lat="42.712741" lon="-0.052873">
        <ele>2215.6</ele>
        <time>2018-08-19T15:17:19Z</time>
      </trkpt>
      <trkpt lat="42.712780" lon="-0.052751">
        <ele>2215.6</ele>
        <time>2018-08-19T15:17:24Z</time>
      </trkpt>
      <trkpt lat="42.712787" lon="-0.052634">
        <ele>2215.9</ele>
        <time>2018-08-19T15:17:33Z</time>
      </trkpt>
      <trkpt lat="42.712810" lon="-0.052513">
        <ele>2216.0</ele>
        <time>2018-08-19T15:17:38Z</time>
      </trkpt>
      <trkpt lat="42.712818" lon="-0.052386">
        <ele>2216.1</ele>
        <time>2018-08-19T15:17:47Z</time>
      </trkpt>
      <trkpt lat="42.712815" lon="-0.052286">
        <ele>2216.1</ele>
        <time>2018-08-19T15:17:53Z</time>
      </trkpt>
      <trkpt lat="42.712838" lon="-0.052141">
        <ele>2216.4</ele>
        <time>2018-08-19T15:18:01Z</time>
      </trkpt>
      <trkpt lat="42.712863" lon="-0.052039">
        <ele>2216.2</ele>
        <time>2018-08-19T15:18:08Z</time>
      </trkpt>
      <trkpt lat="42.712905" lon="-0.051937">
        <ele>2215.7</ele>
        <time>2018-08-19T15:18:16Z</time>
      </trkpt>
      <trkpt lat="42.712929" lon="-0.051823">
        <ele>2215.9</ele>
        <time>2018-08-19T15:18:26Z</time>
      </trkpt>
      <trkpt lat="42.712976" lon="-0.051713">
        <ele>2216.1</ele>
        <time>2018-08-19T15:18:32Z</time>
      </trkpt>
      <trkpt lat="42.713026" lon="-0.051588">
        <ele>2216.2</ele>
        <time>2018-08-19T15:18:43Z</time>
      </trkpt>
      <trkpt lat="42.713070" lon="-0.051483">
        <ele>2216.1</ele>
        <time>2018-08-19T15:18:48Z</time>
      </trkpt>
      <trkpt lat="42.713108" lon="-0.051359">
        <ele>2216.1</ele>
        <time>2018-08-19T15:18:57Z</time>
      </trkpt>
      <trkpt lat="42.713168" lon="-0.051269">
        <ele>2215.6</ele>
        <time>2018-08-19T15:19:11Z</time>
      </trkpt>
      <trkpt lat="42.713201" lon="-0.051241">
        <ele>2236.4</ele>
        <time>2018-08-19T15:19:35Z</time>
      </trkpt>
    </trkseg>
  </trk>
</gpx>

